<?xml version="1.0" encoding="UTF-8"?>
<gpx version="1.1" creator="https://www.youtrack.es" xsi:schemaLocation="http://www.topografix.com/GPX/1/1 http://www.topografix.com/GPX/1/1/gpx.xsd http://www.garmin.com/xmlschemas/GpxExtensions/v3 http://www.garmin.com/xmlschemas/GpxExtensionsv3.xsd http://www.garmin.com/xmlschemas/TrackPointExtension/v1 http://www.garmin.com/xmlschemas/TrackPointExtensionv1.xsd" xmlns:gpxtpx="http://www.garmin.com/xmlschemas/TrackPointExtension/v1" xmlns:gpxx="http://www.garmin.com/xmlschemas/GpxExtensions/v3" xmlns:xsi="http://www.w3.org/2001/XMLSchema-instance">
  <metadata>
    <link href="https://www.youtrack.es">
      <text>YouTrack.es</text>
    </link>
    <time>2026-05-10T12:04:40Z</time>
  </metadata>
  <trk>
    <src>https://www.youtrack.es</src>
    <link href="https://www.youtrack.es/ruta/1739-ruta-completa-intermedia-desde-batan-a-principe-pio">
      <text>YouTrack.es</text>
    </link>
    <trkseg>
      <trkpt lat="40.407962" lon="-3.752994">
        <ele>640.399</ele>
        <time>2018-08-20T03:48:48Z</time>
      </trkpt>
      <trkpt lat="40.408321" lon="-3.752297">
        <ele>639.707</ele>
        <time>2018-08-20T03:48:58Z</time>
      </trkpt>
      <trkpt lat="40.408623" lon="-3.752511">
        <ele>637.027</ele>
        <time>2018-08-20T03:49:08Z</time>
      </trkpt>
      <trkpt lat="40.408705" lon="-3.752028">
        <ele>637.108</ele>
        <time>2018-08-20T03:49:18Z</time>
      </trkpt>
      <trkpt lat="40.408901" lon="-3.751438">
        <ele>637.741</ele>
        <time>2018-08-20T03:49:28Z</time>
      </trkpt>
      <trkpt lat="40.409081" lon="-3.751063">
        <ele>636.746</ele>
        <time>2018-08-20T03:49:38Z</time>
      </trkpt>
      <trkpt lat="40.409301" lon="-3.750698">
        <ele>635.576</ele>
        <time>2018-08-20T03:49:48Z</time>
      </trkpt>
      <trkpt lat="40.409522" lon="-3.750473">
        <ele>634.996</ele>
        <time>2018-08-20T03:49:58Z</time>
      </trkpt>
      <trkpt lat="40.409677" lon="-3.750215">
        <ele>634.138</ele>
        <time>2018-08-20T03:50:08Z</time>
      </trkpt>
      <trkpt lat="40.409759" lon="-3.749904">
        <ele>632.625</ele>
        <time>2018-08-20T03:50:18Z</time>
      </trkpt>
      <trkpt lat="40.409939" lon="-3.749335">
        <ele>631.592</ele>
        <time>2018-08-20T03:50:28Z</time>
      </trkpt>
      <trkpt lat="40.410192" lon="-3.748885">
        <ele>630.324</ele>
        <time>2018-08-20T03:50:38Z</time>
      </trkpt>
      <trkpt lat="40.410412" lon="-3.748423">
        <ele>630.064</ele>
        <time>2018-08-20T03:50:48Z</time>
      </trkpt>
      <trkpt lat="40.410682" lon="-3.747898">
        <ele>630.006</ele>
        <time>2018-08-20T03:50:58Z</time>
      </trkpt>
      <trkpt lat="40.410984" lon="-3.747490">
        <ele>630.016</ele>
        <time>2018-08-20T03:51:08Z</time>
      </trkpt>
      <trkpt lat="40.411172" lon="-3.747147">
        <ele>630.008</ele>
        <time>2018-08-20T03:51:18Z</time>
      </trkpt>
      <trkpt lat="40.411499" lon="-3.746771">
        <ele>629.298</ele>
        <time>2018-08-20T03:51:28Z</time>
      </trkpt>
      <trkpt lat="40.412022" lon="-3.746396">
        <ele>624.793</ele>
        <time>2018-08-20T03:51:38Z</time>
      </trkpt>
      <trkpt lat="40.412430" lon="-3.746449">
        <ele>622.153</ele>
        <time>2018-08-20T03:51:48Z</time>
      </trkpt>
      <trkpt lat="40.412855" lon="-3.746406">
        <ele>620.883</ele>
        <time>2018-08-20T03:51:58Z</time>
      </trkpt>
      <trkpt lat="40.413598" lon="-3.746514">
        <ele>620.045</ele>
        <time>2018-08-20T03:52:08Z</time>
      </trkpt>
      <trkpt lat="40.414448" lon="-3.746879">
        <ele>619.812</ele>
        <time>2018-08-20T03:52:18Z</time>
      </trkpt>
      <trkpt lat="40.414636" lon="-3.746364">
        <ele>618.299</ele>
        <time>2018-08-20T03:52:28Z</time>
      </trkpt>
      <trkpt lat="40.414856" lon="-3.746106">
        <ele>616.511</ele>
        <time>2018-08-20T03:52:38Z</time>
      </trkpt>
      <trkpt lat="40.415036" lon="-3.745934">
        <ele>615.276</ele>
        <time>2018-08-20T03:52:48Z</time>
      </trkpt>
      <trkpt lat="40.415191" lon="-3.745688">
        <ele>613.490</ele>
        <time>2018-08-20T03:52:58Z</time>
      </trkpt>
      <trkpt lat="40.415289" lon="-3.745891">
        <ele>614.219</ele>
        <time>2018-08-20T03:53:08Z</time>
      </trkpt>
      <trkpt lat="40.415689" lon="-3.746009">
        <ele>614.308</ele>
        <time>2018-08-20T03:53:18Z</time>
      </trkpt>
      <trkpt lat="40.416171" lon="-3.746149">
        <ele>615.339</ele>
        <time>2018-08-20T03:53:28Z</time>
      </trkpt>
      <trkpt lat="40.416523" lon="-3.745956">
        <ele>613.754</ele>
        <time>2018-08-20T03:53:38Z</time>
      </trkpt>
      <trkpt lat="40.416882" lon="-3.745602">
        <ele>612.924</ele>
        <time>2018-08-20T03:53:48Z</time>
      </trkpt>
      <trkpt lat="40.417960" lon="-3.744359">
        <ele>611.144</ele>
        <time>2018-08-20T03:53:58Z</time>
      </trkpt>
      <trkpt lat="40.418156" lon="-3.743908">
        <ele>610.496</ele>
        <time>2018-08-20T03:54:08Z</time>
      </trkpt>
      <trkpt lat="40.418295" lon="-3.743243">
        <ele>609.613</ele>
        <time>2018-08-20T03:54:18Z</time>
      </trkpt>
      <trkpt lat="40.418721" lon="-3.740547">
        <ele>607.090</ele>
        <time>2018-08-20T03:54:28Z</time>
      </trkpt>
      <trkpt lat="40.418975" lon="-3.737736">
        <ele>604.092</ele>
        <time>2018-08-20T03:54:38Z</time>
      </trkpt>
      <trkpt lat="40.419171" lon="-3.735237">
        <ele>601.014</ele>
        <time>2018-08-20T03:54:48Z</time>
      </trkpt>
      <trkpt lat="40.419097" lon="-3.734571">
        <ele>600.154</ele>
        <time>2018-08-20T03:54:58Z</time>
      </trkpt>
      <trkpt lat="40.419685" lon="-3.734368">
        <ele>602.009</ele>
        <time>2018-08-20T03:55:08Z</time>
      </trkpt>
      <trkpt lat="40.419987" lon="-3.734153">
        <ele>603.808</ele>
        <time>2018-08-20T03:55:18Z</time>
      </trkpt>
      <trkpt lat="40.420298" lon="-3.734142">
        <ele>603.853</ele>
        <time>2018-08-20T03:55:28Z</time>
      </trkpt>
      <trkpt lat="40.420820" lon="-3.734174">
        <ele>606.828</ele>
        <time>2018-08-20T03:55:38Z</time>
      </trkpt>
      <trkpt lat="40.421801" lon="-3.734207">
        <ele>605.538</ele>
        <time>2018-08-20T03:55:48Z</time>
      </trkpt>
      <trkpt lat="40.422005" lon="-3.734346">
        <ele>605.898</ele>
        <time>2018-08-20T03:55:58Z</time>
      </trkpt>
      <trkpt lat="40.421964" lon="-3.734958">
        <ele>607.170</ele>
        <time>2018-08-20T03:56:08Z</time>
      </trkpt>
      <trkpt lat="40.422046" lon="-3.735591">
        <ele>608.827</ele>
        <time>2018-08-20T03:56:18Z</time>
      </trkpt>
      <trkpt lat="40.422136" lon="-3.736052">
        <ele>609.064</ele>
        <time>2018-08-20T03:56:28Z</time>
      </trkpt>
      <trkpt lat="40.422928" lon="-3.737500">
        <ele>610.596</ele>
        <time>2018-08-20T03:56:38Z</time>
      </trkpt>
      <trkpt lat="40.423230" lon="-3.738745">
        <ele>616.918</ele>
        <time>2018-08-20T03:56:48Z</time>
      </trkpt>
      <trkpt lat="40.423630" lon="-3.740741">
        <ele>620.598</ele>
        <time>2018-08-20T03:56:58Z</time>
      </trkpt>
      <trkpt lat="40.423271" lon="-3.742296">
        <ele>622.517</ele>
        <time>2018-08-20T03:57:08Z</time>
      </trkpt>
      <trkpt lat="40.422895" lon="-3.743627">
        <ele>628.308</ele>
        <time>2018-08-20T03:57:18Z</time>
      </trkpt>
      <trkpt lat="40.422993" lon="-3.744528">
        <ele>628.723</ele>
        <time>2018-08-20T03:57:28Z</time>
      </trkpt>
      <trkpt lat="40.423156" lon="-3.744968">
        <ele>630.668</ele>
        <time>2018-08-20T03:57:38Z</time>
      </trkpt>
      <trkpt lat="40.422887" lon="-3.746266">
        <ele>632.338</ele>
        <time>2018-08-20T03:57:48Z</time>
      </trkpt>
      <trkpt lat="40.422928" lon="-3.747639">
        <ele>635.928</ele>
        <time>2018-08-20T03:57:58Z</time>
      </trkpt>
      <trkpt lat="40.422895" lon="-3.748691">
        <ele>638.490</ele>
        <time>2018-08-20T03:58:08Z</time>
      </trkpt>
      <trkpt lat="40.422879" lon="-3.749860">
        <ele>642.587</ele>
        <time>2018-08-20T03:58:18Z</time>
      </trkpt>
      <trkpt lat="40.422470" lon="-3.750965">
        <ele>645.064</ele>
        <time>2018-08-20T03:58:28Z</time>
      </trkpt>
      <trkpt lat="40.422528" lon="-3.751447">
        <ele>646.446</ele>
        <time>2018-08-20T03:58:38Z</time>
      </trkpt>
      <trkpt lat="40.422397" lon="-3.752133">
        <ele>648.256</ele>
        <time>2018-08-20T03:58:48Z</time>
      </trkpt>
      <trkpt lat="40.422414" lon="-3.752970">
        <ele>649.859</ele>
        <time>2018-08-20T03:58:58Z</time>
      </trkpt>
      <trkpt lat="40.422512" lon="-3.753507">
        <ele>651.714</ele>
        <time>2018-08-20T03:59:08Z</time>
      </trkpt>
      <trkpt lat="40.422561" lon="-3.753753">
        <ele>653.008</ele>
        <time>2018-08-20T03:59:18Z</time>
      </trkpt>
      <trkpt lat="40.422582" lon="-3.754254">
        <ele>649.368</ele>
        <time>2018-08-19T20:10:58Z</time>
      </trkpt>
      <trkpt lat="40.422656" lon="-3.754264">
        <ele>649.342</ele>
        <time>2018-08-19T20:11:51Z</time>
      </trkpt>
      <trkpt lat="40.422644" lon="-3.754326">
        <ele>649.326</ele>
        <time>2018-08-19T20:11:58Z</time>
      </trkpt>
      <trkpt lat="40.422658" lon="-3.754398">
        <ele>649.308</ele>
        <time>2018-08-19T20:12:02Z</time>
      </trkpt>
      <trkpt lat="40.422675" lon="-3.754466">
        <ele>649.358</ele>
        <time>2018-08-19T20:12:05Z</time>
      </trkpt>
      <trkpt lat="40.422693" lon="-3.754546">
        <ele>649.363</ele>
        <time>2018-08-19T20:12:08Z</time>
      </trkpt>
      <trkpt lat="40.422705" lon="-3.754604">
        <ele>649.363</ele>
        <time>2018-08-19T20:12:10Z</time>
      </trkpt>
      <trkpt lat="40.422712" lon="-3.754666">
        <ele>649.333</ele>
        <time>2018-08-19T20:12:12Z</time>
      </trkpt>
      <trkpt lat="40.422715" lon="-3.754728">
        <ele>649.359</ele>
        <time>2018-08-19T20:12:14Z</time>
      </trkpt>
      <trkpt lat="40.422717" lon="-3.754811">
        <ele>649.392</ele>
        <time>2018-08-19T20:12:17Z</time>
      </trkpt>
      <trkpt lat="40.422718" lon="-3.754886">
        <ele>649.391</ele>
        <time>2018-08-19T20:12:20Z</time>
      </trkpt>
      <trkpt lat="40.422721" lon="-3.754962">
        <ele>649.355</ele>
        <time>2018-08-19T20:12:23Z</time>
      </trkpt>
      <trkpt lat="40.422722" lon="-3.755038">
        <ele>649.341</ele>
        <time>2018-08-19T20:12:26Z</time>
      </trkpt>
      <trkpt lat="40.422725" lon="-3.755113">
        <ele>649.381</ele>
        <time>2018-08-19T20:12:29Z</time>
      </trkpt>
      <trkpt lat="40.422730" lon="-3.755192">
        <ele>649.309</ele>
        <time>2018-08-19T20:12:32Z</time>
      </trkpt>
      <trkpt lat="40.422740" lon="-3.755267">
        <ele>649.708</ele>
        <time>2018-08-19T20:12:35Z</time>
      </trkpt>
      <trkpt lat="40.422763" lon="-3.755332">
        <ele>650.136</ele>
        <time>2018-08-19T20:12:38Z</time>
      </trkpt>
      <trkpt lat="40.422784" lon="-3.755394">
        <ele>650.041</ele>
        <time>2018-08-19T20:12:41Z</time>
      </trkpt>
      <trkpt lat="40.422794" lon="-3.755452">
        <ele>650.021</ele>
        <time>2018-08-19T20:12:44Z</time>
      </trkpt>
      <trkpt lat="40.422780" lon="-3.755508">
        <ele>650.471</ele>
        <time>2018-08-19T20:12:47Z</time>
      </trkpt>
      <trkpt lat="40.422746" lon="-3.755561">
        <ele>650.447</ele>
        <time>2018-08-19T20:12:51Z</time>
      </trkpt>
      <trkpt lat="40.422720" lon="-3.755619">
        <ele>650.030</ele>
        <time>2018-08-19T20:13:00Z</time>
      </trkpt>
      <trkpt lat="40.422711" lon="-3.755678">
        <ele>649.429</ele>
        <time>2018-08-19T20:13:07Z</time>
      </trkpt>
      <trkpt lat="40.422672" lon="-3.755707">
        <ele>648.773</ele>
        <time>2018-08-19T20:14:20Z</time>
      </trkpt>
      <trkpt lat="40.422636" lon="-3.755672">
        <ele>648.729</ele>
        <time>2018-08-19T20:16:21Z</time>
      </trkpt>
      <trkpt lat="40.422604" lon="-3.755623">
        <ele>649.400</ele>
        <time>2018-08-19T20:18:23Z</time>
      </trkpt>
      <trkpt lat="40.422620" lon="-3.755558">
        <ele>650.220</ele>
        <time>2018-08-19T20:18:27Z</time>
      </trkpt>
      <trkpt lat="40.422676" lon="-3.755565">
        <ele>650.608</ele>
        <time>2018-08-19T20:18:38Z</time>
      </trkpt>
      <trkpt lat="40.422711" lon="-3.755621">
        <ele>650.634</ele>
        <time>2018-08-19T20:18:41Z</time>
      </trkpt>
      <trkpt lat="40.422738" lon="-3.755684">
        <ele>650.589</ele>
        <time>2018-08-19T20:18:44Z</time>
      </trkpt>
      <trkpt lat="40.422760" lon="-3.755747">
        <ele>650.649</ele>
        <time>2018-08-19T20:18:47Z</time>
      </trkpt>
      <trkpt lat="40.422777" lon="-3.755823">
        <ele>650.869</ele>
        <time>2018-08-19T20:18:50Z</time>
      </trkpt>
      <trkpt lat="40.422790" lon="-3.755909">
        <ele>650.885</ele>
        <time>2018-08-19T20:18:53Z</time>
      </trkpt>
      <trkpt lat="40.422797" lon="-3.755969">
        <ele>650.768</ele>
        <time>2018-08-19T20:18:55Z</time>
      </trkpt>
      <trkpt lat="40.422803" lon="-3.756029">
        <ele>650.787</ele>
        <time>2018-08-19T20:18:57Z</time>
      </trkpt>
      <trkpt lat="40.422809" lon="-3.756088">
        <ele>650.841</ele>
        <time>2018-08-19T20:19:00Z</time>
      </trkpt>
      <trkpt lat="40.422817" lon="-3.756173">
        <ele>650.974</ele>
        <time>2018-08-19T20:19:03Z</time>
      </trkpt>
      <trkpt lat="40.422821" lon="-3.756233">
        <ele>650.856</ele>
        <time>2018-08-19T20:19:05Z</time>
      </trkpt>
      <trkpt lat="40.422826" lon="-3.756295">
        <ele>650.721</ele>
        <time>2018-08-19T20:19:07Z</time>
      </trkpt>
      <trkpt lat="40.422831" lon="-3.756359">
        <ele>650.608</ele>
        <time>2018-08-19T20:19:09Z</time>
      </trkpt>
      <trkpt lat="40.422836" lon="-3.756422">
        <ele>650.829</ele>
        <time>2018-08-19T20:19:11Z</time>
      </trkpt>
      <trkpt lat="40.422839" lon="-3.756487">
        <ele>651.034</ele>
        <time>2018-08-19T20:19:13Z</time>
      </trkpt>
      <trkpt lat="40.422842" lon="-3.756550">
        <ele>650.824</ele>
        <time>2018-08-19T20:19:15Z</time>
      </trkpt>
      <trkpt lat="40.422849" lon="-3.756613">
        <ele>650.934</ele>
        <time>2018-08-19T20:19:17Z</time>
      </trkpt>
      <trkpt lat="40.422859" lon="-3.756677">
        <ele>650.820</ele>
        <time>2018-08-19T20:19:19Z</time>
      </trkpt>
      <trkpt lat="40.422870" lon="-3.756742">
        <ele>650.463</ele>
        <time>2018-08-19T20:19:21Z</time>
      </trkpt>
      <trkpt lat="40.422882" lon="-3.756811">
        <ele>650.422</ele>
        <time>2018-08-19T20:19:23Z</time>
      </trkpt>
      <trkpt lat="40.422893" lon="-3.756882">
        <ele>650.626</ele>
        <time>2018-08-19T20:19:25Z</time>
      </trkpt>
      <trkpt lat="40.422905" lon="-3.756957">
        <ele>650.548</ele>
        <time>2018-08-19T20:19:27Z</time>
      </trkpt>
      <trkpt lat="40.422919" lon="-3.757033">
        <ele>650.561</ele>
        <time>2018-08-19T20:19:29Z</time>
      </trkpt>
      <trkpt lat="40.422936" lon="-3.757111">
        <ele>650.417</ele>
        <time>2018-08-19T20:19:31Z</time>
      </trkpt>
      <trkpt lat="40.422957" lon="-3.757193">
        <ele>650.308</ele>
        <time>2018-08-19T20:19:33Z</time>
      </trkpt>
      <trkpt lat="40.422979" lon="-3.757285">
        <ele>650.156</ele>
        <time>2018-08-19T20:19:35Z</time>
      </trkpt>
      <trkpt lat="40.422995" lon="-3.757375">
        <ele>650.331</ele>
        <time>2018-08-19T20:19:37Z</time>
      </trkpt>
      <trkpt lat="40.423012" lon="-3.757468">
        <ele>650.231</ele>
        <time>2018-08-19T20:19:39Z</time>
      </trkpt>
      <trkpt lat="40.423031" lon="-3.757563">
        <ele>650.231</ele>
        <time>2018-08-19T20:19:41Z</time>
      </trkpt>
      <trkpt lat="40.423054" lon="-3.757660">
        <ele>650.367</ele>
        <time>2018-08-19T20:19:43Z</time>
      </trkpt>
      <trkpt lat="40.423078" lon="-3.757758">
        <ele>650.350</ele>
        <time>2018-08-19T20:19:45Z</time>
      </trkpt>
      <trkpt lat="40.423103" lon="-3.757856">
        <ele>650.399</ele>
        <time>2018-08-19T20:19:47Z</time>
      </trkpt>
      <trkpt lat="40.423130" lon="-3.757955">
        <ele>650.333</ele>
        <time>2018-08-19T20:19:49Z</time>
      </trkpt>
      <trkpt lat="40.423155" lon="-3.758041">
        <ele>650.615</ele>
        <time>2018-08-19T20:19:51Z</time>
      </trkpt>
      <trkpt lat="40.423181" lon="-3.758121">
        <ele>650.565</ele>
        <time>2018-08-19T20:19:53Z</time>
      </trkpt>
      <trkpt lat="40.423208" lon="-3.758201">
        <ele>650.411</ele>
        <time>2018-08-19T20:19:55Z</time>
      </trkpt>
      <trkpt lat="40.423235" lon="-3.758275">
        <ele>650.508</ele>
        <time>2018-08-19T20:19:57Z</time>
      </trkpt>
      <trkpt lat="40.423255" lon="-3.758335">
        <ele>650.283</ele>
        <time>2018-08-19T20:19:59Z</time>
      </trkpt>
      <trkpt lat="40.423274" lon="-3.758408">
        <ele>650.328</ele>
        <time>2018-08-19T20:20:02Z</time>
      </trkpt>
      <trkpt lat="40.423291" lon="-3.758465">
        <ele>650.278</ele>
        <time>2018-08-19T20:20:05Z</time>
      </trkpt>
      <trkpt lat="40.423317" lon="-3.758515">
        <ele>650.278</ele>
        <time>2018-08-19T20:20:13Z</time>
      </trkpt>
      <trkpt lat="40.423371" lon="-3.758522">
        <ele>650.184</ele>
        <time>2018-08-19T20:21:15Z</time>
      </trkpt>
      <trkpt lat="40.423436" lon="-3.758520">
        <ele>649.767</ele>
        <time>2018-08-19T20:21:18Z</time>
      </trkpt>
      <trkpt lat="40.423494" lon="-3.758515">
        <ele>649.536</ele>
        <time>2018-08-19T20:21:20Z</time>
      </trkpt>
      <trkpt lat="40.423564" lon="-3.758510">
        <ele>649.310</ele>
        <time>2018-08-19T20:21:22Z</time>
      </trkpt>
      <trkpt lat="40.423676" lon="-3.758503">
        <ele>649.175</ele>
        <time>2018-08-19T20:21:23Z</time>
      </trkpt>
      <trkpt lat="40.423760" lon="-3.758497">
        <ele>648.928</ele>
        <time>2018-08-19T20:21:25Z</time>
      </trkpt>
      <trkpt lat="40.423847" lon="-3.758491">
        <ele>648.520</ele>
        <time>2018-08-19T20:21:27Z</time>
      </trkpt>
      <trkpt lat="40.423935" lon="-3.758491">
        <ele>648.008</ele>
        <time>2018-08-19T20:21:29Z</time>
      </trkpt>
      <trkpt lat="40.424019" lon="-3.758481">
        <ele>647.839</ele>
        <time>2018-08-19T20:21:31Z</time>
      </trkpt>
      <trkpt lat="40.424105" lon="-3.758468">
        <ele>647.494</ele>
        <time>2018-08-19T20:21:33Z</time>
      </trkpt>
      <trkpt lat="40.424150" lon="-3.758464">
        <ele>647.354</ele>
        <time>2018-08-19T20:21:34Z</time>
      </trkpt>
      <trkpt lat="40.424239" lon="-3.758455">
        <ele>647.064</ele>
        <time>2018-08-19T20:21:36Z</time>
      </trkpt>
      <trkpt lat="40.424323" lon="-3.758440">
        <ele>646.780</ele>
        <time>2018-08-19T20:21:38Z</time>
      </trkpt>
      <trkpt lat="40.424370" lon="-3.758428">
        <ele>646.513</ele>
        <time>2018-08-19T20:21:39Z</time>
      </trkpt>
      <trkpt lat="40.424417" lon="-3.758417">
        <ele>646.292</ele>
        <time>2018-08-19T20:21:40Z</time>
      </trkpt>
      <trkpt lat="40.424466" lon="-3.758407">
        <ele>646.146</ele>
        <time>2018-08-19T20:21:41Z</time>
      </trkpt>
      <trkpt lat="40.424517" lon="-3.758395">
        <ele>645.971</ele>
        <time>2018-08-19T20:21:42Z</time>
      </trkpt>
      <trkpt lat="40.424569" lon="-3.758378">
        <ele>645.741</ele>
        <time>2018-08-19T20:21:43Z</time>
      </trkpt>
      <trkpt lat="40.424619" lon="-3.758357">
        <ele>645.315</ele>
        <time>2018-08-19T20:21:44Z</time>
      </trkpt>
      <trkpt lat="40.424673" lon="-3.758333">
        <ele>645.008</ele>
        <time>2018-08-19T20:21:45Z</time>
      </trkpt>
      <trkpt lat="40.424727" lon="-3.758306">
        <ele>644.969</ele>
        <time>2018-08-19T20:21:46Z</time>
      </trkpt>
      <trkpt lat="40.424778" lon="-3.758277">
        <ele>644.644</ele>
        <time>2018-08-19T20:21:47Z</time>
      </trkpt>
      <trkpt lat="40.424834" lon="-3.758245">
        <ele>644.544</ele>
        <time>2018-08-19T20:21:48Z</time>
      </trkpt>
      <trkpt lat="40.424892" lon="-3.758220">
        <ele>644.444</ele>
        <time>2018-08-19T20:21:49Z</time>
      </trkpt>
      <trkpt lat="40.424951" lon="-3.758193">
        <ele>644.150</ele>
        <time>2018-08-19T20:21:50Z</time>
      </trkpt>
      <trkpt lat="40.425007" lon="-3.758166">
        <ele>643.873</ele>
        <time>2018-08-19T20:21:51Z</time>
      </trkpt>
      <trkpt lat="40.425064" lon="-3.758139">
        <ele>643.682</ele>
        <time>2018-08-19T20:21:52Z</time>
      </trkpt>
      <trkpt lat="40.425112" lon="-3.758117">
        <ele>643.556</ele>
        <time>2018-08-19T20:21:53Z</time>
      </trkpt>
      <trkpt lat="40.425161" lon="-3.758097">
        <ele>643.434</ele>
        <time>2018-08-19T20:21:54Z</time>
      </trkpt>
      <trkpt lat="40.425209" lon="-3.758087">
        <ele>643.355</ele>
        <time>2018-08-19T20:21:55Z</time>
      </trkpt>
      <trkpt lat="40.425299" lon="-3.758071">
        <ele>642.710</ele>
        <time>2018-08-19T20:21:57Z</time>
      </trkpt>
      <trkpt lat="40.425387" lon="-3.758057">
        <ele>642.408</ele>
        <time>2018-08-19T20:21:59Z</time>
      </trkpt>
      <trkpt lat="40.425468" lon="-3.758050">
        <ele>642.375</ele>
        <time>2018-08-19T20:22:01Z</time>
      </trkpt>
      <trkpt lat="40.425550" lon="-3.758037">
        <ele>642.420</ele>
        <time>2018-08-19T20:22:03Z</time>
      </trkpt>
      <trkpt lat="40.425636" lon="-3.758019">
        <ele>642.180</ele>
        <time>2018-08-19T20:22:05Z</time>
      </trkpt>
      <trkpt lat="40.425683" lon="-3.758015">
        <ele>642.130</ele>
        <time>2018-08-19T20:22:06Z</time>
      </trkpt>
      <trkpt lat="40.425767" lon="-3.757999">
        <ele>641.176</ele>
        <time>2018-08-19T20:22:08Z</time>
      </trkpt>
      <trkpt lat="40.425849" lon="-3.757983">
        <ele>641.399</ele>
        <time>2018-08-19T20:22:10Z</time>
      </trkpt>
      <trkpt lat="40.425895" lon="-3.757979">
        <ele>641.028</ele>
        <time>2018-08-19T20:22:11Z</time>
      </trkpt>
      <trkpt lat="40.425981" lon="-3.757975">
        <ele>640.682</ele>
        <time>2018-08-19T20:22:13Z</time>
      </trkpt>
      <trkpt lat="40.426068" lon="-3.757962">
        <ele>640.242</ele>
        <time>2018-08-19T20:22:15Z</time>
      </trkpt>
      <trkpt lat="40.426118" lon="-3.757958">
        <ele>640.022</ele>
        <time>2018-08-19T20:22:16Z</time>
      </trkpt>
      <trkpt lat="40.426200" lon="-3.757942">
        <ele>639.514</ele>
        <time>2018-08-19T20:22:18Z</time>
      </trkpt>
      <trkpt lat="40.426246" lon="-3.757931">
        <ele>639.408</ele>
        <time>2018-08-19T20:22:19Z</time>
      </trkpt>
      <trkpt lat="40.426303" lon="-3.757923">
        <ele>639.266</ele>
        <time>2018-08-19T20:22:20Z</time>
      </trkpt>
      <trkpt lat="40.426348" lon="-3.757909">
        <ele>638.891</ele>
        <time>2018-08-19T20:22:21Z</time>
      </trkpt>
      <trkpt lat="40.426398" lon="-3.757894">
        <ele>638.611</ele>
        <time>2018-08-19T20:22:22Z</time>
      </trkpt>
      <trkpt lat="40.426443" lon="-3.757871">
        <ele>638.121</ele>
        <time>2018-08-19T20:22:23Z</time>
      </trkpt>
      <trkpt lat="40.426494" lon="-3.757857">
        <ele>637.647</ele>
        <time>2018-08-19T20:22:24Z</time>
      </trkpt>
      <trkpt lat="40.426543" lon="-3.757836">
        <ele>637.370</ele>
        <time>2018-08-19T20:22:25Z</time>
      </trkpt>
      <trkpt lat="40.426590" lon="-3.757815">
        <ele>637.169</ele>
        <time>2018-08-19T20:22:26Z</time>
      </trkpt>
      <trkpt lat="40.426634" lon="-3.757797">
        <ele>636.823</ele>
        <time>2018-08-19T20:22:27Z</time>
      </trkpt>
      <trkpt lat="40.426678" lon="-3.757773">
        <ele>636.519</ele>
        <time>2018-08-19T20:22:28Z</time>
      </trkpt>
      <trkpt lat="40.426729" lon="-3.757752">
        <ele>636.209</ele>
        <time>2018-08-19T20:22:29Z</time>
      </trkpt>
      <trkpt lat="40.426778" lon="-3.757731">
        <ele>635.719</ele>
        <time>2018-08-19T20:22:30Z</time>
      </trkpt>
      <trkpt lat="40.426828" lon="-3.757710">
        <ele>635.308</ele>
        <time>2018-08-19T20:22:31Z</time>
      </trkpt>
      <trkpt lat="40.426881" lon="-3.757691">
        <ele>635.393</ele>
        <time>2018-08-19T20:22:32Z</time>
      </trkpt>
      <trkpt lat="40.426936" lon="-3.757669">
        <ele>634.748</ele>
        <time>2018-08-19T20:22:33Z</time>
      </trkpt>
      <trkpt lat="40.426989" lon="-3.757642">
        <ele>634.298</ele>
        <time>2018-08-19T20:22:34Z</time>
      </trkpt>
      <trkpt lat="40.427041" lon="-3.757619">
        <ele>634.038</ele>
        <time>2018-08-19T20:22:35Z</time>
      </trkpt>
      <trkpt lat="40.427096" lon="-3.757591">
        <ele>633.894</ele>
        <time>2018-08-19T20:22:36Z</time>
      </trkpt>
      <trkpt lat="40.427152" lon="-3.757565">
        <ele>633.617</ele>
        <time>2018-08-19T20:22:37Z</time>
      </trkpt>
      <trkpt lat="40.427207" lon="-3.757539">
        <ele>633.396</ele>
        <time>2018-08-19T20:22:38Z</time>
      </trkpt>
      <trkpt lat="40.427316" lon="-3.757535">
        <ele>633.250</ele>
        <time>2018-08-19T20:22:39Z</time>
      </trkpt>
      <trkpt lat="40.427390" lon="-3.757521">
        <ele>633.165</ele>
        <time>2018-08-19T20:22:40Z</time>
      </trkpt>
      <trkpt lat="40.427444" lon="-3.757494">
        <ele>633.068</ele>
        <time>2018-08-19T20:22:41Z</time>
      </trkpt>
      <trkpt lat="40.427495" lon="-3.757465">
        <ele>633.014</ele>
        <time>2018-08-19T20:22:42Z</time>
      </trkpt>
      <trkpt lat="40.427544" lon="-3.757438">
        <ele>633.108</ele>
        <time>2018-08-19T20:22:43Z</time>
      </trkpt>
      <trkpt lat="40.427592" lon="-3.757415">
        <ele>633.158</ele>
        <time>2018-08-19T20:22:44Z</time>
      </trkpt>
      <trkpt lat="40.427636" lon="-3.757394">
        <ele>633.333</ele>
        <time>2018-08-19T20:22:45Z</time>
      </trkpt>
      <trkpt lat="40.427711" lon="-3.757368">
        <ele>633.253</ele>
        <time>2018-08-19T20:22:47Z</time>
      </trkpt>
      <trkpt lat="40.427776" lon="-3.757352">
        <ele>633.423</ele>
        <time>2018-08-19T20:22:49Z</time>
      </trkpt>
      <trkpt lat="40.427846" lon="-3.757345">
        <ele>633.949</ele>
        <time>2018-08-19T20:22:51Z</time>
      </trkpt>
      <trkpt lat="40.427930" lon="-3.757349">
        <ele>634.592</ele>
        <time>2018-08-19T20:22:53Z</time>
      </trkpt>
      <trkpt lat="40.428013" lon="-3.757375">
        <ele>635.181</ele>
        <time>2018-08-19T20:22:55Z</time>
      </trkpt>
      <trkpt lat="40.428085" lon="-3.757403">
        <ele>635.475</ele>
        <time>2018-08-19T20:22:57Z</time>
      </trkpt>
      <trkpt lat="40.428154" lon="-3.757430">
        <ele>636.231</ele>
        <time>2018-08-19T20:22:59Z</time>
      </trkpt>
      <trkpt lat="40.428210" lon="-3.757459">
        <ele>636.761</ele>
        <time>2018-08-19T20:23:01Z</time>
      </trkpt>
      <trkpt lat="40.428264" lon="-3.757506">
        <ele>637.507</ele>
        <time>2018-08-19T20:23:03Z</time>
      </trkpt>
      <trkpt lat="40.428306" lon="-3.757536">
        <ele>638.008</ele>
        <time>2018-08-19T20:23:05Z</time>
      </trkpt>
      <trkpt lat="40.428359" lon="-3.757570">
        <ele>638.615</ele>
        <time>2018-08-19T20:23:08Z</time>
      </trkpt>
      <trkpt lat="40.428419" lon="-3.757612">
        <ele>639.260</ele>
        <time>2018-08-19T20:23:11Z</time>
      </trkpt>
      <trkpt lat="40.428466" lon="-3.757651">
        <ele>639.650</ele>
        <time>2018-08-19T20:23:13Z</time>
      </trkpt>
      <trkpt lat="40.428511" lon="-3.757684">
        <ele>640.360</ele>
        <time>2018-08-19T20:23:15Z</time>
      </trkpt>
      <trkpt lat="40.428560" lon="-3.757717">
        <ele>640.756</ele>
        <time>2018-08-19T20:23:17Z</time>
      </trkpt>
      <trkpt lat="40.428605" lon="-3.757747">
        <ele>641.139</ele>
        <time>2018-08-19T20:23:19Z</time>
      </trkpt>
      <trkpt lat="40.428649" lon="-3.757776">
        <ele>641.428</ele>
        <time>2018-08-19T20:23:21Z</time>
      </trkpt>
      <trkpt lat="40.428694" lon="-3.757804">
        <ele>641.612</ele>
        <time>2018-08-19T20:23:23Z</time>
      </trkpt>
      <trkpt lat="40.428738" lon="-3.757834">
        <ele>642.168</ele>
        <time>2018-08-19T20:23:25Z</time>
      </trkpt>
      <trkpt lat="40.428778" lon="-3.757863">
        <ele>642.442</ele>
        <time>2018-08-19T20:23:27Z</time>
      </trkpt>
      <trkpt lat="40.428829" lon="-3.757904">
        <ele>642.826</ele>
        <time>2018-08-19T20:23:30Z</time>
      </trkpt>
      <trkpt lat="40.428875" lon="-3.757938">
        <ele>643.408</ele>
        <time>2018-08-19T20:23:33Z</time>
      </trkpt>
      <trkpt lat="40.428926" lon="-3.757970">
        <ele>644.088</ele>
        <time>2018-08-19T20:23:36Z</time>
      </trkpt>
      <trkpt lat="40.428971" lon="-3.757999">
        <ele>644.293</ele>
        <time>2018-08-19T20:23:39Z</time>
      </trkpt>
      <trkpt lat="40.429014" lon="-3.758024">
        <ele>644.473</ele>
        <time>2018-08-19T20:23:55Z</time>
      </trkpt>
      <trkpt lat="40.429057" lon="-3.758050">
        <ele>644.973</ele>
        <time>2018-08-19T20:24:00Z</time>
      </trkpt>
      <trkpt lat="40.429102" lon="-3.758075">
        <ele>645.299</ele>
        <time>2018-08-19T20:24:04Z</time>
      </trkpt>
      <trkpt lat="40.429146" lon="-3.758100">
        <ele>645.242</ele>
        <time>2018-08-19T20:24:08Z</time>
      </trkpt>
      <trkpt lat="40.429189" lon="-3.758137">
        <ele>645.441</ele>
        <time>2018-08-19T20:24:14Z</time>
      </trkpt>
      <trkpt lat="40.429236" lon="-3.758160">
        <ele>645.585</ele>
        <time>2018-08-19T20:25:12Z</time>
      </trkpt>
      <trkpt lat="40.429281" lon="-3.758181">
        <ele>645.811</ele>
        <time>2018-08-19T20:25:16Z</time>
      </trkpt>
      <trkpt lat="40.429335" lon="-3.758208">
        <ele>645.921</ele>
        <time>2018-08-19T20:25:19Z</time>
      </trkpt>
      <trkpt lat="40.429398" lon="-3.758237">
        <ele>646.703</ele>
        <time>2018-08-19T20:25:22Z</time>
      </trkpt>
      <trkpt lat="40.429441" lon="-3.758255">
        <ele>647.008</ele>
        <time>2018-08-19T20:25:24Z</time>
      </trkpt>
      <trkpt lat="40.429502" lon="-3.758275">
        <ele>647.443</ele>
        <time>2018-08-19T20:25:27Z</time>
      </trkpt>
      <trkpt lat="40.429554" lon="-3.758285">
        <ele>647.818</ele>
        <time>2018-08-19T20:25:30Z</time>
      </trkpt>
      <trkpt lat="40.429608" lon="-3.758295">
        <ele>647.828</ele>
        <time>2018-08-19T20:25:33Z</time>
      </trkpt>
      <trkpt lat="40.429668" lon="-3.758312">
        <ele>648.278</ele>
        <time>2018-08-19T20:25:36Z</time>
      </trkpt>
      <trkpt lat="40.429734" lon="-3.758327">
        <ele>648.244</ele>
        <time>2018-08-19T20:25:39Z</time>
      </trkpt>
      <trkpt lat="40.429796" lon="-3.758334">
        <ele>648.657</ele>
        <time>2018-08-19T20:25:42Z</time>
      </trkpt>
      <trkpt lat="40.429851" lon="-3.758348">
        <ele>649.026</ele>
        <time>2018-08-19T20:25:45Z</time>
      </trkpt>
      <trkpt lat="40.429905" lon="-3.758362">
        <ele>649.530</ele>
        <time>2018-08-19T20:25:48Z</time>
      </trkpt>
      <trkpt lat="40.429957" lon="-3.758377">
        <ele>649.967</ele>
        <time>2018-08-19T20:25:51Z</time>
      </trkpt>
      <trkpt lat="40.430008" lon="-3.758392">
        <ele>650.481</ele>
        <time>2018-08-19T20:25:54Z</time>
      </trkpt>
      <trkpt lat="40.430059" lon="-3.758410">
        <ele>650.719</ele>
        <time>2018-08-19T20:25:57Z</time>
      </trkpt>
      <trkpt lat="40.430112" lon="-3.758433">
        <ele>651.208</ele>
        <time>2018-08-19T20:26:00Z</time>
      </trkpt>
      <trkpt lat="40.430168" lon="-3.758459">
        <ele>651.418</ele>
        <time>2018-08-19T20:26:03Z</time>
      </trkpt>
      <trkpt lat="40.430226" lon="-3.758486">
        <ele>651.663</ele>
        <time>2018-08-19T20:26:06Z</time>
      </trkpt>
      <trkpt lat="40.430279" lon="-3.758515">
        <ele>651.573</ele>
        <time>2018-08-19T20:26:09Z</time>
      </trkpt>
      <trkpt lat="40.430330" lon="-3.758546">
        <ele>651.953</ele>
        <time>2018-08-19T20:26:12Z</time>
      </trkpt>
      <trkpt lat="40.430383" lon="-3.758576">
        <ele>652.259</ele>
        <time>2018-08-19T20:26:15Z</time>
      </trkpt>
      <trkpt lat="40.430431" lon="-3.758607">
        <ele>652.482</ele>
        <time>2018-08-19T20:26:18Z</time>
      </trkpt>
      <trkpt lat="40.430472" lon="-3.758642">
        <ele>652.291</ele>
        <time>2018-08-19T20:26:21Z</time>
      </trkpt>
      <trkpt lat="40.430511" lon="-3.758685">
        <ele>652.665</ele>
        <time>2018-08-19T20:26:24Z</time>
      </trkpt>
      <trkpt lat="40.430554" lon="-3.758739">
        <ele>652.677</ele>
        <time>2018-08-19T20:26:27Z</time>
      </trkpt>
      <trkpt lat="40.430597" lon="-3.758796">
        <ele>652.961</ele>
        <time>2018-08-19T20:26:30Z</time>
      </trkpt>
      <trkpt lat="40.430639" lon="-3.758859">
        <ele>652.627</ele>
        <time>2018-08-19T20:26:33Z</time>
      </trkpt>
      <trkpt lat="40.430681" lon="-3.758921">
        <ele>652.908</ele>
        <time>2018-08-19T20:26:36Z</time>
      </trkpt>
      <trkpt lat="40.430718" lon="-3.758973">
        <ele>652.819</ele>
        <time>2018-08-19T20:26:39Z</time>
      </trkpt>
      <trkpt lat="40.430758" lon="-3.759036">
        <ele>652.764</ele>
        <time>2018-08-19T20:26:42Z</time>
      </trkpt>
      <trkpt lat="40.430797" lon="-3.759093">
        <ele>652.914</ele>
        <time>2018-08-19T20:26:45Z</time>
      </trkpt>
      <trkpt lat="40.430840" lon="-3.759150">
        <ele>653.164</ele>
        <time>2018-08-19T20:26:48Z</time>
      </trkpt>
      <trkpt lat="40.430884" lon="-3.759215">
        <ele>653.150</ele>
        <time>2018-08-19T20:26:51Z</time>
      </trkpt>
      <trkpt lat="40.430923" lon="-3.759279">
        <ele>653.553</ele>
        <time>2018-08-19T20:26:54Z</time>
      </trkpt>
      <trkpt lat="40.430953" lon="-3.759329">
        <ele>654.072</ele>
        <time>2018-08-19T20:26:56Z</time>
      </trkpt>
      <trkpt lat="40.430984" lon="-3.759380">
        <ele>654.116</ele>
        <time>2018-08-19T20:26:58Z</time>
      </trkpt>
      <trkpt lat="40.431014" lon="-3.759430">
        <ele>653.868</ele>
        <time>2018-08-19T20:27:00Z</time>
      </trkpt>
      <trkpt lat="40.431043" lon="-3.759481">
        <ele>654.442</ele>
        <time>2018-08-19T20:27:02Z</time>
      </trkpt>
      <trkpt lat="40.431070" lon="-3.759530">
        <ele>654.526</ele>
        <time>2018-08-19T20:27:04Z</time>
      </trkpt>
      <trkpt lat="40.431112" lon="-3.759596">
        <ele>654.408</ele>
        <time>2018-08-19T20:27:07Z</time>
      </trkpt>
      <trkpt lat="40.431160" lon="-3.759661">
        <ele>654.418</ele>
        <time>2018-08-19T20:27:10Z</time>
      </trkpt>
      <trkpt lat="40.431193" lon="-3.759706">
        <ele>654.333</ele>
        <time>2018-08-19T20:27:12Z</time>
      </trkpt>
      <trkpt lat="40.431226" lon="-3.759754">
        <ele>654.313</ele>
        <time>2018-08-19T20:27:14Z</time>
      </trkpt>
      <trkpt lat="40.431261" lon="-3.759801">
        <ele>654.423</ele>
        <time>2018-08-19T20:27:16Z</time>
      </trkpt>
      <trkpt lat="40.431295" lon="-3.759849">
        <ele>654.639</ele>
        <time>2018-08-19T20:27:18Z</time>
      </trkpt>
      <trkpt lat="40.431327" lon="-3.759899">
        <ele>654.742</ele>
        <time>2018-08-19T20:27:20Z</time>
      </trkpt>
      <trkpt lat="40.431360" lon="-3.759947">
        <ele>654.731</ele>
        <time>2018-08-19T20:27:22Z</time>
      </trkpt>
      <trkpt lat="40.431395" lon="-3.759996">
        <ele>654.755</ele>
        <time>2018-08-19T20:27:24Z</time>
      </trkpt>
      <trkpt lat="40.431433" lon="-3.760049">
        <ele>654.662</ele>
        <time>2018-08-19T20:27:26Z</time>
      </trkpt>
      <trkpt lat="40.431471" lon="-3.760101">
        <ele>655.083</ele>
        <time>2018-08-19T20:27:28Z</time>
      </trkpt>
      <trkpt lat="40.431509" lon="-3.760150">
        <ele>654.811</ele>
        <time>2018-08-19T20:27:30Z</time>
      </trkpt>
      <trkpt lat="40.431548" lon="-3.760196">
        <ele>654.908</ele>
        <time>2018-08-19T20:27:32Z</time>
      </trkpt>
      <trkpt lat="40.431590" lon="-3.760241">
        <ele>655.188</ele>
        <time>2018-08-19T20:27:34Z</time>
      </trkpt>
      <trkpt lat="40.431635" lon="-3.760278">
        <ele>655.123</ele>
        <time>2018-08-19T20:27:36Z</time>
      </trkpt>
      <trkpt lat="40.431686" lon="-3.760308">
        <ele>655.223</ele>
        <time>2018-08-19T20:27:38Z</time>
      </trkpt>
      <trkpt lat="40.431738" lon="-3.760331">
        <ele>655.173</ele>
        <time>2018-08-19T20:27:40Z</time>
      </trkpt>
      <trkpt lat="40.431789" lon="-3.760346">
        <ele>655.269</ele>
        <time>2018-08-19T20:27:42Z</time>
      </trkpt>
      <trkpt lat="40.431839" lon="-3.760352">
        <ele>655.242</ele>
        <time>2018-08-19T20:27:44Z</time>
      </trkpt>
      <trkpt lat="40.431890" lon="-3.760347">
        <ele>655.221</ele>
        <time>2018-08-19T20:27:46Z</time>
      </trkpt>
      <trkpt lat="40.431940" lon="-3.760339">
        <ele>655.245</ele>
        <time>2018-08-19T20:27:48Z</time>
      </trkpt>
      <trkpt lat="40.431993" lon="-3.760328">
        <ele>655.189</ele>
        <time>2018-08-19T20:27:50Z</time>
      </trkpt>
      <trkpt lat="40.432045" lon="-3.760318">
        <ele>655.106</ele>
        <time>2018-08-19T20:27:52Z</time>
      </trkpt>
      <trkpt lat="40.432097" lon="-3.760307">
        <ele>655.126</ele>
        <time>2018-08-19T20:27:54Z</time>
      </trkpt>
      <trkpt lat="40.432150" lon="-3.760296">
        <ele>655.008</ele>
        <time>2018-08-19T20:27:56Z</time>
      </trkpt>
      <trkpt lat="40.432209" lon="-3.760284">
        <ele>655.020</ele>
        <time>2018-08-19T20:27:58Z</time>
      </trkpt>
      <trkpt lat="40.432265" lon="-3.760271">
        <ele>654.995</ele>
        <time>2018-08-19T20:28:00Z</time>
      </trkpt>
      <trkpt lat="40.432315" lon="-3.760261">
        <ele>655.155</ele>
        <time>2018-08-19T20:28:02Z</time>
      </trkpt>
      <trkpt lat="40.432363" lon="-3.760251">
        <ele>654.925</ele>
        <time>2018-08-19T20:28:04Z</time>
      </trkpt>
      <trkpt lat="40.432412" lon="-3.760237">
        <ele>655.021</ele>
        <time>2018-08-19T20:28:06Z</time>
      </trkpt>
      <trkpt lat="40.432465" lon="-3.760223">
        <ele>655.274</ele>
        <time>2018-08-19T20:28:08Z</time>
      </trkpt>
      <trkpt lat="40.432516" lon="-3.760209">
        <ele>655.133</ele>
        <time>2018-08-19T20:28:10Z</time>
      </trkpt>
      <trkpt lat="40.432564" lon="-3.760194">
        <ele>654.927</ele>
        <time>2018-08-19T20:28:12Z</time>
      </trkpt>
      <trkpt lat="40.432609" lon="-3.760177">
        <ele>654.944</ele>
        <time>2018-08-19T20:28:14Z</time>
      </trkpt>
      <trkpt lat="40.432662" lon="-3.760155">
        <ele>654.305</ele>
        <time>2018-08-19T20:28:16Z</time>
      </trkpt>
      <trkpt lat="40.432722" lon="-3.760127">
        <ele>653.915</ele>
        <time>2018-08-19T20:28:18Z</time>
      </trkpt>
      <trkpt lat="40.432786" lon="-3.760096">
        <ele>653.508</ele>
        <time>2018-08-19T20:28:20Z</time>
      </trkpt>
      <trkpt lat="40.432852" lon="-3.760065">
        <ele>653.196</ele>
        <time>2018-08-19T20:28:22Z</time>
      </trkpt>
      <trkpt lat="40.432919" lon="-3.760034">
        <ele>652.851</ele>
        <time>2018-08-19T20:28:24Z</time>
      </trkpt>
      <trkpt lat="40.432984" lon="-3.760002">
        <ele>652.361</ele>
        <time>2018-08-19T20:28:26Z</time>
      </trkpt>
      <trkpt lat="40.433047" lon="-3.759969">
        <ele>652.461</ele>
        <time>2018-08-19T20:28:28Z</time>
      </trkpt>
      <trkpt lat="40.433105" lon="-3.759935">
        <ele>652.247</ele>
        <time>2018-08-19T20:28:30Z</time>
      </trkpt>
      <trkpt lat="40.433162" lon="-3.759900">
        <ele>652.390</ele>
        <time>2018-08-19T20:28:32Z</time>
      </trkpt>
      <trkpt lat="40.433227" lon="-3.759883">
        <ele>652.079</ele>
        <time>2018-08-19T20:28:34Z</time>
      </trkpt>
      <trkpt lat="40.433290" lon="-3.759885">
        <ele>652.473</ele>
        <time>2018-08-19T20:28:36Z</time>
      </trkpt>
      <trkpt lat="40.433355" lon="-3.759888">
        <ele>652.536</ele>
        <time>2018-08-19T20:28:38Z</time>
      </trkpt>
      <trkpt lat="40.433411" lon="-3.759889">
        <ele>652.517</ele>
        <time>2018-08-19T20:28:40Z</time>
      </trkpt>
      <trkpt lat="40.433462" lon="-3.759884">
        <ele>652.718</ele>
        <time>2018-08-19T20:28:42Z</time>
      </trkpt>
      <trkpt lat="40.433511" lon="-3.759874">
        <ele>652.908</ele>
        <time>2018-08-19T20:28:44Z</time>
      </trkpt>
      <trkpt lat="40.433557" lon="-3.759857">
        <ele>653.085</ele>
        <time>2018-08-19T20:28:46Z</time>
      </trkpt>
      <trkpt lat="40.433600" lon="-3.759840">
        <ele>653.150</ele>
        <time>2018-08-19T20:28:48Z</time>
      </trkpt>
      <trkpt lat="40.433659" lon="-3.759822">
        <ele>653.380</ele>
        <time>2018-08-19T20:28:51Z</time>
      </trkpt>
      <trkpt lat="40.433717" lon="-3.759790">
        <ele>653.370</ele>
        <time>2018-08-19T20:28:54Z</time>
      </trkpt>
      <trkpt lat="40.433771" lon="-3.759760">
        <ele>653.696</ele>
        <time>2018-08-19T20:28:57Z</time>
      </trkpt>
      <trkpt lat="40.433822" lon="-3.759752">
        <ele>654.179</ele>
        <time>2018-08-19T20:29:00Z</time>
      </trkpt>
      <trkpt lat="40.433876" lon="-3.759774">
        <ele>654.638</ele>
        <time>2018-08-19T20:29:03Z</time>
      </trkpt>
      <trkpt lat="40.433936" lon="-3.759781">
        <ele>654.842</ele>
        <time>2018-08-19T20:29:06Z</time>
      </trkpt>
      <trkpt lat="40.434000" lon="-3.759773">
        <ele>655.412</ele>
        <time>2018-08-19T20:29:09Z</time>
      </trkpt>
      <trkpt lat="40.434061" lon="-3.759748">
        <ele>655.432</ele>
        <time>2018-08-19T20:29:12Z</time>
      </trkpt>
      <trkpt lat="40.434112" lon="-3.759698">
        <ele>654.905</ele>
        <time>2018-08-19T20:29:15Z</time>
      </trkpt>
      <trkpt lat="40.434147" lon="-3.759629">
        <ele>655.008</ele>
        <time>2018-08-19T20:29:18Z</time>
      </trkpt>
      <trkpt lat="40.434175" lon="-3.759547">
        <ele>654.693</ele>
        <time>2018-08-19T20:29:21Z</time>
      </trkpt>
      <trkpt lat="40.434184" lon="-3.759481">
        <ele>654.888</ele>
        <time>2018-08-19T20:29:23Z</time>
      </trkpt>
      <trkpt lat="40.434195" lon="-3.759416">
        <ele>654.828</ele>
        <time>2018-08-19T20:29:25Z</time>
      </trkpt>
      <trkpt lat="40.434221" lon="-3.759356">
        <ele>654.668</ele>
        <time>2018-08-19T20:29:27Z</time>
      </trkpt>
      <trkpt lat="40.434250" lon="-3.759305">
        <ele>654.624</ele>
        <time>2018-08-19T20:29:29Z</time>
      </trkpt>
      <trkpt lat="40.434280" lon="-3.759255">
        <ele>654.997</ele>
        <time>2018-08-19T20:29:31Z</time>
      </trkpt>
      <trkpt lat="40.434309" lon="-3.759205">
        <ele>655.126</ele>
        <time>2018-08-19T20:29:33Z</time>
      </trkpt>
      <trkpt lat="40.434339" lon="-3.759151">
        <ele>655.520</ele>
        <time>2018-08-19T20:29:35Z</time>
      </trkpt>
      <trkpt lat="40.434367" lon="-3.759099">
        <ele>656.023</ele>
        <time>2018-08-19T20:29:37Z</time>
      </trkpt>
      <trkpt lat="40.434394" lon="-3.759048">
        <ele>655.883</ele>
        <time>2018-08-19T20:29:39Z</time>
      </trkpt>
      <trkpt lat="40.434427" lon="-3.758977">
        <ele>656.311</ele>
        <time>2018-08-19T20:29:42Z</time>
      </trkpt>
      <trkpt lat="40.434453" lon="-3.758904">
        <ele>656.808</ele>
        <time>2018-08-19T20:29:45Z</time>
      </trkpt>
      <trkpt lat="40.434479" lon="-3.758835">
        <ele>657.044</ele>
        <time>2018-08-19T20:29:48Z</time>
      </trkpt>
      <trkpt lat="40.434491" lon="-3.758765">
        <ele>657.619</ele>
        <time>2018-08-19T20:29:51Z</time>
      </trkpt>
      <trkpt lat="40.434488" lon="-3.758688">
        <ele>658.019</ele>
        <time>2018-08-19T20:29:54Z</time>
      </trkpt>
      <trkpt lat="40.434484" lon="-3.758605">
        <ele>658.389</ele>
        <time>2018-08-19T20:29:57Z</time>
      </trkpt>
      <trkpt lat="40.434490" lon="-3.758531">
        <ele>658.615</ele>
        <time>2018-08-19T20:30:00Z</time>
      </trkpt>
      <trkpt lat="40.434521" lon="-3.758470">
        <ele>659.138</ele>
        <time>2018-08-19T20:30:03Z</time>
      </trkpt>
      <trkpt lat="40.434561" lon="-3.758406">
        <ele>659.237</ele>
        <time>2018-08-19T20:30:06Z</time>
      </trkpt>
      <trkpt lat="40.434604" lon="-3.758339">
        <ele>659.491</ele>
        <time>2018-08-19T20:30:09Z</time>
      </trkpt>
      <trkpt lat="40.434634" lon="-3.758274">
        <ele>659.641</ele>
        <time>2018-08-19T20:30:12Z</time>
      </trkpt>
      <trkpt lat="40.434652" lon="-3.758214">
        <ele>659.781</ele>
        <time>2018-08-19T20:30:15Z</time>
      </trkpt>
      <trkpt lat="40.434667" lon="-3.758147">
        <ele>660.209</ele>
        <time>2018-08-19T20:30:19Z</time>
      </trkpt>
      <trkpt lat="40.434690" lon="-3.758086">
        <ele>661.108</ele>
        <time>2018-08-19T20:30:22Z</time>
      </trkpt>
      <trkpt lat="40.434719" lon="-3.758011">
        <ele>661.636</ele>
        <time>2018-08-19T20:30:25Z</time>
      </trkpt>
      <trkpt lat="40.434744" lon="-3.757957">
        <ele>661.851</ele>
        <time>2018-08-19T20:30:27Z</time>
      </trkpt>
      <trkpt lat="40.434770" lon="-3.757901">
        <ele>662.421</ele>
        <time>2018-08-19T20:30:29Z</time>
      </trkpt>
      <trkpt lat="40.434795" lon="-3.757848">
        <ele>662.981</ele>
        <time>2018-08-19T20:30:31Z</time>
      </trkpt>
      <trkpt lat="40.434826" lon="-3.757775">
        <ele>663.537</ele>
        <time>2018-08-19T20:30:34Z</time>
      </trkpt>
      <trkpt lat="40.434863" lon="-3.757703">
        <ele>664.490</ele>
        <time>2018-08-19T20:30:37Z</time>
      </trkpt>
      <trkpt lat="40.434906" lon="-3.757638">
        <ele>664.979</ele>
        <time>2018-08-19T20:30:40Z</time>
      </trkpt>
      <trkpt lat="40.434939" lon="-3.757595">
        <ele>665.383</ele>
        <time>2018-08-19T20:30:43Z</time>
      </trkpt>
      <trkpt lat="40.434902" lon="-3.757629">
        <ele>664.439</ele>
        <time>2018-08-19T20:32:27Z</time>
      </trkpt>
      <trkpt lat="40.434943" lon="-3.757601">
        <ele>664.501</ele>
        <time>2018-08-19T20:33:15Z</time>
      </trkpt>
      <trkpt lat="40.434908" lon="-3.757547">
        <ele>665.021</ele>
        <time>2018-08-19T20:35:31Z</time>
      </trkpt>
      <trkpt lat="40.434898" lon="-3.757483">
        <ele>665.008</ele>
        <time>2018-08-19T20:35:34Z</time>
      </trkpt>
      <trkpt lat="40.434881" lon="-3.757423">
        <ele>664.385</ele>
        <time>2018-08-19T20:35:36Z</time>
      </trkpt>
      <trkpt lat="40.434852" lon="-3.757362">
        <ele>664.170</ele>
        <time>2018-08-19T20:35:38Z</time>
      </trkpt>
      <trkpt lat="40.434813" lon="-3.757292">
        <ele>664.270</ele>
        <time>2018-08-19T20:35:40Z</time>
      </trkpt>
      <trkpt lat="40.434776" lon="-3.757213">
        <ele>664.050</ele>
        <time>2018-08-19T20:35:42Z</time>
      </trkpt>
      <trkpt lat="40.434735" lon="-3.757139">
        <ele>664.186</ele>
        <time>2018-08-19T20:35:44Z</time>
      </trkpt>
      <trkpt lat="40.434692" lon="-3.757074">
        <ele>664.369</ele>
        <time>2018-08-19T20:35:46Z</time>
      </trkpt>
      <trkpt lat="40.434651" lon="-3.757014">
        <ele>664.998</ele>
        <time>2018-08-19T20:35:48Z</time>
      </trkpt>
      <trkpt lat="40.434614" lon="-3.756954">
        <ele>665.232</ele>
        <time>2018-08-19T20:35:50Z</time>
      </trkpt>
      <trkpt lat="40.434582" lon="-3.756899">
        <ele>665.896</ele>
        <time>2018-08-19T20:35:52Z</time>
      </trkpt>
      <trkpt lat="40.434540" lon="-3.756835">
        <ele>665.831</ele>
        <time>2018-08-19T20:35:55Z</time>
      </trkpt>
      <trkpt lat="40.434501" lon="-3.756784">
        <ele>666.324</ele>
        <time>2018-08-19T20:35:58Z</time>
      </trkpt>
      <trkpt lat="40.434465" lon="-3.756736">
        <ele>666.608</ele>
        <time>2018-08-19T20:36:01Z</time>
      </trkpt>
      <trkpt lat="40.434450" lon="-3.756677">
        <ele>666.681</ele>
        <time>2018-08-19T20:36:04Z</time>
      </trkpt>
      <trkpt lat="40.434442" lon="-3.756615">
        <ele>666.946</ele>
        <time>2018-08-19T20:36:07Z</time>
      </trkpt>
      <trkpt lat="40.434433" lon="-3.756539">
        <ele>666.866</ele>
        <time>2018-08-19T20:36:11Z</time>
      </trkpt>
      <trkpt lat="40.434424" lon="-3.756456">
        <ele>666.456</ele>
        <time>2018-08-19T20:36:14Z</time>
      </trkpt>
      <trkpt lat="40.434420" lon="-3.756384">
        <ele>666.292</ele>
        <time>2018-08-19T20:36:17Z</time>
      </trkpt>
      <trkpt lat="40.434424" lon="-3.756319">
        <ele>666.485</ele>
        <time>2018-08-19T20:36:20Z</time>
      </trkpt>
      <trkpt lat="40.434433" lon="-3.756240">
        <ele>666.434</ele>
        <time>2018-08-19T20:36:23Z</time>
      </trkpt>
      <trkpt lat="40.434435" lon="-3.756168">
        <ele>666.188</ele>
        <time>2018-08-19T20:36:25Z</time>
      </trkpt>
      <trkpt lat="40.434434" lon="-3.756092">
        <ele>666.059</ele>
        <time>2018-08-19T20:36:27Z</time>
      </trkpt>
      <trkpt lat="40.434433" lon="-3.756019">
        <ele>666.003</ele>
        <time>2018-08-19T20:36:29Z</time>
      </trkpt>
      <trkpt lat="40.434428" lon="-3.755934">
        <ele>666.023</ele>
        <time>2018-08-19T20:36:31Z</time>
      </trkpt>
      <trkpt lat="40.434420" lon="-3.755845">
        <ele>666.108</ele>
        <time>2018-08-19T20:36:33Z</time>
      </trkpt>
      <trkpt lat="40.434416" lon="-3.755773">
        <ele>666.377</ele>
        <time>2018-08-19T20:36:35Z</time>
      </trkpt>
      <trkpt lat="40.434415" lon="-3.755710">
        <ele>666.542</ele>
        <time>2018-08-19T20:36:37Z</time>
      </trkpt>
      <trkpt lat="40.434407" lon="-3.755648">
        <ele>666.682</ele>
        <time>2018-08-19T20:36:39Z</time>
      </trkpt>
      <trkpt lat="40.434398" lon="-3.755588">
        <ele>666.652</ele>
        <time>2018-08-19T20:36:41Z</time>
      </trkpt>
      <trkpt lat="40.434383" lon="-3.755512">
        <ele>666.268</ele>
        <time>2018-08-19T20:36:44Z</time>
      </trkpt>
      <trkpt lat="40.434364" lon="-3.755454">
        <ele>665.741</ele>
        <time>2018-08-19T20:36:50Z</time>
      </trkpt>
      <trkpt lat="40.434337" lon="-3.755406">
        <ele>665.030</ele>
        <time>2018-08-19T20:38:14Z</time>
      </trkpt>
      <trkpt lat="40.434379" lon="-3.755443">
        <ele>666.154</ele>
        <time>2018-08-19T20:41:04Z</time>
      </trkpt>
      <trkpt lat="40.434378" lon="-3.755520">
        <ele>666.535</ele>
        <time>2018-08-19T20:41:08Z</time>
      </trkpt>
      <trkpt lat="40.434381" lon="-3.755585">
        <ele>666.386</ele>
        <time>2018-08-19T20:41:11Z</time>
      </trkpt>
      <trkpt lat="40.434382" lon="-3.755662">
        <ele>665.914</ele>
        <time>2018-08-19T20:41:14Z</time>
      </trkpt>
      <trkpt lat="40.434381" lon="-3.755731">
        <ele>665.808</ele>
        <time>2018-08-19T20:41:17Z</time>
      </trkpt>
      <trkpt lat="40.434390" lon="-3.755810">
        <ele>665.725</ele>
        <time>2018-08-19T20:41:20Z</time>
      </trkpt>
      <trkpt lat="40.434398" lon="-3.755889">
        <ele>665.840</ele>
        <time>2018-08-19T20:41:23Z</time>
      </trkpt>
      <trkpt lat="40.434402" lon="-3.755977">
        <ele>665.620</ele>
        <time>2018-08-19T20:41:26Z</time>
      </trkpt>
      <trkpt lat="40.434405" lon="-3.756037">
        <ele>665.950</ele>
        <time>2018-08-19T20:41:28Z</time>
      </trkpt>
      <trkpt lat="40.434409" lon="-3.756118">
        <ele>666.186</ele>
        <time>2018-08-19T20:41:31Z</time>
      </trkpt>
      <trkpt lat="40.434405" lon="-3.756193">
        <ele>666.439</ele>
        <time>2018-08-19T20:41:34Z</time>
      </trkpt>
      <trkpt lat="40.434399" lon="-3.756270">
        <ele>666.638</ele>
        <time>2018-08-19T20:41:37Z</time>
      </trkpt>
      <trkpt lat="40.434397" lon="-3.756351">
        <ele>666.892</ele>
        <time>2018-08-19T20:41:40Z</time>
      </trkpt>
      <trkpt lat="40.434398" lon="-3.756429">
        <ele>667.115</ele>
        <time>2018-08-19T20:41:43Z</time>
      </trkpt>
      <trkpt lat="40.434404" lon="-3.756510">
        <ele>667.565</ele>
        <time>2018-08-19T20:41:46Z</time>
      </trkpt>
      <trkpt lat="40.434416" lon="-3.756596">
        <ele>667.111</ele>
        <time>2018-08-19T20:41:49Z</time>
      </trkpt>
      <trkpt lat="40.434424" lon="-3.756657">
        <ele>667.208</ele>
        <time>2018-08-19T20:41:51Z</time>
      </trkpt>
      <trkpt lat="40.434440" lon="-3.756712">
        <ele>667.123</ele>
        <time>2018-08-19T20:41:53Z</time>
      </trkpt>
      <trkpt lat="40.434481" lon="-3.756780">
        <ele>666.528</ele>
        <time>2018-08-19T20:41:56Z</time>
      </trkpt>
      <trkpt lat="40.434511" lon="-3.756825">
        <ele>666.168</ele>
        <time>2018-08-19T20:41:58Z</time>
      </trkpt>
      <trkpt lat="40.434543" lon="-3.756872">
        <ele>665.788</ele>
        <time>2018-08-19T20:42:00Z</time>
      </trkpt>
      <trkpt lat="40.434573" lon="-3.756931">
        <ele>665.134</ele>
        <time>2018-08-19T20:42:02Z</time>
      </trkpt>
      <trkpt lat="40.434597" lon="-3.757005">
        <ele>664.687</ele>
        <time>2018-08-19T20:42:04Z</time>
      </trkpt>
      <trkpt lat="40.434616" lon="-3.757080">
        <ele>664.116</ele>
        <time>2018-08-19T20:42:06Z</time>
      </trkpt>
      <trkpt lat="40.434620" lon="-3.757154">
        <ele>663.880</ele>
        <time>2018-08-19T20:42:08Z</time>
      </trkpt>
      <trkpt lat="40.434604" lon="-3.757227">
        <ele>663.692</ele>
        <time>2018-08-19T20:42:10Z</time>
      </trkpt>
      <trkpt lat="40.434575" lon="-3.757299">
        <ele>662.773</ele>
        <time>2018-08-19T20:42:12Z</time>
      </trkpt>
      <trkpt lat="40.434539" lon="-3.757371">
        <ele>661.820</ele>
        <time>2018-08-19T20:42:14Z</time>
      </trkpt>
      <trkpt lat="40.434496" lon="-3.757455">
        <ele>660.808</ele>
        <time>2018-08-19T20:42:16Z</time>
      </trkpt>
      <trkpt lat="40.434451" lon="-3.757548">
        <ele>659.761</ele>
        <time>2018-08-19T20:42:18Z</time>
      </trkpt>
      <trkpt lat="40.434403" lon="-3.757646">
        <ele>658.826</ele>
        <time>2018-08-19T20:42:20Z</time>
      </trkpt>
      <trkpt lat="40.434376" lon="-3.757699">
        <ele>658.536</ele>
        <time>2018-08-19T20:42:21Z</time>
      </trkpt>
      <trkpt lat="40.434293" lon="-3.757854">
        <ele>658.116</ele>
        <time>2018-08-19T20:42:22Z</time>
      </trkpt>
      <trkpt lat="40.434260" lon="-3.757914">
        <ele>657.862</ele>
        <time>2018-08-19T20:42:23Z</time>
      </trkpt>
      <trkpt lat="40.434233" lon="-3.757968">
        <ele>657.725</ele>
        <time>2018-08-19T20:42:24Z</time>
      </trkpt>
      <trkpt lat="40.434215" lon="-3.758027">
        <ele>657.364</ele>
        <time>2018-08-19T20:42:25Z</time>
      </trkpt>
      <trkpt lat="40.434200" lon="-3.758085">
        <ele>656.928</ele>
        <time>2018-08-19T20:42:26Z</time>
      </trkpt>
      <trkpt lat="40.434177" lon="-3.758136">
        <ele>656.844</ele>
        <time>2018-08-19T20:42:27Z</time>
      </trkpt>
      <trkpt lat="40.434127" lon="-3.758235">
        <ele>656.305</ele>
        <time>2018-08-19T20:42:29Z</time>
      </trkpt>
      <trkpt lat="40.434102" lon="-3.758288">
        <ele>656.115</ele>
        <time>2018-08-19T20:42:30Z</time>
      </trkpt>
      <trkpt lat="40.434078" lon="-3.758339">
        <ele>655.608</ele>
        <time>2018-08-19T20:42:31Z</time>
      </trkpt>
      <trkpt lat="40.434049" lon="-3.758402">
        <ele>655.376</ele>
        <time>2018-08-19T20:42:32Z</time>
      </trkpt>
      <trkpt lat="40.434019" lon="-3.758463">
        <ele>654.771</ele>
        <time>2018-08-19T20:42:33Z</time>
      </trkpt>
      <trkpt lat="40.433990" lon="-3.758522">
        <ele>654.441</ele>
        <time>2018-08-19T20:42:34Z</time>
      </trkpt>
      <trkpt lat="40.433960" lon="-3.758581">
        <ele>654.031</ele>
        <time>2018-08-19T20:42:35Z</time>
      </trkpt>
      <trkpt lat="40.433926" lon="-3.758639">
        <ele>653.787</ele>
        <time>2018-08-19T20:42:36Z</time>
      </trkpt>
      <trkpt lat="40.433895" lon="-3.758696">
        <ele>653.290</ele>
        <time>2018-08-19T20:42:37Z</time>
      </trkpt>
      <trkpt lat="40.433862" lon="-3.758751">
        <ele>653.069</ele>
        <time>2018-08-19T20:42:38Z</time>
      </trkpt>
      <trkpt lat="40.433833" lon="-3.758802">
        <ele>652.823</ele>
        <time>2018-08-19T20:42:39Z</time>
      </trkpt>
      <trkpt lat="40.433790" lon="-3.758853">
        <ele>652.583</ele>
        <time>2018-08-19T20:42:40Z</time>
      </trkpt>
      <trkpt lat="40.433755" lon="-3.758904">
        <ele>652.225</ele>
        <time>2018-08-19T20:42:41Z</time>
      </trkpt>
      <trkpt lat="40.433707" lon="-3.759010">
        <ele>652.017</ele>
        <time>2018-08-19T20:42:43Z</time>
      </trkpt>
      <trkpt lat="40.433682" lon="-3.759061">
        <ele>651.908</ele>
        <time>2018-08-19T20:42:44Z</time>
      </trkpt>
      <trkpt lat="40.433636" lon="-3.759163">
        <ele>651.510</ele>
        <time>2018-08-19T20:42:46Z</time>
      </trkpt>
      <trkpt lat="40.433596" lon="-3.759245">
        <ele>651.215</ele>
        <time>2018-08-19T20:42:48Z</time>
      </trkpt>
      <trkpt lat="40.433571" lon="-3.759304">
        <ele>650.895</ele>
        <time>2018-08-19T20:42:50Z</time>
      </trkpt>
      <trkpt lat="40.433546" lon="-3.759369">
        <ele>651.145</ele>
        <time>2018-08-19T20:42:52Z</time>
      </trkpt>
      <trkpt lat="40.433511" lon="-3.759430">
        <ele>651.071</ele>
        <time>2018-08-19T20:42:54Z</time>
      </trkpt>
      <trkpt lat="40.433486" lon="-3.759480">
        <ele>651.354</ele>
        <time>2018-08-19T20:42:56Z</time>
      </trkpt>
      <trkpt lat="40.433453" lon="-3.759549">
        <ele>651.833</ele>
        <time>2018-08-19T20:42:59Z</time>
      </trkpt>
      <trkpt lat="40.433427" lon="-3.759603">
        <ele>651.637</ele>
        <time>2018-08-19T20:43:01Z</time>
      </trkpt>
      <trkpt lat="40.433395" lon="-3.759654">
        <ele>652.176</ele>
        <time>2018-08-19T20:43:03Z</time>
      </trkpt>
      <trkpt lat="40.433357" lon="-3.759697">
        <ele>651.890</ele>
        <time>2018-08-19T20:43:05Z</time>
      </trkpt>
      <trkpt lat="40.433320" lon="-3.759734">
        <ele>652.019</ele>
        <time>2018-08-19T20:43:07Z</time>
      </trkpt>
      <trkpt lat="40.433275" lon="-3.759778">
        <ele>652.008</ele>
        <time>2018-08-19T20:43:10Z</time>
      </trkpt>
      <trkpt lat="40.433249" lon="-3.759834">
        <ele>651.919</ele>
        <time>2018-08-19T20:43:13Z</time>
      </trkpt>
      <trkpt lat="40.433235" lon="-3.759911">
        <ele>651.584</ele>
        <time>2018-08-19T20:43:16Z</time>
      </trkpt>
      <trkpt lat="40.433227" lon="-3.759972">
        <ele>651.544</ele>
        <time>2018-08-19T20:43:18Z</time>
      </trkpt>
      <trkpt lat="40.433218" lon="-3.760041">
        <ele>651.294</ele>
        <time>2018-08-19T20:43:20Z</time>
      </trkpt>
      <trkpt lat="40.433207" lon="-3.760111">
        <ele>651.140</ele>
        <time>2018-08-19T20:43:22Z</time>
      </trkpt>
      <trkpt lat="40.433196" lon="-3.760182">
        <ele>650.493</ele>
        <time>2018-08-19T20:43:24Z</time>
      </trkpt>
      <trkpt lat="40.433187" lon="-3.760260">
        <ele>650.352</ele>
        <time>2018-08-19T20:43:26Z</time>
      </trkpt>
      <trkpt lat="40.433188" lon="-3.760332">
        <ele>649.886</ele>
        <time>2018-08-19T20:43:28Z</time>
      </trkpt>
      <trkpt lat="40.433193" lon="-3.760408">
        <ele>649.279</ele>
        <time>2018-08-19T20:43:30Z</time>
      </trkpt>
      <trkpt lat="40.433203" lon="-3.760483">
        <ele>648.805</ele>
        <time>2018-08-19T20:43:32Z</time>
      </trkpt>
      <trkpt lat="40.433215" lon="-3.760556">
        <ele>648.425</ele>
        <time>2018-08-19T20:43:34Z</time>
      </trkpt>
      <trkpt lat="40.433233" lon="-3.760639">
        <ele>648.008</ele>
        <time>2018-08-19T20:43:36Z</time>
      </trkpt>
      <trkpt lat="40.433250" lon="-3.760727">
        <ele>647.449</ele>
        <time>2018-08-19T20:43:38Z</time>
      </trkpt>
      <trkpt lat="40.433266" lon="-3.760820">
        <ele>646.944</ele>
        <time>2018-08-19T20:43:40Z</time>
      </trkpt>
      <trkpt lat="40.433287" lon="-3.760919">
        <ele>646.424</ele>
        <time>2018-08-19T20:43:42Z</time>
      </trkpt>
      <trkpt lat="40.433309" lon="-3.761018">
        <ele>646.054</ele>
        <time>2018-08-19T20:43:44Z</time>
      </trkpt>
      <trkpt lat="40.433329" lon="-3.761115">
        <ele>645.430</ele>
        <time>2018-08-19T20:43:46Z</time>
      </trkpt>
      <trkpt lat="40.433352" lon="-3.761216">
        <ele>644.473</ele>
        <time>2018-08-19T20:43:48Z</time>
      </trkpt>
      <trkpt lat="40.433372" lon="-3.761311">
        <ele>643.722</ele>
        <time>2018-08-19T20:43:50Z</time>
      </trkpt>
      <trkpt lat="40.433388" lon="-3.761400">
        <ele>643.166</ele>
        <time>2018-08-19T20:43:52Z</time>
      </trkpt>
      <trkpt lat="40.433406" lon="-3.761495">
        <ele>642.783</ele>
        <time>2018-08-19T20:43:54Z</time>
      </trkpt>
      <trkpt lat="40.433440" lon="-3.761653">
        <ele>642.425</ele>
        <time>2018-08-19T20:43:55Z</time>
      </trkpt>
      <trkpt lat="40.433453" lon="-3.761711">
        <ele>642.017</ele>
        <time>2018-08-19T20:43:56Z</time>
      </trkpt>
      <trkpt lat="40.433468" lon="-3.761767">
        <ele>641.708</ele>
        <time>2018-08-19T20:43:57Z</time>
      </trkpt>
      <trkpt lat="40.433487" lon="-3.761821">
        <ele>641.670</ele>
        <time>2018-08-19T20:43:58Z</time>
      </trkpt>
      <trkpt lat="40.433513" lon="-3.761903">
        <ele>640.875</ele>
        <time>2018-08-19T20:44:00Z</time>
      </trkpt>
      <trkpt lat="40.433536" lon="-3.761964">
        <ele>640.135</ele>
        <time>2018-08-19T20:44:02Z</time>
      </trkpt>
      <trkpt lat="40.433564" lon="-3.762032">
        <ele>639.865</ele>
        <time>2018-08-19T20:44:04Z</time>
      </trkpt>
      <trkpt lat="40.433586" lon="-3.762086">
        <ele>639.281</ele>
        <time>2018-08-19T20:44:06Z</time>
      </trkpt>
      <trkpt lat="40.433617" lon="-3.762182">
        <ele>639.194</ele>
        <time>2018-08-19T20:44:07Z</time>
      </trkpt>
      <trkpt lat="40.433639" lon="-3.762240">
        <ele>638.953</ele>
        <time>2018-08-19T20:44:08Z</time>
      </trkpt>
      <trkpt lat="40.433713" lon="-3.762357">
        <ele>638.327</ele>
        <time>2018-08-19T20:44:10Z</time>
      </trkpt>
      <trkpt lat="40.433751" lon="-3.762402">
        <ele>638.295</ele>
        <time>2018-08-19T20:44:11Z</time>
      </trkpt>
      <trkpt lat="40.433802" lon="-3.762489">
        <ele>638.249</ele>
        <time>2018-08-19T20:44:13Z</time>
      </trkpt>
      <trkpt lat="40.433834" lon="-3.762538">
        <ele>637.923</ele>
        <time>2018-08-19T20:44:14Z</time>
      </trkpt>
      <trkpt lat="40.433877" lon="-3.762612">
        <ele>637.608</ele>
        <time>2018-08-19T20:44:16Z</time>
      </trkpt>
      <trkpt lat="40.433919" lon="-3.762677">
        <ele>637.151</ele>
        <time>2018-08-19T20:44:20Z</time>
      </trkpt>
      <trkpt lat="40.433951" lon="-3.762726">
        <ele>636.986</ele>
        <time>2018-08-19T20:44:22Z</time>
      </trkpt>
      <trkpt lat="40.433984" lon="-3.762780">
        <ele>636.736</ele>
        <time>2018-08-19T20:44:24Z</time>
      </trkpt>
      <trkpt lat="40.434017" lon="-3.762846">
        <ele>636.366</ele>
        <time>2018-08-19T20:44:26Z</time>
      </trkpt>
      <trkpt lat="40.434042" lon="-3.762911">
        <ele>636.022</ele>
        <time>2018-08-19T20:44:28Z</time>
      </trkpt>
      <trkpt lat="40.434065" lon="-3.762971">
        <ele>635.965</ele>
        <time>2018-08-19T20:44:30Z</time>
      </trkpt>
      <trkpt lat="40.434092" lon="-3.763031">
        <ele>635.574</ele>
        <time>2018-08-19T20:44:32Z</time>
      </trkpt>
      <trkpt lat="40.434130" lon="-3.763091">
        <ele>635.168</ele>
        <time>2018-08-19T20:44:34Z</time>
      </trkpt>
      <trkpt lat="40.434172" lon="-3.763153">
        <ele>634.643</ele>
        <time>2018-08-19T20:44:36Z</time>
      </trkpt>
      <trkpt lat="40.434235" lon="-3.763230">
        <ele>634.564</ele>
        <time>2018-08-19T20:44:38Z</time>
      </trkpt>
      <trkpt lat="40.434273" lon="-3.763273">
        <ele>634.510</ele>
        <time>2018-08-19T20:44:39Z</time>
      </trkpt>
      <trkpt lat="40.434308" lon="-3.763310">
        <ele>634.508</ele>
        <time>2018-08-19T20:44:40Z</time>
      </trkpt>
      <trkpt lat="40.434345" lon="-3.763348">
        <ele>634.176</ele>
        <time>2018-08-19T20:44:41Z</time>
      </trkpt>
      <trkpt lat="40.434410" lon="-3.763417">
        <ele>633.851</ele>
        <time>2018-08-19T20:44:43Z</time>
      </trkpt>
      <trkpt lat="40.434467" lon="-3.763479">
        <ele>633.671</ele>
        <time>2018-08-19T20:44:45Z</time>
      </trkpt>
      <trkpt lat="40.434522" lon="-3.763535">
        <ele>633.251</ele>
        <time>2018-08-19T20:44:47Z</time>
      </trkpt>
      <trkpt lat="40.434577" lon="-3.763588">
        <ele>633.097</ele>
        <time>2018-08-19T20:44:49Z</time>
      </trkpt>
      <trkpt lat="40.434631" lon="-3.763639">
        <ele>632.840</ele>
        <time>2018-08-19T20:44:51Z</time>
      </trkpt>
      <trkpt lat="40.434684" lon="-3.763684">
        <ele>632.639</ele>
        <time>2018-08-19T20:44:53Z</time>
      </trkpt>
      <trkpt lat="40.434738" lon="-3.763729">
        <ele>632.383</ele>
        <time>2018-08-19T20:44:55Z</time>
      </trkpt>
      <trkpt lat="40.434795" lon="-3.763769">
        <ele>631.987</ele>
        <time>2018-08-19T20:44:57Z</time>
      </trkpt>
      <trkpt lat="40.434854" lon="-3.763801">
        <ele>631.742</ele>
        <time>2018-08-19T20:44:59Z</time>
      </trkpt>
      <trkpt lat="40.434919" lon="-3.763837">
        <ele>631.126</ele>
        <time>2018-08-19T20:45:01Z</time>
      </trkpt>
      <trkpt lat="40.434987" lon="-3.763871">
        <ele>630.708</ele>
        <time>2018-08-19T20:45:03Z</time>
      </trkpt>
      <trkpt lat="40.435057" lon="-3.763900">
        <ele>630.480</ele>
        <time>2018-08-19T20:45:05Z</time>
      </trkpt>
      <trkpt lat="40.435121" lon="-3.763925">
        <ele>629.765</ele>
        <time>2018-08-19T20:45:07Z</time>
      </trkpt>
      <trkpt lat="40.435189" lon="-3.763952">
        <ele>629.415</ele>
        <time>2018-08-19T20:45:09Z</time>
      </trkpt>
      <trkpt lat="40.435261" lon="-3.763982">
        <ele>628.715</ele>
        <time>2018-08-19T20:45:11Z</time>
      </trkpt>
      <trkpt lat="40.435335" lon="-3.764011">
        <ele>628.311</ele>
        <time>2018-08-19T20:45:13Z</time>
      </trkpt>
      <trkpt lat="40.435404" lon="-3.764040">
        <ele>628.114</ele>
        <time>2018-08-19T20:45:15Z</time>
      </trkpt>
      <trkpt lat="40.435467" lon="-3.764069">
        <ele>627.453</ele>
        <time>2018-08-19T20:45:17Z</time>
      </trkpt>
      <trkpt lat="40.435539" lon="-3.764096">
        <ele>627.177</ele>
        <time>2018-08-19T20:45:19Z</time>
      </trkpt>
      <trkpt lat="40.435619" lon="-3.764119">
        <ele>626.594</ele>
        <time>2018-08-19T20:45:21Z</time>
      </trkpt>
      <trkpt lat="40.435695" lon="-3.764151">
        <ele>626.357</ele>
        <time>2018-08-19T20:45:23Z</time>
      </trkpt>
      <trkpt lat="40.435774" lon="-3.764180">
        <ele>626.422</ele>
        <time>2018-08-19T20:45:25Z</time>
      </trkpt>
      <trkpt lat="40.435853" lon="-3.764200">
        <ele>626.008</ele>
        <time>2018-08-19T20:45:27Z</time>
      </trkpt>
      <trkpt lat="40.435935" lon="-3.764213">
        <ele>625.641</ele>
        <time>2018-08-19T20:45:29Z</time>
      </trkpt>
      <trkpt lat="40.436014" lon="-3.764217">
        <ele>625.336</ele>
        <time>2018-08-19T20:45:31Z</time>
      </trkpt>
      <trkpt lat="40.436095" lon="-3.764217">
        <ele>625.066</ele>
        <time>2018-08-19T20:45:33Z</time>
      </trkpt>
      <trkpt lat="40.436178" lon="-3.764214">
        <ele>624.876</ele>
        <time>2018-08-19T20:45:35Z</time>
      </trkpt>
      <trkpt lat="40.436259" lon="-3.764210">
        <ele>624.432</ele>
        <time>2018-08-19T20:45:37Z</time>
      </trkpt>
      <trkpt lat="40.436338" lon="-3.764209">
        <ele>624.435</ele>
        <time>2018-08-19T20:45:39Z</time>
      </trkpt>
      <trkpt lat="40.436413" lon="-3.764204">
        <ele>624.164</ele>
        <time>2018-08-19T20:45:41Z</time>
      </trkpt>
      <trkpt lat="40.436495" lon="-3.764199">
        <ele>624.048</ele>
        <time>2018-08-19T20:45:43Z</time>
      </trkpt>
      <trkpt lat="40.436659" lon="-3.764198">
        <ele>623.762</ele>
        <time>2018-08-19T20:45:45Z</time>
      </trkpt>
      <trkpt lat="40.436745" lon="-3.764205">
        <ele>623.683</ele>
        <time>2018-08-19T20:45:47Z</time>
      </trkpt>
      <trkpt lat="40.436833" lon="-3.764221">
        <ele>623.111</ele>
        <time>2018-08-19T20:45:49Z</time>
      </trkpt>
      <trkpt lat="40.436922" lon="-3.764242">
        <ele>622.908</ele>
        <time>2018-08-19T20:45:51Z</time>
      </trkpt>
      <trkpt lat="40.436985" lon="-3.764254">
        <ele>622.858</ele>
        <time>2018-08-19T20:45:52Z</time>
      </trkpt>
      <trkpt lat="40.437069" lon="-3.764276">
        <ele>622.633</ele>
        <time>2018-08-19T20:45:54Z</time>
      </trkpt>
      <trkpt lat="40.437144" lon="-3.764298">
        <ele>622.083</ele>
        <time>2018-08-19T20:45:56Z</time>
      </trkpt>
      <trkpt lat="40.437227" lon="-3.764319">
        <ele>621.673</ele>
        <time>2018-08-19T20:45:58Z</time>
      </trkpt>
      <trkpt lat="40.437309" lon="-3.764338">
        <ele>621.169</ele>
        <time>2018-08-19T20:46:00Z</time>
      </trkpt>
      <trkpt lat="40.437354" lon="-3.764350">
        <ele>621.192</ele>
        <time>2018-08-19T20:46:01Z</time>
      </trkpt>
      <trkpt lat="40.437438" lon="-3.764367">
        <ele>620.831</ele>
        <time>2018-08-19T20:46:03Z</time>
      </trkpt>
      <trkpt lat="40.437524" lon="-3.764379">
        <ele>620.255</ele>
        <time>2018-08-19T20:46:05Z</time>
      </trkpt>
      <trkpt lat="40.437571" lon="-3.764383">
        <ele>619.946</ele>
        <time>2018-08-19T20:46:06Z</time>
      </trkpt>
      <trkpt lat="40.437665" lon="-3.764392">
        <ele>619.588</ele>
        <time>2018-08-19T20:46:08Z</time>
      </trkpt>
      <trkpt lat="40.437719" lon="-3.764400">
        <ele>619.416</ele>
        <time>2018-08-19T20:46:09Z</time>
      </trkpt>
      <trkpt lat="40.437767" lon="-3.764405">
        <ele>619.208</ele>
        <time>2018-08-19T20:46:10Z</time>
      </trkpt>
      <trkpt lat="40.437849" lon="-3.764404">
        <ele>618.686</ele>
        <time>2018-08-19T20:46:12Z</time>
      </trkpt>
      <trkpt lat="40.437941" lon="-3.764409">
        <ele>618.371</ele>
        <time>2018-08-19T20:46:14Z</time>
      </trkpt>
      <trkpt lat="40.437987" lon="-3.764412">
        <ele>618.131</ele>
        <time>2018-08-19T20:46:15Z</time>
      </trkpt>
      <trkpt lat="40.438040" lon="-3.764414">
        <ele>617.841</ele>
        <time>2018-08-19T20:46:16Z</time>
      </trkpt>
      <trkpt lat="40.438093" lon="-3.764417">
        <ele>617.787</ele>
        <time>2018-08-19T20:46:17Z</time>
      </trkpt>
      <trkpt lat="40.438139" lon="-3.764418">
        <ele>617.560</ele>
        <time>2018-08-19T20:46:18Z</time>
      </trkpt>
      <trkpt lat="40.438215" lon="-3.764424">
        <ele>617.269</ele>
        <time>2018-08-19T20:46:20Z</time>
      </trkpt>
      <trkpt lat="40.438305" lon="-3.764425">
        <ele>616.723</ele>
        <time>2018-08-19T20:46:22Z</time>
      </trkpt>
      <trkpt lat="40.438384" lon="-3.764442">
        <ele>616.387</ele>
        <time>2018-08-19T20:46:24Z</time>
      </trkpt>
      <trkpt lat="40.438466" lon="-3.764462">
        <ele>615.842</ele>
        <time>2018-08-19T20:46:26Z</time>
      </trkpt>
      <trkpt lat="40.438536" lon="-3.764491">
        <ele>615.426</ele>
        <time>2018-08-19T20:46:28Z</time>
      </trkpt>
      <trkpt lat="40.438584" lon="-3.764513">
        <ele>615.208</ele>
        <time>2018-08-19T20:46:29Z</time>
      </trkpt>
      <trkpt lat="40.438651" lon="-3.764563">
        <ele>614.950</ele>
        <time>2018-08-19T20:46:31Z</time>
      </trkpt>
      <trkpt lat="40.438709" lon="-3.764631">
        <ele>614.655</ele>
        <time>2018-08-19T20:46:33Z</time>
      </trkpt>
      <trkpt lat="40.438771" lon="-3.764696">
        <ele>614.475</ele>
        <time>2018-08-19T20:46:35Z</time>
      </trkpt>
      <trkpt lat="40.438820" lon="-3.764756">
        <ele>613.995</ele>
        <time>2018-08-19T20:46:37Z</time>
      </trkpt>
      <trkpt lat="40.438859" lon="-3.764811">
        <ele>613.941</ele>
        <time>2018-08-19T20:46:39Z</time>
      </trkpt>
      <trkpt lat="40.438911" lon="-3.764874">
        <ele>613.454</ele>
        <time>2018-08-19T20:46:42Z</time>
      </trkpt>
      <trkpt lat="40.438951" lon="-3.764917">
        <ele>613.363</ele>
        <time>2018-08-19T20:46:44Z</time>
      </trkpt>
      <trkpt lat="40.439000" lon="-3.764967">
        <ele>613.087</ele>
        <time>2018-08-19T20:46:46Z</time>
      </trkpt>
      <trkpt lat="40.439055" lon="-3.765022">
        <ele>612.959</ele>
        <time>2018-08-19T20:46:48Z</time>
      </trkpt>
      <trkpt lat="40.439116" lon="-3.765076">
        <ele>612.703</ele>
        <time>2018-08-19T20:46:50Z</time>
      </trkpt>
      <trkpt lat="40.439171" lon="-3.765126">
        <ele>612.723</ele>
        <time>2018-08-19T20:46:52Z</time>
      </trkpt>
      <trkpt lat="40.439235" lon="-3.765179">
        <ele>612.308</ele>
        <time>2018-08-19T20:46:54Z</time>
      </trkpt>
      <trkpt lat="40.439307" lon="-3.765236">
        <ele>612.227</ele>
        <time>2018-08-19T20:46:56Z</time>
      </trkpt>
      <trkpt lat="40.439372" lon="-3.765282">
        <ele>611.992</ele>
        <time>2018-08-19T20:46:58Z</time>
      </trkpt>
      <trkpt lat="40.439431" lon="-3.765322">
        <ele>611.382</ele>
        <time>2018-08-19T20:47:00Z</time>
      </trkpt>
      <trkpt lat="40.439494" lon="-3.765358">
        <ele>611.232</ele>
        <time>2018-08-19T20:47:02Z</time>
      </trkpt>
      <trkpt lat="40.439559" lon="-3.765394">
        <ele>611.048</ele>
        <time>2018-08-19T20:47:04Z</time>
      </trkpt>
      <trkpt lat="40.439627" lon="-3.765429">
        <ele>611.191</ele>
        <time>2018-08-19T20:47:06Z</time>
      </trkpt>
      <trkpt lat="40.439684" lon="-3.765451">
        <ele>610.930</ele>
        <time>2018-08-19T20:47:08Z</time>
      </trkpt>
      <trkpt lat="40.439733" lon="-3.765465">
        <ele>610.964</ele>
        <time>2018-08-19T20:47:10Z</time>
      </trkpt>
      <trkpt lat="40.439779" lon="-3.765478">
        <ele>610.828</ele>
        <time>2018-08-19T20:47:12Z</time>
      </trkpt>
      <trkpt lat="40.439817" lon="-3.765512">
        <ele>610.489</ele>
        <time>2018-08-19T20:47:14Z</time>
      </trkpt>
      <trkpt lat="40.439846" lon="-3.765579">
        <ele>610.217</ele>
        <time>2018-08-19T20:47:16Z</time>
      </trkpt>
      <trkpt lat="40.439875" lon="-3.765662">
        <ele>610.008</ele>
        <time>2018-08-19T20:47:18Z</time>
      </trkpt>
      <trkpt lat="40.439896" lon="-3.765735">
        <ele>610.124</ele>
        <time>2018-08-19T20:47:20Z</time>
      </trkpt>
      <trkpt lat="40.439905" lon="-3.765814">
        <ele>610.219</ele>
        <time>2018-08-19T20:47:23Z</time>
      </trkpt>
      <trkpt lat="40.439900" lon="-3.765894">
        <ele>610.499</ele>
        <time>2018-08-19T20:47:26Z</time>
      </trkpt>
      <trkpt lat="40.439891" lon="-3.765956">
        <ele>610.229</ele>
        <time>2018-08-19T20:47:28Z</time>
      </trkpt>
      <trkpt lat="40.439881" lon="-3.766017">
        <ele>610.615</ele>
        <time>2018-08-19T20:47:30Z</time>
      </trkpt>
      <trkpt lat="40.439880" lon="-3.766087">
        <ele>610.648</ele>
        <time>2018-08-19T20:47:32Z</time>
      </trkpt>
      <trkpt lat="40.439888" lon="-3.766168">
        <ele>610.557</ele>
        <time>2018-08-19T20:47:34Z</time>
      </trkpt>
      <trkpt lat="40.439899" lon="-3.766244">
        <ele>610.741</ele>
        <time>2018-08-19T20:47:36Z</time>
      </trkpt>
      <trkpt lat="40.439917" lon="-3.766322">
        <ele>610.727</ele>
        <time>2018-08-19T20:47:39Z</time>
      </trkpt>
      <trkpt lat="40.439940" lon="-3.766384">
        <ele>610.868</ele>
        <time>2018-08-19T20:47:42Z</time>
      </trkpt>
      <trkpt lat="40.439960" lon="-3.766443">
        <ele>611.014</ele>
        <time>2018-08-19T20:47:45Z</time>
      </trkpt>
      <trkpt lat="40.439979" lon="-3.766510">
        <ele>611.208</ele>
        <time>2018-08-19T20:47:48Z</time>
      </trkpt>
      <trkpt lat="40.439995" lon="-3.766572">
        <ele>611.584</ele>
        <time>2018-08-19T20:47:50Z</time>
      </trkpt>
      <trkpt lat="40.440003" lon="-3.766639">
        <ele>611.399</ele>
        <time>2018-08-19T20:47:52Z</time>
      </trkpt>
      <trkpt lat="40.440003" lon="-3.766702">
        <ele>611.239</ele>
        <time>2018-08-19T20:47:54Z</time>
      </trkpt>
      <trkpt lat="40.439994" lon="-3.766777">
        <ele>611.449</ele>
        <time>2018-08-19T20:47:57Z</time>
      </trkpt>
      <trkpt lat="40.439978" lon="-3.766859">
        <ele>611.655</ele>
        <time>2018-08-19T20:48:00Z</time>
      </trkpt>
      <trkpt lat="40.439968" lon="-3.766920">
        <ele>611.578</ele>
        <time>2018-08-19T20:48:02Z</time>
      </trkpt>
      <trkpt lat="40.439961" lon="-3.766983">
        <ele>611.637</ele>
        <time>2018-08-19T20:48:04Z</time>
      </trkpt>
      <trkpt lat="40.439951" lon="-3.767054">
        <ele>611.781</ele>
        <time>2018-08-19T20:48:06Z</time>
      </trkpt>
      <trkpt lat="40.439939" lon="-3.767128">
        <ele>611.799</ele>
        <time>2018-08-19T20:48:08Z</time>
      </trkpt>
      <trkpt lat="40.439926" lon="-3.767200">
        <ele>611.607</ele>
        <time>2018-08-19T20:48:10Z</time>
      </trkpt>
      <trkpt lat="40.439914" lon="-3.767267">
        <ele>611.727</ele>
        <time>2018-08-19T20:48:12Z</time>
      </trkpt>
      <trkpt lat="40.439898" lon="-3.767326">
        <ele>611.908</ele>
        <time>2018-08-19T20:48:14Z</time>
      </trkpt>
      <trkpt lat="40.439884" lon="-3.767384">
        <ele>611.951</ele>
        <time>2018-08-19T20:48:16Z</time>
      </trkpt>
      <trkpt lat="40.439869" lon="-3.767446">
        <ele>611.916</ele>
        <time>2018-08-19T20:48:18Z</time>
      </trkpt>
      <trkpt lat="40.439858" lon="-3.767505">
        <ele>611.966</ele>
        <time>2018-08-19T20:48:20Z</time>
      </trkpt>
      <trkpt lat="40.439847" lon="-3.767575">
        <ele>611.756</ele>
        <time>2018-08-19T20:48:23Z</time>
      </trkpt>
      <trkpt lat="40.439846" lon="-3.767637">
        <ele>611.712</ele>
        <time>2018-08-19T20:48:28Z</time>
      </trkpt>
      <trkpt lat="40.439838" lon="-3.767696">
        <ele>611.495</ele>
        <time>2018-08-19T20:49:38Z</time>
      </trkpt>
      <trkpt lat="40.439827" lon="-3.767624">
        <ele>611.854</ele>
        <time>2018-08-19T20:49:56Z</time>
      </trkpt>
      <trkpt lat="40.439840" lon="-3.767562">
        <ele>611.598</ele>
        <time>2018-08-19T20:49:59Z</time>
      </trkpt>
      <trkpt lat="40.439856" lon="-3.767491">
        <ele>611.353</ele>
        <time>2018-08-19T20:50:02Z</time>
      </trkpt>
      <trkpt lat="40.439874" lon="-3.767410">
        <ele>611.004</ele>
        <time>2018-08-19T20:50:05Z</time>
      </trkpt>
      <trkpt lat="40.439884" lon="-3.767348">
        <ele>610.914</ele>
        <time>2018-08-19T20:50:07Z</time>
      </trkpt>
      <trkpt lat="40.439893" lon="-3.767283">
        <ele>610.908</ele>
        <time>2018-08-19T20:50:09Z</time>
      </trkpt>
      <trkpt lat="40.439902" lon="-3.767213">
        <ele>610.927</ele>
        <time>2018-08-19T20:50:11Z</time>
      </trkpt>
      <trkpt lat="40.439913" lon="-3.767142">
        <ele>610.992</ele>
        <time>2018-08-19T20:50:13Z</time>
      </trkpt>
      <trkpt lat="40.439922" lon="-3.767080">
        <ele>610.822</ele>
        <time>2018-08-19T20:50:15Z</time>
      </trkpt>
      <trkpt lat="40.439934" lon="-3.767016">
        <ele>610.892</ele>
        <time>2018-08-19T20:50:17Z</time>
      </trkpt>
      <trkpt lat="40.439945" lon="-3.766951">
        <ele>610.678</ele>
        <time>2018-08-19T20:50:19Z</time>
      </trkpt>
      <trkpt lat="40.439956" lon="-3.766891">
        <ele>610.811</ele>
        <time>2018-08-19T20:50:21Z</time>
      </trkpt>
      <trkpt lat="40.439967" lon="-3.766830">
        <ele>610.640</ele>
        <time>2018-08-19T20:50:23Z</time>
      </trkpt>
      <trkpt lat="40.439974" lon="-3.766765">
        <ele>610.654</ele>
        <time>2018-08-19T20:50:25Z</time>
      </trkpt>
      <trkpt lat="40.439971" lon="-3.766700">
        <ele>610.547</ele>
        <time>2018-08-19T20:50:27Z</time>
      </trkpt>
      <trkpt lat="40.439962" lon="-3.766629">
        <ele>610.529</ele>
        <time>2018-08-19T20:50:29Z</time>
      </trkpt>
      <trkpt lat="40.439944" lon="-3.766543">
        <ele>610.421</ele>
        <time>2018-08-19T20:50:32Z</time>
      </trkpt>
      <trkpt lat="40.439932" lon="-3.766479">
        <ele>610.008</ele>
        <time>2018-08-19T20:50:34Z</time>
      </trkpt>
      <trkpt lat="40.439920" lon="-3.766407">
        <ele>610.026</ele>
        <time>2018-08-19T20:50:36Z</time>
      </trkpt>
      <trkpt lat="40.439914" lon="-3.766338">
        <ele>610.041</ele>
        <time>2018-08-19T20:50:38Z</time>
      </trkpt>
      <trkpt lat="40.439913" lon="-3.766270">
        <ele>609.981</ele>
        <time>2018-08-19T20:50:40Z</time>
      </trkpt>
      <trkpt lat="40.439917" lon="-3.766206">
        <ele>609.811</ele>
        <time>2018-08-19T20:50:42Z</time>
      </trkpt>
      <trkpt lat="40.439933" lon="-3.766118">
        <ele>610.047</ele>
        <time>2018-08-19T20:50:44Z</time>
      </trkpt>
      <trkpt lat="40.439953" lon="-3.766031">
        <ele>610.050</ele>
        <time>2018-08-19T20:50:46Z</time>
      </trkpt>
      <trkpt lat="40.439969" lon="-3.765958">
        <ele>610.069</ele>
        <time>2018-08-19T20:50:48Z</time>
      </trkpt>
      <trkpt lat="40.439975" lon="-3.765883">
        <ele>610.113</ele>
        <time>2018-08-19T20:50:50Z</time>
      </trkpt>
      <trkpt lat="40.439971" lon="-3.765817">
        <ele>610.394</ele>
        <time>2018-08-19T20:50:52Z</time>
      </trkpt>
      <trkpt lat="40.439959" lon="-3.765737">
        <ele>611.057</ele>
        <time>2018-08-19T20:50:55Z</time>
      </trkpt>
      <trkpt lat="40.439948" lon="-3.765662">
        <ele>610.022</ele>
        <time>2018-08-19T20:50:58Z</time>
      </trkpt>
      <trkpt lat="40.439940" lon="-3.765603">
        <ele>609.808</ele>
        <time>2018-08-19T20:51:00Z</time>
      </trkpt>
      <trkpt lat="40.439935" lon="-3.765535">
        <ele>609.481</ele>
        <time>2018-08-19T20:51:02Z</time>
      </trkpt>
      <trkpt lat="40.439943" lon="-3.765469">
        <ele>609.326</ele>
        <time>2018-08-19T20:51:04Z</time>
      </trkpt>
      <trkpt lat="40.439965" lon="-3.765397">
        <ele>609.096</ele>
        <time>2018-08-19T20:51:06Z</time>
      </trkpt>
      <trkpt lat="40.439987" lon="-3.765305">
        <ele>608.876</ele>
        <time>2018-08-19T20:51:08Z</time>
      </trkpt>
      <trkpt lat="40.440004" lon="-3.765203">
        <ele>608.782</ele>
        <time>2018-08-19T20:51:10Z</time>
      </trkpt>
      <trkpt lat="40.440013" lon="-3.765100">
        <ele>608.765</ele>
        <time>2018-08-19T20:51:12Z</time>
      </trkpt>
      <trkpt lat="40.440017" lon="-3.765001">
        <ele>608.534</ele>
        <time>2018-08-19T20:51:14Z</time>
      </trkpt>
      <trkpt lat="40.440020" lon="-3.764909">
        <ele>608.648</ele>
        <time>2018-08-19T20:51:16Z</time>
      </trkpt>
      <trkpt lat="40.440020" lon="-3.764816">
        <ele>608.476</ele>
        <time>2018-08-19T20:51:18Z</time>
      </trkpt>
      <trkpt lat="40.440020" lon="-3.764726">
        <ele>607.990</ele>
        <time>2018-08-19T20:51:20Z</time>
      </trkpt>
      <trkpt lat="40.440021" lon="-3.764630">
        <ele>607.319</ele>
        <time>2018-08-19T20:51:22Z</time>
      </trkpt>
      <trkpt lat="40.440026" lon="-3.764532">
        <ele>607.108</ele>
        <time>2018-08-19T20:51:24Z</time>
      </trkpt>
      <trkpt lat="40.440040" lon="-3.764431">
        <ele>607.189</ele>
        <time>2018-08-19T20:51:26Z</time>
      </trkpt>
      <trkpt lat="40.440061" lon="-3.764337">
        <ele>607.364</ele>
        <time>2018-08-19T20:51:28Z</time>
      </trkpt>
      <trkpt lat="40.440085" lon="-3.764247">
        <ele>607.254</ele>
        <time>2018-08-19T20:51:30Z</time>
      </trkpt>
      <trkpt lat="40.440112" lon="-3.764158">
        <ele>607.244</ele>
        <time>2018-08-19T20:51:32Z</time>
      </trkpt>
      <trkpt lat="40.440137" lon="-3.764086">
        <ele>607.180</ele>
        <time>2018-08-19T20:51:34Z</time>
      </trkpt>
      <trkpt lat="40.440164" lon="-3.764017">
        <ele>607.433</ele>
        <time>2018-08-19T20:51:36Z</time>
      </trkpt>
      <trkpt lat="40.440196" lon="-3.763943">
        <ele>607.552</ele>
        <time>2018-08-19T20:51:38Z</time>
      </trkpt>
      <trkpt lat="40.440225" lon="-3.763874">
        <ele>607.726</ele>
        <time>2018-08-19T20:51:40Z</time>
      </trkpt>
      <trkpt lat="40.440255" lon="-3.763803">
        <ele>607.297</ele>
        <time>2018-08-19T20:51:42Z</time>
      </trkpt>
      <trkpt lat="40.440288" lon="-3.763729">
        <ele>606.523</ele>
        <time>2018-08-19T20:51:44Z</time>
      </trkpt>
      <trkpt lat="40.440325" lon="-3.763651">
        <ele>606.425</ele>
        <time>2018-08-19T20:51:46Z</time>
      </trkpt>
      <trkpt lat="40.440383" lon="-3.763522">
        <ele>605.908</ele>
        <time>2018-08-19T20:51:47Z</time>
      </trkpt>
      <trkpt lat="40.440426" lon="-3.763418">
        <ele>605.561</ele>
        <time>2018-08-19T20:51:49Z</time>
      </trkpt>
      <trkpt lat="40.440446" lon="-3.763308">
        <ele>605.246</ele>
        <time>2018-08-19T20:51:51Z</time>
      </trkpt>
      <trkpt lat="40.440450" lon="-3.763225">
        <ele>605.376</ele>
        <time>2018-08-19T20:51:53Z</time>
      </trkpt>
      <trkpt lat="40.440454" lon="-3.763162">
        <ele>605.316</ele>
        <time>2018-08-19T20:51:55Z</time>
      </trkpt>
      <trkpt lat="40.440474" lon="-3.763076">
        <ele>605.222</ele>
        <time>2018-08-19T20:51:58Z</time>
      </trkpt>
      <trkpt lat="40.440504" lon="-3.763005">
        <ele>605.155</ele>
        <time>2018-08-19T20:52:00Z</time>
      </trkpt>
      <trkpt lat="40.440537" lon="-3.762935">
        <ele>605.244</ele>
        <time>2018-08-19T20:52:02Z</time>
      </trkpt>
      <trkpt lat="40.440567" lon="-3.762865">
        <ele>605.298</ele>
        <time>2018-08-19T20:52:04Z</time>
      </trkpt>
      <trkpt lat="40.440648" lon="-3.762721">
        <ele>605.212</ele>
        <time>2018-08-19T20:52:06Z</time>
      </trkpt>
      <trkpt lat="40.440688" lon="-3.762654">
        <ele>605.732</ele>
        <time>2018-08-19T20:52:09Z</time>
      </trkpt>
      <trkpt lat="40.440725" lon="-3.762591">
        <ele>605.905</ele>
        <time>2018-08-19T20:52:11Z</time>
      </trkpt>
      <trkpt lat="40.440757" lon="-3.762523">
        <ele>606.208</ele>
        <time>2018-08-19T20:52:13Z</time>
      </trkpt>
      <trkpt lat="40.440777" lon="-3.762462">
        <ele>606.643</ele>
        <time>2018-08-19T20:52:15Z</time>
      </trkpt>
      <trkpt lat="40.440780" lon="-3.762385">
        <ele>607.098</ele>
        <time>2018-08-19T20:52:18Z</time>
      </trkpt>
      <trkpt lat="40.440760" lon="-3.762296">
        <ele>607.288</ele>
        <time>2018-08-19T20:52:21Z</time>
      </trkpt>
      <trkpt lat="40.440737" lon="-3.762231">
        <ele>607.758</ele>
        <time>2018-08-19T20:52:23Z</time>
      </trkpt>
      <trkpt lat="40.440710" lon="-3.762164">
        <ele>607.954</ele>
        <time>2018-08-19T20:52:25Z</time>
      </trkpt>
      <trkpt lat="40.440682" lon="-3.762093">
        <ele>608.127</ele>
        <time>2018-08-19T20:52:27Z</time>
      </trkpt>
      <trkpt lat="40.440660" lon="-3.762026">
        <ele>608.176</ele>
        <time>2018-08-19T20:52:29Z</time>
      </trkpt>
      <trkpt lat="40.440648" lon="-3.761967">
        <ele>608.370</ele>
        <time>2018-08-19T20:52:31Z</time>
      </trkpt>
      <trkpt lat="40.440643" lon="-3.761885">
        <ele>608.647</ele>
        <time>2018-08-19T20:52:34Z</time>
      </trkpt>
      <trkpt lat="40.440654" lon="-3.761805">
        <ele>608.929</ele>
        <time>2018-08-19T20:52:37Z</time>
      </trkpt>
      <trkpt lat="40.440674" lon="-3.761738">
        <ele>608.821</ele>
        <time>2018-08-19T20:52:39Z</time>
      </trkpt>
      <trkpt lat="40.440703" lon="-3.761658">
        <ele>608.508</ele>
        <time>2018-08-19T20:52:41Z</time>
      </trkpt>
      <trkpt lat="40.440739" lon="-3.761573">
        <ele>608.776</ele>
        <time>2018-08-19T20:52:43Z</time>
      </trkpt>
      <trkpt lat="40.440774" lon="-3.761493">
        <ele>608.441</ele>
        <time>2018-08-19T20:52:45Z</time>
      </trkpt>
      <trkpt lat="40.440808" lon="-3.761415">
        <ele>608.291</ele>
        <time>2018-08-19T20:52:47Z</time>
      </trkpt>
      <trkpt lat="40.440842" lon="-3.761335">
        <ele>608.221</ele>
        <time>2018-08-19T20:52:49Z</time>
      </trkpt>
      <trkpt lat="40.440874" lon="-3.761255">
        <ele>608.197</ele>
        <time>2018-08-19T20:52:51Z</time>
      </trkpt>
      <trkpt lat="40.440901" lon="-3.761184">
        <ele>608.230</ele>
        <time>2018-08-19T20:52:53Z</time>
      </trkpt>
      <trkpt lat="40.440925" lon="-3.761115">
        <ele>608.159</ele>
        <time>2018-08-19T20:52:55Z</time>
      </trkpt>
      <trkpt lat="40.440948" lon="-3.761044">
        <ele>608.223</ele>
        <time>2018-08-19T20:52:57Z</time>
      </trkpt>
      <trkpt lat="40.440971" lon="-3.760966">
        <ele>608.184</ele>
        <time>2018-08-19T20:52:59Z</time>
      </trkpt>
      <trkpt lat="40.440992" lon="-3.760888">
        <ele>608.007</ele>
        <time>2018-08-19T20:53:01Z</time>
      </trkpt>
      <trkpt lat="40.441009" lon="-3.760810">
        <ele>607.917</ele>
        <time>2018-08-19T20:53:03Z</time>
      </trkpt>
      <trkpt lat="40.441023" lon="-3.760734">
        <ele>607.608</ele>
        <time>2018-08-19T20:53:05Z</time>
      </trkpt>
      <trkpt lat="40.441031" lon="-3.760666">
        <ele>607.760</ele>
        <time>2018-08-19T20:53:07Z</time>
      </trkpt>
      <trkpt lat="40.441028" lon="-3.760601">
        <ele>607.755</ele>
        <time>2018-08-19T20:53:09Z</time>
      </trkpt>
      <trkpt lat="40.441014" lon="-3.760534">
        <ele>607.935</ele>
        <time>2018-08-19T20:53:11Z</time>
      </trkpt>
      <trkpt lat="40.440994" lon="-3.760465">
        <ele>608.075</ele>
        <time>2018-08-19T20:53:13Z</time>
      </trkpt>
      <trkpt lat="40.440974" lon="-3.760391">
        <ele>608.111</ele>
        <time>2018-08-19T20:53:15Z</time>
      </trkpt>
      <trkpt lat="40.440957" lon="-3.760315">
        <ele>608.144</ele>
        <time>2018-08-19T20:53:17Z</time>
      </trkpt>
      <trkpt lat="40.440953" lon="-3.760250">
        <ele>608.083</ele>
        <time>2018-08-19T20:53:19Z</time>
      </trkpt>
      <trkpt lat="40.440964" lon="-3.760184">
        <ele>608.067</ele>
        <time>2018-08-19T20:53:21Z</time>
      </trkpt>
      <trkpt lat="40.440984" lon="-3.760112">
        <ele>607.835</ele>
        <time>2018-08-19T20:53:22Z</time>
      </trkpt>
      <trkpt lat="40.441006" lon="-3.760038">
        <ele>607.786</ele>
        <time>2018-08-19T20:53:24Z</time>
      </trkpt>
      <trkpt lat="40.441035" lon="-3.759960">
        <ele>607.514</ele>
        <time>2018-08-19T20:53:26Z</time>
      </trkpt>
      <trkpt lat="40.441073" lon="-3.759881">
        <ele>607.208</ele>
        <time>2018-08-19T20:53:28Z</time>
      </trkpt>
      <trkpt lat="40.441114" lon="-3.759808">
        <ele>607.215</ele>
        <time>2018-08-19T20:53:30Z</time>
      </trkpt>
      <trkpt lat="40.441206" lon="-3.759668">
        <ele>607.110</ele>
        <time>2018-08-19T20:53:32Z</time>
      </trkpt>
      <trkpt lat="40.441243" lon="-3.759610">
        <ele>606.740</ele>
        <time>2018-08-19T20:53:34Z</time>
      </trkpt>
      <trkpt lat="40.441296" lon="-3.759516">
        <ele>606.620</ele>
        <time>2018-08-19T20:53:36Z</time>
      </trkpt>
      <trkpt lat="40.441340" lon="-3.759420">
        <ele>606.556</ele>
        <time>2018-08-19T20:53:38Z</time>
      </trkpt>
      <trkpt lat="40.441359" lon="-3.759348">
        <ele>606.299</ele>
        <time>2018-08-19T20:53:40Z</time>
      </trkpt>
      <trkpt lat="40.441370" lon="-3.759287">
        <ele>606.248</ele>
        <time>2018-08-19T20:53:42Z</time>
      </trkpt>
      <trkpt lat="40.441383" lon="-3.759212">
        <ele>605.982</ele>
        <time>2018-08-19T20:53:44Z</time>
      </trkpt>
      <trkpt lat="40.441394" lon="-3.759137">
        <ele>605.943</ele>
        <time>2018-08-19T20:53:46Z</time>
      </trkpt>
      <trkpt lat="40.441401" lon="-3.759061">
        <ele>605.964</ele>
        <time>2018-08-19T20:53:48Z</time>
      </trkpt>
      <trkpt lat="40.441406" lon="-3.758981">
        <ele>605.910</ele>
        <time>2018-08-19T20:53:50Z</time>
      </trkpt>
      <trkpt lat="40.441413" lon="-3.758909">
        <ele>605.908</ele>
        <time>2018-08-19T20:53:52Z</time>
      </trkpt>
      <trkpt lat="40.441419" lon="-3.758842">
        <ele>606.336</ele>
        <time>2018-08-19T20:53:54Z</time>
      </trkpt>
      <trkpt lat="40.441425" lon="-3.758783">
        <ele>605.931</ele>
        <time>2018-08-19T20:53:56Z</time>
      </trkpt>
      <trkpt lat="40.441441" lon="-3.758702">
        <ele>606.051</ele>
        <time>2018-08-19T20:53:59Z</time>
      </trkpt>
      <trkpt lat="40.441472" lon="-3.758635">
        <ele>605.691</ele>
        <time>2018-08-19T20:54:02Z</time>
      </trkpt>
      <trkpt lat="40.441536" lon="-3.758588">
        <ele>605.047</ele>
        <time>2018-08-19T20:54:05Z</time>
      </trkpt>
      <trkpt lat="40.441591" lon="-3.758560">
        <ele>604.860</ele>
        <time>2018-08-19T20:54:07Z</time>
      </trkpt>
      <trkpt lat="40.441641" lon="-3.758535">
        <ele>604.689</ele>
        <time>2018-08-19T20:54:09Z</time>
      </trkpt>
      <trkpt lat="40.441688" lon="-3.758503">
        <ele>604.343</ele>
        <time>2018-08-19T20:54:11Z</time>
      </trkpt>
      <trkpt lat="40.441739" lon="-3.758465">
        <ele>604.326</ele>
        <time>2018-08-19T20:54:13Z</time>
      </trkpt>
      <trkpt lat="40.441791" lon="-3.758418">
        <ele>604.047</ele>
        <time>2018-08-19T20:54:15Z</time>
      </trkpt>
      <trkpt lat="40.441845" lon="-3.758361">
        <ele>603.611</ele>
        <time>2018-08-19T20:54:17Z</time>
      </trkpt>
      <trkpt lat="40.441894" lon="-3.758294">
        <ele>602.908</ele>
        <time>2018-08-19T20:54:19Z</time>
      </trkpt>
      <trkpt lat="40.441939" lon="-3.758217">
        <ele>602.144</ele>
        <time>2018-08-19T20:54:21Z</time>
      </trkpt>
      <trkpt lat="40.441981" lon="-3.758130">
        <ele>601.779</ele>
        <time>2018-08-19T20:54:23Z</time>
      </trkpt>
      <trkpt lat="40.442020" lon="-3.758045">
        <ele>601.059</ele>
        <time>2018-08-19T20:54:25Z</time>
      </trkpt>
      <trkpt lat="40.442054" lon="-3.757965">
        <ele>600.589</ele>
        <time>2018-08-19T20:54:27Z</time>
      </trkpt>
      <trkpt lat="40.442078" lon="-3.757900">
        <ele>600.455</ele>
        <time>2018-08-19T20:54:29Z</time>
      </trkpt>
      <trkpt lat="40.442096" lon="-3.757827">
        <ele>600.058</ele>
        <time>2018-08-19T20:54:32Z</time>
      </trkpt>
      <trkpt lat="40.442114" lon="-3.757746">
        <ele>599.827</ele>
        <time>2018-08-19T20:54:35Z</time>
      </trkpt>
      <trkpt lat="40.442139" lon="-3.757666">
        <ele>599.671</ele>
        <time>2018-08-19T20:54:38Z</time>
      </trkpt>
      <trkpt lat="40.442163" lon="-3.757616">
        <ele>599.891</ele>
        <time>2018-08-19T20:54:40Z</time>
      </trkpt>
      <trkpt lat="40.442202" lon="-3.757548">
        <ele>599.581</ele>
        <time>2018-08-19T20:54:43Z</time>
      </trkpt>
      <trkpt lat="40.442241" lon="-3.757510">
        <ele>599.619</ele>
        <time>2018-08-19T20:54:46Z</time>
      </trkpt>
      <trkpt lat="40.442290" lon="-3.757478">
        <ele>599.608</ele>
        <time>2018-08-19T20:54:49Z</time>
      </trkpt>
      <trkpt lat="40.442346" lon="-3.757432">
        <ele>599.181</ele>
        <time>2018-08-19T20:54:52Z</time>
      </trkpt>
      <trkpt lat="40.442378" lon="-3.757383">
        <ele>598.996</ele>
        <time>2018-08-19T20:54:54Z</time>
      </trkpt>
      <trkpt lat="40.442402" lon="-3.757327">
        <ele>598.936</ele>
        <time>2018-08-19T20:54:56Z</time>
      </trkpt>
      <trkpt lat="40.442422" lon="-3.757267">
        <ele>598.846</ele>
        <time>2018-08-19T20:54:58Z</time>
      </trkpt>
      <trkpt lat="40.442443" lon="-3.757186">
        <ele>599.292</ele>
        <time>2018-08-19T20:55:01Z</time>
      </trkpt>
      <trkpt lat="40.442459" lon="-3.757101">
        <ele>598.915</ele>
        <time>2018-08-19T20:55:04Z</time>
      </trkpt>
      <trkpt lat="40.442470" lon="-3.757036">
        <ele>598.744</ele>
        <time>2018-08-19T20:55:06Z</time>
      </trkpt>
      <trkpt lat="40.442483" lon="-3.756970">
        <ele>598.838</ele>
        <time>2018-08-19T20:55:08Z</time>
      </trkpt>
      <trkpt lat="40.442499" lon="-3.756903">
        <ele>598.775</ele>
        <time>2018-08-19T20:55:10Z</time>
      </trkpt>
      <trkpt lat="40.442513" lon="-3.756837">
        <ele>598.828</ele>
        <time>2018-08-19T20:55:12Z</time>
      </trkpt>
      <trkpt lat="40.442524" lon="-3.756775">
        <ele>598.820</ele>
        <time>2018-08-19T20:55:14Z</time>
      </trkpt>
      <trkpt lat="40.442541" lon="-3.756717">
        <ele>598.808</ele>
        <time>2018-08-19T20:55:16Z</time>
      </trkpt>
      <trkpt lat="40.442562" lon="-3.756656">
        <ele>598.599</ele>
        <time>2018-08-19T20:55:18Z</time>
      </trkpt>
      <trkpt lat="40.442582" lon="-3.756590">
        <ele>598.174</ele>
        <time>2018-08-19T20:55:20Z</time>
      </trkpt>
      <trkpt lat="40.442604" lon="-3.756521">
        <ele>598.074</ele>
        <time>2018-08-19T20:55:22Z</time>
      </trkpt>
      <trkpt lat="40.442624" lon="-3.756453">
        <ele>597.524</ele>
        <time>2018-08-19T20:55:24Z</time>
      </trkpt>
      <trkpt lat="40.442648" lon="-3.756378">
        <ele>597.110</ele>
        <time>2018-08-19T20:55:26Z</time>
      </trkpt>
      <trkpt lat="40.442674" lon="-3.756302">
        <ele>597.123</ele>
        <time>2018-08-19T20:55:28Z</time>
      </trkpt>
      <trkpt lat="40.442707" lon="-3.756236">
        <ele>596.952</ele>
        <time>2018-08-19T20:55:30Z</time>
      </trkpt>
      <trkpt lat="40.442744" lon="-3.756198">
        <ele>597.256</ele>
        <time>2018-08-19T20:55:32Z</time>
      </trkpt>
      <trkpt lat="40.442790" lon="-3.756191">
        <ele>597.256</ele>
        <time>2018-08-19T20:55:35Z</time>
      </trkpt>
      <trkpt lat="40.442834" lon="-3.756226">
        <ele>597.259</ele>
        <time>2018-08-19T20:55:38Z</time>
      </trkpt>
      <trkpt lat="40.442883" lon="-3.756293">
        <ele>596.514</ele>
        <time>2018-08-19T20:55:41Z</time>
      </trkpt>
      <trkpt lat="40.442918" lon="-3.756348">
        <ele>596.808</ele>
        <time>2018-08-19T20:55:43Z</time>
      </trkpt>
      <trkpt lat="40.442949" lon="-3.756395">
        <ele>596.917</ele>
        <time>2018-08-19T20:55:45Z</time>
      </trkpt>
      <trkpt lat="40.442985" lon="-3.756440">
        <ele>597.162</ele>
        <time>2018-08-19T20:55:48Z</time>
      </trkpt>
      <trkpt lat="40.443022" lon="-3.756482">
        <ele>597.462</ele>
        <time>2018-08-19T20:55:56Z</time>
      </trkpt>
      <trkpt lat="40.443049" lon="-3.756535">
        <ele>597.812</ele>
        <time>2018-08-19T20:56:03Z</time>
      </trkpt>
      <trkpt lat="40.443083" lon="-3.756590">
        <ele>598.768</ele>
        <time>2018-08-19T20:56:08Z</time>
      </trkpt>
      <trkpt lat="40.443113" lon="-3.756637">
        <ele>599.421</ele>
        <time>2018-08-19T20:56:14Z</time>
      </trkpt>
      <trkpt lat="40.443141" lon="-3.756685">
        <ele>599.880</ele>
        <time>2018-08-19T20:56:18Z</time>
      </trkpt>
      <trkpt lat="40.443168" lon="-3.756742">
        <ele>600.254</ele>
        <time>2018-08-19T20:56:24Z</time>
      </trkpt>
      <trkpt lat="40.443193" lon="-3.756805">
        <ele>600.587</ele>
        <time>2018-08-19T20:56:30Z</time>
      </trkpt>
      <trkpt lat="40.443215" lon="-3.756863">
        <ele>600.842</ele>
        <time>2018-08-19T20:56:35Z</time>
      </trkpt>
      <trkpt lat="40.443240" lon="-3.756917">
        <ele>601.526</ele>
        <time>2018-08-19T20:56:40Z</time>
      </trkpt>
      <trkpt lat="40.443268" lon="-3.756964">
        <ele>601.508</ele>
        <time>2018-08-19T20:56:44Z</time>
      </trkpt>
      <trkpt lat="40.443298" lon="-3.757011">
        <ele>601.780</ele>
        <time>2018-08-19T20:56:48Z</time>
      </trkpt>
      <trkpt lat="40.443329" lon="-3.757064">
        <ele>602.075</ele>
        <time>2018-08-19T20:56:55Z</time>
      </trkpt>
      <trkpt lat="40.443365" lon="-3.757119">
        <ele>602.285</ele>
        <time>2018-08-19T20:57:01Z</time>
      </trkpt>
      <trkpt lat="40.443397" lon="-3.757170">
        <ele>602.525</ele>
        <time>2018-08-19T20:57:06Z</time>
      </trkpt>
      <trkpt lat="40.443424" lon="-3.757219">
        <ele>603.051</ele>
        <time>2018-08-19T20:57:11Z</time>
      </trkpt>
      <trkpt lat="40.443447" lon="-3.757276">
        <ele>603.214</ele>
        <time>2018-08-19T20:57:18Z</time>
      </trkpt>
      <trkpt lat="40.443476" lon="-3.757335">
        <ele>604.353</ele>
        <time>2018-08-19T20:57:25Z</time>
      </trkpt>
      <trkpt lat="40.443506" lon="-3.757380">
        <ele>604.827</ele>
        <time>2018-08-19T20:57:30Z</time>
      </trkpt>
      <trkpt lat="40.443537" lon="-3.757423">
        <ele>605.365</ele>
        <time>2018-08-19T20:57:35Z</time>
      </trkpt>
      <trkpt lat="40.443568" lon="-3.757467">
        <ele>606.168</ele>
        <time>2018-08-19T20:57:39Z</time>
      </trkpt>
      <trkpt lat="40.443603" lon="-3.757518">
        <ele>606.414</ele>
        <time>2018-08-19T20:57:44Z</time>
      </trkpt>
      <trkpt lat="40.443618" lon="-3.757574">
        <ele>607.408</ele>
        <time>2018-08-19T20:57:52Z</time>
      </trkpt>
      <trkpt lat="40.443640" lon="-3.757631">
        <ele>608.438</ele>
        <time>2018-08-19T20:58:01Z</time>
      </trkpt>
      <trkpt lat="40.443664" lon="-3.757690">
        <ele>609.273</ele>
        <time>2018-08-19T20:58:07Z</time>
      </trkpt>
      <trkpt lat="40.443689" lon="-3.757740">
        <ele>609.613</ele>
        <time>2018-08-19T20:58:11Z</time>
      </trkpt>
      <trkpt lat="40.443720" lon="-3.757785">
        <ele>610.333</ele>
        <time>2018-08-19T20:58:17Z</time>
      </trkpt>
      <trkpt lat="40.443732" lon="-3.757844">
        <ele>611.659</ele>
        <time>2018-08-19T20:58:26Z</time>
      </trkpt>
      <trkpt lat="40.443746" lon="-3.757904">
        <ele>612.272</ele>
        <time>2018-08-19T20:58:33Z</time>
      </trkpt>
      <trkpt lat="40.443766" lon="-3.757960">
        <ele>612.811</ele>
        <time>2018-08-19T20:58:39Z</time>
      </trkpt>
      <trkpt lat="40.443785" lon="-3.758021">
        <ele>613.025</ele>
        <time>2018-08-19T20:58:47Z</time>
      </trkpt>
      <trkpt lat="40.443803" lon="-3.758080">
        <ele>613.597</ele>
        <time>2018-08-19T20:58:55Z</time>
      </trkpt>
      <trkpt lat="40.443825" lon="-3.758146">
        <ele>613.623</ele>
        <time>2018-08-19T20:59:03Z</time>
      </trkpt>
      <trkpt lat="40.443837" lon="-3.758204">
        <ele>613.625</ele>
        <time>2018-08-19T20:59:11Z</time>
      </trkpt>
      <trkpt lat="40.443840" lon="-3.758270">
        <ele>613.908</ele>
        <time>2018-08-19T20:59:17Z</time>
      </trkpt>
      <trkpt lat="40.443858" lon="-3.758336">
        <ele>614.181</ele>
        <time>2018-08-19T20:59:20Z</time>
      </trkpt>
      <trkpt lat="40.443883" lon="-3.758414">
        <ele>614.236</ele>
        <time>2018-08-19T20:59:23Z</time>
      </trkpt>
      <trkpt lat="40.443902" lon="-3.758470">
        <ele>614.446</ele>
        <time>2018-08-19T20:59:25Z</time>
      </trkpt>
      <trkpt lat="40.443924" lon="-3.758531">
        <ele>614.276</ele>
        <time>2018-08-19T20:59:27Z</time>
      </trkpt>
      <trkpt lat="40.443947" lon="-3.758590">
        <ele>614.442</ele>
        <time>2018-08-19T20:59:29Z</time>
      </trkpt>
      <trkpt lat="40.443969" lon="-3.758651">
        <ele>614.675</ele>
        <time>2018-08-19T20:59:31Z</time>
      </trkpt>
      <trkpt lat="40.443989" lon="-3.758715">
        <ele>614.994</ele>
        <time>2018-08-19T20:59:33Z</time>
      </trkpt>
      <trkpt lat="40.444010" lon="-3.758779">
        <ele>615.358</ele>
        <time>2018-08-19T20:59:35Z</time>
      </trkpt>
      <trkpt lat="40.444026" lon="-3.758835">
        <ele>615.633</ele>
        <time>2018-08-19T20:59:37Z</time>
      </trkpt>
      <trkpt lat="40.444043" lon="-3.758918">
        <ele>615.423</ele>
        <time>2018-08-19T20:59:40Z</time>
      </trkpt>
      <trkpt lat="40.444054" lon="-3.758996">
        <ele>615.515</ele>
        <time>2018-08-19T20:59:43Z</time>
      </trkpt>
      <trkpt lat="40.444065" lon="-3.759076">
        <ele>615.608</ele>
        <time>2018-08-19T20:59:46Z</time>
      </trkpt>
      <trkpt lat="40.444077" lon="-3.759135">
        <ele>615.565</ele>
        <time>2018-08-19T20:59:48Z</time>
      </trkpt>
      <trkpt lat="40.444094" lon="-3.759191">
        <ele>615.780</ele>
        <time>2018-08-19T20:59:50Z</time>
      </trkpt>
      <trkpt lat="40.444127" lon="-3.759258">
        <ele>616.110</ele>
        <time>2018-08-19T20:59:53Z</time>
      </trkpt>
      <trkpt lat="40.444160" lon="-3.759300">
        <ele>616.380</ele>
        <time>2018-08-19T20:59:55Z</time>
      </trkpt>
      <trkpt lat="40.444197" lon="-3.759342">
        <ele>616.576</ele>
        <time>2018-08-19T20:59:57Z</time>
      </trkpt>
      <trkpt lat="40.444239" lon="-3.759390">
        <ele>617.139</ele>
        <time>2018-08-19T20:59:59Z</time>
      </trkpt>
      <trkpt lat="40.444273" lon="-3.759435">
        <ele>617.378</ele>
        <time>2018-08-19T21:00:01Z</time>
      </trkpt>
      <trkpt lat="40.444309" lon="-3.759503">
        <ele>617.562</ele>
        <time>2018-08-19T21:00:04Z</time>
      </trkpt>
      <trkpt lat="40.444335" lon="-3.759576">
        <ele>618.034</ele>
        <time>2018-08-19T21:00:07Z</time>
      </trkpt>
      <trkpt lat="40.444354" lon="-3.759631">
        <ele>617.855</ele>
        <time>2018-08-19T21:00:09Z</time>
      </trkpt>
      <trkpt lat="40.444374" lon="-3.759687">
        <ele>617.910</ele>
        <time>2018-08-19T21:00:11Z</time>
      </trkpt>
      <trkpt lat="40.444399" lon="-3.759765">
        <ele>617.908</ele>
        <time>2018-08-19T21:00:14Z</time>
      </trkpt>
      <trkpt lat="40.444417" lon="-3.759821">
        <ele>618.045</ele>
        <time>2018-08-19T21:00:16Z</time>
      </trkpt>
      <trkpt lat="40.444446" lon="-3.759898">
        <ele>617.830</ele>
        <time>2018-08-19T21:00:19Z</time>
      </trkpt>
      <trkpt lat="40.444476" lon="-3.759976">
        <ele>617.880</ele>
        <time>2018-08-19T21:00:22Z</time>
      </trkpt>
      <trkpt lat="40.444500" lon="-3.760049">
        <ele>618.120</ele>
        <time>2018-08-19T21:00:25Z</time>
      </trkpt>
      <trkpt lat="40.444528" lon="-3.760127">
        <ele>618.266</ele>
        <time>2018-08-19T21:00:28Z</time>
      </trkpt>
      <trkpt lat="40.444559" lon="-3.760202">
        <ele>618.359</ele>
        <time>2018-08-19T21:00:31Z</time>
      </trkpt>
      <trkpt lat="40.444584" lon="-3.760256">
        <ele>618.318</ele>
        <time>2018-08-19T21:00:33Z</time>
      </trkpt>
      <trkpt lat="40.444613" lon="-3.760317">
        <ele>618.152</ele>
        <time>2018-08-19T21:00:35Z</time>
      </trkpt>
      <trkpt lat="40.444642" lon="-3.760380">
        <ele>618.196</ele>
        <time>2018-08-19T21:00:37Z</time>
      </trkpt>
      <trkpt lat="40.444671" lon="-3.760443">
        <ele>617.731</ele>
        <time>2018-08-19T21:00:39Z</time>
      </trkpt>
      <trkpt lat="40.444701" lon="-3.760505">
        <ele>617.724</ele>
        <time>2018-08-19T21:00:41Z</time>
      </trkpt>
      <trkpt lat="40.444725" lon="-3.760565">
        <ele>617.408</ele>
        <time>2018-08-19T21:00:43Z</time>
      </trkpt>
      <trkpt lat="40.444743" lon="-3.760627">
        <ele>617.461</ele>
        <time>2018-08-19T21:00:45Z</time>
      </trkpt>
      <trkpt lat="40.444757" lon="-3.760692">
        <ele>617.616</ele>
        <time>2018-08-19T21:00:47Z</time>
      </trkpt>
      <trkpt lat="40.444775" lon="-3.760757">
        <ele>617.586</ele>
        <time>2018-08-19T21:00:49Z</time>
      </trkpt>
      <trkpt lat="40.444801" lon="-3.760819">
        <ele>617.886</ele>
        <time>2018-08-19T21:00:51Z</time>
      </trkpt>
      <trkpt lat="40.444832" lon="-3.760884">
        <ele>617.852</ele>
        <time>2018-08-19T21:00:53Z</time>
      </trkpt>
      <trkpt lat="40.444866" lon="-3.760966">
        <ele>617.985</ele>
        <time>2018-08-19T21:00:55Z</time>
      </trkpt>
      <trkpt lat="40.444895" lon="-3.761051">
        <ele>617.964</ele>
        <time>2018-08-19T21:00:57Z</time>
      </trkpt>
      <trkpt lat="40.444923" lon="-3.761138">
        <ele>618.018</ele>
        <time>2018-08-19T21:00:59Z</time>
      </trkpt>
      <trkpt lat="40.444952" lon="-3.761225">
        <ele>618.269</ele>
        <time>2018-08-19T21:01:01Z</time>
      </trkpt>
      <trkpt lat="40.444982" lon="-3.761309">
        <ele>618.404</ele>
        <time>2018-08-19T21:01:03Z</time>
      </trkpt>
      <trkpt lat="40.445011" lon="-3.761385">
        <ele>618.224</ele>
        <time>2018-08-19T21:01:05Z</time>
      </trkpt>
      <trkpt lat="40.445039" lon="-3.761457">
        <ele>618.508</ele>
        <time>2018-08-19T21:01:07Z</time>
      </trkpt>
      <trkpt lat="40.445064" lon="-3.761522">
        <ele>618.668</ele>
        <time>2018-08-19T21:01:09Z</time>
      </trkpt>
      <trkpt lat="40.445081" lon="-3.761578">
        <ele>618.333</ele>
        <time>2018-08-19T21:01:11Z</time>
      </trkpt>
      <trkpt lat="40.445098" lon="-3.761642">
        <ele>618.563</ele>
        <time>2018-08-19T21:01:13Z</time>
      </trkpt>
      <trkpt lat="40.445113" lon="-3.761702">
        <ele>618.853</ele>
        <time>2018-08-19T21:01:15Z</time>
      </trkpt>
      <trkpt lat="40.445130" lon="-3.761762">
        <ele>618.899</ele>
        <time>2018-08-19T21:01:17Z</time>
      </trkpt>
      <trkpt lat="40.445157" lon="-3.761830">
        <ele>618.912</ele>
        <time>2018-08-19T21:01:19Z</time>
      </trkpt>
      <trkpt lat="40.445187" lon="-3.761899">
        <ele>618.991</ele>
        <time>2018-08-19T21:01:21Z</time>
      </trkpt>
      <trkpt lat="40.445219" lon="-3.761976">
        <ele>619.045</ele>
        <time>2018-08-19T21:01:23Z</time>
      </trkpt>
      <trkpt lat="40.445255" lon="-3.762057">
        <ele>619.237</ele>
        <time>2018-08-19T21:01:25Z</time>
      </trkpt>
      <trkpt lat="40.445293" lon="-3.762134">
        <ele>619.149</ele>
        <time>2018-08-19T21:01:27Z</time>
      </trkpt>
      <trkpt lat="40.445331" lon="-3.762205">
        <ele>619.313</ele>
        <time>2018-08-19T21:01:29Z</time>
      </trkpt>
      <trkpt lat="40.445364" lon="-3.762272">
        <ele>619.208</ele>
        <time>2018-08-19T21:01:31Z</time>
      </trkpt>
      <trkpt lat="40.445393" lon="-3.762338">
        <ele>619.465</ele>
        <time>2018-08-19T21:01:33Z</time>
      </trkpt>
      <trkpt lat="40.445422" lon="-3.762411">
        <ele>619.520</ele>
        <time>2018-08-19T21:01:35Z</time>
      </trkpt>
      <trkpt lat="40.445450" lon="-3.762481">
        <ele>619.640</ele>
        <time>2018-08-19T21:01:37Z</time>
      </trkpt>
      <trkpt lat="40.445477" lon="-3.762546">
        <ele>619.640</ele>
        <time>2018-08-19T21:01:39Z</time>
      </trkpt>
      <trkpt lat="40.445503" lon="-3.762610">
        <ele>619.886</ele>
        <time>2018-08-19T21:01:41Z</time>
      </trkpt>
      <trkpt lat="40.445532" lon="-3.762679">
        <ele>619.829</ele>
        <time>2018-08-19T21:01:43Z</time>
      </trkpt>
      <trkpt lat="40.445561" lon="-3.762749">
        <ele>619.918</ele>
        <time>2018-08-19T21:01:45Z</time>
      </trkpt>
      <trkpt lat="40.445584" lon="-3.762810">
        <ele>619.682</ele>
        <time>2018-08-19T21:01:47Z</time>
      </trkpt>
      <trkpt lat="40.445609" lon="-3.762875">
        <ele>619.329</ele>
        <time>2018-08-19T21:01:49Z</time>
      </trkpt>
      <trkpt lat="40.445635" lon="-3.762939">
        <ele>619.500</ele>
        <time>2018-08-19T21:01:51Z</time>
      </trkpt>
      <trkpt lat="40.445661" lon="-3.762998">
        <ele>619.520</ele>
        <time>2018-08-19T21:01:55Z</time>
      </trkpt>
      <trkpt lat="40.445678" lon="-3.763056">
        <ele>619.308</ele>
        <time>2018-08-19T21:02:00Z</time>
      </trkpt>
      <trkpt lat="40.445674" lon="-3.763122">
        <ele>619.924</ele>
        <time>2018-08-19T21:02:20Z</time>
      </trkpt>
      <trkpt lat="40.445640" lon="-3.763163">
        <ele>619.789</ele>
        <time>2018-08-19T21:03:16Z</time>
      </trkpt>
      <trkpt lat="40.445613" lon="-3.763213">
        <ele>619.669</ele>
        <time>2018-08-19T21:03:39Z</time>
      </trkpt>
      <trkpt lat="40.445657" lon="-3.763243">
        <ele>619.319</ele>
        <time>2018-08-19T21:04:28Z</time>
      </trkpt>
      <trkpt lat="40.445696" lon="-3.763278">
        <ele>619.695</ele>
        <time>2018-08-19T21:04:32Z</time>
      </trkpt>
      <trkpt lat="40.445737" lon="-3.763320">
        <ele>619.928</ele>
        <time>2018-08-19T21:04:36Z</time>
      </trkpt>
      <trkpt lat="40.445785" lon="-3.763372">
        <ele>620.227</ele>
        <time>2018-08-19T21:04:39Z</time>
      </trkpt>
      <trkpt lat="40.445818" lon="-3.763416">
        <ele>620.261</ele>
        <time>2018-08-19T21:04:41Z</time>
      </trkpt>
      <trkpt lat="40.445847" lon="-3.763462">
        <ele>620.466</ele>
        <time>2018-08-19T21:04:43Z</time>
      </trkpt>
      <trkpt lat="40.445883" lon="-3.763536">
        <ele>620.529</ele>
        <time>2018-08-19T21:04:46Z</time>
      </trkpt>
      <trkpt lat="40.445906" lon="-3.763587">
        <ele>620.921</ele>
        <time>2018-08-19T21:04:48Z</time>
      </trkpt>
      <trkpt lat="40.445948" lon="-3.763655">
        <ele>621.008</ele>
        <time>2018-08-19T21:04:51Z</time>
      </trkpt>
      <trkpt lat="40.445987" lon="-3.763685">
        <ele>621.338</ele>
        <time>2018-08-19T21:04:53Z</time>
      </trkpt>
      <trkpt lat="40.446039" lon="-3.763682">
        <ele>621.573</ele>
        <time>2018-08-19T21:04:56Z</time>
      </trkpt>
      <trkpt lat="40.446082" lon="-3.763659">
        <ele>621.763</ele>
        <time>2018-08-19T21:04:59Z</time>
      </trkpt>
      <trkpt lat="40.446126" lon="-3.763641">
        <ele>621.613</ele>
        <time>2018-08-19T21:05:04Z</time>
      </trkpt>
      <trkpt lat="40.446167" lon="-3.763595">
        <ele>621.479</ele>
        <time>2018-08-19T21:05:09Z</time>
      </trkpt>
      <trkpt lat="40.446220" lon="-3.763572">
        <ele>621.452</ele>
        <time>2018-08-19T21:05:12Z</time>
      </trkpt>
      <trkpt lat="40.446271" lon="-3.763600">
        <ele>621.851</ele>
        <time>2018-08-19T21:05:15Z</time>
      </trkpt>
      <trkpt lat="40.446319" lon="-3.763644">
        <ele>622.635</ele>
        <time>2018-08-19T21:05:18Z</time>
      </trkpt>
      <trkpt lat="40.446364" lon="-3.763692">
        <ele>622.853</ele>
        <time>2018-08-19T21:05:21Z</time>
      </trkpt>
      <trkpt lat="40.446410" lon="-3.763683">
        <ele>622.604</ele>
        <time>2018-08-19T21:05:47Z</time>
      </trkpt>
      <trkpt lat="40.446438" lon="-3.763730">
        <ele>623.114</ele>
        <time>2018-08-19T21:05:52Z</time>
      </trkpt>
      <trkpt lat="40.446460" lon="-3.763796">
        <ele>623.208</ele>
        <time>2018-08-19T21:05:56Z</time>
      </trkpt>
      <trkpt lat="40.446475" lon="-3.763864">
        <ele>623.387</ele>
        <time>2018-08-19T21:05:59Z</time>
      </trkpt>
      <trkpt lat="40.446495" lon="-3.763939">
        <ele>623.692</ele>
        <time>2018-08-19T21:06:02Z</time>
      </trkpt>
      <trkpt lat="40.446520" lon="-3.764016">
        <ele>623.712</ele>
        <time>2018-08-19T21:06:05Z</time>
      </trkpt>
      <trkpt lat="40.446546" lon="-3.764072">
        <ele>623.722</ele>
        <time>2018-08-19T21:06:07Z</time>
      </trkpt>
      <trkpt lat="40.446576" lon="-3.764128">
        <ele>623.858</ele>
        <time>2018-08-19T21:06:09Z</time>
      </trkpt>
      <trkpt lat="40.446606" lon="-3.764182">
        <ele>623.881</ele>
        <time>2018-08-19T21:06:11Z</time>
      </trkpt>
      <trkpt lat="40.446637" lon="-3.764238">
        <ele>623.960</ele>
        <time>2018-08-19T21:06:13Z</time>
      </trkpt>
      <trkpt lat="40.446668" lon="-3.764299">
        <ele>623.894</ele>
        <time>2018-08-19T21:06:15Z</time>
      </trkpt>
      <trkpt lat="40.446696" lon="-3.764356">
        <ele>623.825</ele>
        <time>2018-08-19T21:06:17Z</time>
      </trkpt>
      <trkpt lat="40.446722" lon="-3.764409">
        <ele>624.026</ele>
        <time>2018-08-19T21:06:19Z</time>
      </trkpt>
      <trkpt lat="40.446748" lon="-3.764467">
        <ele>624.308</ele>
        <time>2018-08-19T21:06:21Z</time>
      </trkpt>
      <trkpt lat="40.446773" lon="-3.764528">
        <ele>624.508</ele>
        <time>2018-08-19T21:06:23Z</time>
      </trkpt>
      <trkpt lat="40.446801" lon="-3.764591">
        <ele>624.774</ele>
        <time>2018-08-19T21:06:25Z</time>
      </trkpt>
      <trkpt lat="40.446830" lon="-3.764657">
        <ele>624.979</ele>
        <time>2018-08-19T21:06:27Z</time>
      </trkpt>
      <trkpt lat="40.446859" lon="-3.764721">
        <ele>624.629</ele>
        <time>2018-08-19T21:06:29Z</time>
      </trkpt>
      <trkpt lat="40.446888" lon="-3.764783">
        <ele>625.159</ele>
        <time>2018-08-19T21:06:31Z</time>
      </trkpt>
      <trkpt lat="40.446915" lon="-3.764845">
        <ele>625.785</ele>
        <time>2018-08-19T21:06:33Z</time>
      </trkpt>
      <trkpt lat="40.446938" lon="-3.764897">
        <ele>626.588</ele>
        <time>2018-08-19T21:06:35Z</time>
      </trkpt>
      <trkpt lat="40.446964" lon="-3.764961">
        <ele>627.237</ele>
        <time>2018-08-19T21:06:38Z</time>
      </trkpt>
      <trkpt lat="40.446988" lon="-3.765029">
        <ele>627.331</ele>
        <time>2018-08-19T21:06:41Z</time>
      </trkpt>
      <trkpt lat="40.447022" lon="-3.765106">
        <ele>627.255</ele>
        <time>2018-08-19T21:06:44Z</time>
      </trkpt>
      <trkpt lat="40.447046" lon="-3.765156">
        <ele>627.107</ele>
        <time>2018-08-19T21:06:46Z</time>
      </trkpt>
      <trkpt lat="40.447078" lon="-3.765233">
        <ele>627.317</ele>
        <time>2018-08-19T21:06:49Z</time>
      </trkpt>
      <trkpt lat="40.447100" lon="-3.765291">
        <ele>627.108</ele>
        <time>2018-08-19T21:06:51Z</time>
      </trkpt>
      <trkpt lat="40.447124" lon="-3.765360">
        <ele>627.067</ele>
        <time>2018-08-19T21:06:53Z</time>
      </trkpt>
      <trkpt lat="40.447146" lon="-3.765427">
        <ele>626.962</ele>
        <time>2018-08-19T21:06:55Z</time>
      </trkpt>
      <trkpt lat="40.447171" lon="-3.765493">
        <ele>626.882</ele>
        <time>2018-08-19T21:06:57Z</time>
      </trkpt>
      <trkpt lat="40.447238" lon="-3.765653">
        <ele>626.762</ele>
        <time>2018-08-19T21:06:59Z</time>
      </trkpt>
      <trkpt lat="40.447266" lon="-3.765716">
        <ele>626.788</ele>
        <time>2018-08-19T21:07:01Z</time>
      </trkpt>
      <trkpt lat="40.447299" lon="-3.765777">
        <ele>627.681</ele>
        <time>2018-08-19T21:07:04Z</time>
      </trkpt>
      <trkpt lat="40.447329" lon="-3.765851">
        <ele>627.570</ele>
        <time>2018-08-19T21:07:07Z</time>
      </trkpt>
      <trkpt lat="40.447351" lon="-3.765915">
        <ele>627.614</ele>
        <time>2018-08-19T21:07:09Z</time>
      </trkpt>
      <trkpt lat="40.447375" lon="-3.765985">
        <ele>627.569</ele>
        <time>2018-08-19T21:07:11Z</time>
      </trkpt>
      <trkpt lat="40.447399" lon="-3.766057">
        <ele>627.404</ele>
        <time>2018-08-19T21:07:13Z</time>
      </trkpt>
      <trkpt lat="40.447421" lon="-3.766127">
        <ele>627.524</ele>
        <time>2018-08-19T21:07:15Z</time>
      </trkpt>
      <trkpt lat="40.447442" lon="-3.766199">
        <ele>627.408</ele>
        <time>2018-08-19T21:07:17Z</time>
      </trkpt>
      <trkpt lat="40.447466" lon="-3.766271">
        <ele>627.548</ele>
        <time>2018-08-19T21:07:19Z</time>
      </trkpt>
      <trkpt lat="40.447489" lon="-3.766337">
        <ele>627.283</ele>
        <time>2018-08-19T21:07:21Z</time>
      </trkpt>
      <trkpt lat="40.447512" lon="-3.766399">
        <ele>627.243</ele>
        <time>2018-08-19T21:07:23Z</time>
      </trkpt>
      <trkpt lat="40.447537" lon="-3.766460">
        <ele>627.223</ele>
        <time>2018-08-19T21:07:25Z</time>
      </trkpt>
      <trkpt lat="40.447560" lon="-3.766512">
        <ele>627.369</ele>
        <time>2018-08-19T21:07:27Z</time>
      </trkpt>
      <trkpt lat="40.447592" lon="-3.766587">
        <ele>627.572</ele>
        <time>2018-08-19T21:07:30Z</time>
      </trkpt>
      <trkpt lat="40.447615" lon="-3.766654">
        <ele>627.261</ele>
        <time>2018-08-19T21:07:33Z</time>
      </trkpt>
      <trkpt lat="40.447634" lon="-3.766712">
        <ele>627.375</ele>
        <time>2018-08-19T21:07:39Z</time>
      </trkpt>
      <trkpt lat="40.447589" lon="-3.766716">
        <ele>626.663</ele>
        <time>2018-08-19T21:09:40Z</time>
      </trkpt>
      <trkpt lat="40.447549" lon="-3.766676">
        <ele>627.644</ele>
        <time>2018-08-19T21:09:55Z</time>
      </trkpt>
      <trkpt lat="40.447524" lon="-3.766623">
        <ele>627.518</ele>
        <time>2018-08-19T21:09:58Z</time>
      </trkpt>
      <trkpt lat="40.447493" lon="-3.766556">
        <ele>627.808</ele>
        <time>2018-08-19T21:10:01Z</time>
      </trkpt>
      <trkpt lat="40.447470" lon="-3.766503">
        <ele>627.648</ele>
        <time>2018-08-19T21:10:03Z</time>
      </trkpt>
      <trkpt lat="40.447449" lon="-3.766445">
        <ele>627.653</ele>
        <time>2018-08-19T21:10:05Z</time>
      </trkpt>
      <trkpt lat="40.447431" lon="-3.766384">
        <ele>627.713</ele>
        <time>2018-08-19T21:10:07Z</time>
      </trkpt>
      <trkpt lat="40.447414" lon="-3.766318">
        <ele>627.963</ele>
        <time>2018-08-19T21:10:09Z</time>
      </trkpt>
      <trkpt lat="40.447397" lon="-3.766250">
        <ele>627.889</ele>
        <time>2018-08-19T21:10:11Z</time>
      </trkpt>
      <trkpt lat="40.447379" lon="-3.766184">
        <ele>628.032</ele>
        <time>2018-08-19T21:10:13Z</time>
      </trkpt>
      <trkpt lat="40.447363" lon="-3.766125">
        <ele>627.971</ele>
        <time>2018-08-19T21:10:15Z</time>
      </trkpt>
      <trkpt lat="40.447346" lon="-3.766067">
        <ele>628.055</ele>
        <time>2018-08-19T21:10:17Z</time>
      </trkpt>
      <trkpt lat="40.447327" lon="-3.766007">
        <ele>627.753</ele>
        <time>2018-08-19T21:10:19Z</time>
      </trkpt>
      <trkpt lat="40.447308" lon="-3.765949">
        <ele>627.704</ele>
        <time>2018-08-19T21:10:21Z</time>
      </trkpt>
      <trkpt lat="40.447287" lon="-3.765893">
        <ele>627.614</ele>
        <time>2018-08-19T21:10:23Z</time>
      </trkpt>
      <trkpt lat="40.447266" lon="-3.765837">
        <ele>627.408</ele>
        <time>2018-08-19T21:10:25Z</time>
      </trkpt>
      <trkpt lat="40.447243" lon="-3.765773">
        <ele>626.897</ele>
        <time>2018-08-19T21:10:27Z</time>
      </trkpt>
      <trkpt lat="40.447217" lon="-3.765695">
        <ele>626.242</ele>
        <time>2018-08-19T21:10:29Z</time>
      </trkpt>
      <trkpt lat="40.447186" lon="-3.765608">
        <ele>626.372</ele>
        <time>2018-08-19T21:10:31Z</time>
      </trkpt>
      <trkpt lat="40.447162" lon="-3.765530">
        <ele>626.722</ele>
        <time>2018-08-19T21:10:33Z</time>
      </trkpt>
      <trkpt lat="40.447144" lon="-3.765451">
        <ele>626.758</ele>
        <time>2018-08-19T21:10:35Z</time>
      </trkpt>
      <trkpt lat="40.447127" lon="-3.765371">
        <ele>626.711</ele>
        <time>2018-08-19T21:10:37Z</time>
      </trkpt>
      <trkpt lat="40.447106" lon="-3.765296">
        <ele>627.180</ele>
        <time>2018-08-19T21:10:39Z</time>
      </trkpt>
      <trkpt lat="40.447079" lon="-3.765223">
        <ele>627.124</ele>
        <time>2018-08-19T21:10:41Z</time>
      </trkpt>
      <trkpt lat="40.447051" lon="-3.765152">
        <ele>626.912</ele>
        <time>2018-08-19T21:10:43Z</time>
      </trkpt>
      <trkpt lat="40.447018" lon="-3.765080">
        <ele>626.932</ele>
        <time>2018-08-19T21:10:45Z</time>
      </trkpt>
      <trkpt lat="40.446991" lon="-3.765021">
        <ele>626.805</ele>
        <time>2018-08-19T21:10:47Z</time>
      </trkpt>
      <trkpt lat="40.446966" lon="-3.764946">
        <ele>626.308</ele>
        <time>2018-08-19T21:10:50Z</time>
      </trkpt>
      <trkpt lat="40.446938" lon="-3.764893">
        <ele>625.583</ele>
        <time>2018-08-19T21:10:52Z</time>
      </trkpt>
      <trkpt lat="40.446893" lon="-3.764813">
        <ele>624.938</ele>
        <time>2018-08-19T21:10:54Z</time>
      </trkpt>
      <trkpt lat="40.446845" lon="-3.764718">
        <ele>624.678</ele>
        <time>2018-08-19T21:10:56Z</time>
      </trkpt>
      <trkpt lat="40.446800" lon="-3.764624">
        <ele>624.128</ele>
        <time>2018-08-19T21:10:58Z</time>
      </trkpt>
      <trkpt lat="40.446756" lon="-3.764538">
        <ele>624.024</ele>
        <time>2018-08-19T21:11:00Z</time>
      </trkpt>
      <trkpt lat="40.446691" lon="-3.764409">
        <ele>624.097</ele>
        <time>2018-08-19T21:11:01Z</time>
      </trkpt>
      <trkpt lat="40.446651" lon="-3.764316">
        <ele>623.646</ele>
        <time>2018-08-19T21:11:03Z</time>
      </trkpt>
      <trkpt lat="40.446608" lon="-3.764226">
        <ele>623.560</ele>
        <time>2018-08-19T21:11:05Z</time>
      </trkpt>
      <trkpt lat="40.446571" lon="-3.764151">
        <ele>623.766</ele>
        <time>2018-08-19T21:11:07Z</time>
      </trkpt>
      <trkpt lat="40.446538" lon="-3.764077">
        <ele>623.729</ele>
        <time>2018-08-19T21:11:09Z</time>
      </trkpt>
      <trkpt lat="40.446507" lon="-3.764019">
        <ele>623.421</ele>
        <time>2018-08-19T21:11:11Z</time>
      </trkpt>
      <trkpt lat="40.446476" lon="-3.763934">
        <ele>623.108</ele>
        <time>2018-08-19T21:11:14Z</time>
      </trkpt>
      <trkpt lat="40.446449" lon="-3.763857">
        <ele>622.918</ele>
        <time>2018-08-19T21:11:16Z</time>
      </trkpt>
      <trkpt lat="40.446424" lon="-3.763781">
        <ele>622.413</ele>
        <time>2018-08-19T21:11:18Z</time>
      </trkpt>
      <trkpt lat="40.446407" lon="-3.763710">
        <ele>622.363</ele>
        <time>2018-08-19T21:11:20Z</time>
      </trkpt>
      <trkpt lat="40.446398" lon="-3.763640">
        <ele>621.883</ele>
        <time>2018-08-19T21:11:22Z</time>
      </trkpt>
      <trkpt lat="40.446391" lon="-3.763572">
        <ele>621.359</ele>
        <time>2018-08-19T21:11:24Z</time>
      </trkpt>
      <trkpt lat="40.446385" lon="-3.763500">
        <ele>620.552</ele>
        <time>2018-08-19T21:11:26Z</time>
      </trkpt>
      <trkpt lat="40.446396" lon="-3.763442">
        <ele>620.311</ele>
        <time>2018-08-19T21:11:28Z</time>
      </trkpt>
      <trkpt lat="40.446409" lon="-3.763374">
        <ele>619.785</ele>
        <time>2018-08-19T21:11:31Z</time>
      </trkpt>
      <trkpt lat="40.446396" lon="-3.763296">
        <ele>619.842</ele>
        <time>2018-08-19T21:11:34Z</time>
      </trkpt>
      <trkpt lat="40.446378" lon="-3.763236">
        <ele>619.722</ele>
        <time>2018-08-19T21:11:36Z</time>
      </trkpt>
      <trkpt lat="40.446354" lon="-3.763170">
        <ele>619.714</ele>
        <time>2018-08-19T21:11:38Z</time>
      </trkpt>
      <trkpt lat="40.446320" lon="-3.763098">
        <ele>619.408</ele>
        <time>2018-08-19T21:11:40Z</time>
      </trkpt>
      <trkpt lat="40.446282" lon="-3.763024">
        <ele>618.816</ele>
        <time>2018-08-19T21:11:42Z</time>
      </trkpt>
      <trkpt lat="40.446246" lon="-3.762943">
        <ele>619.011</ele>
        <time>2018-08-19T21:11:44Z</time>
      </trkpt>
      <trkpt lat="40.446206" lon="-3.762861">
        <ele>618.991</ele>
        <time>2018-08-19T21:11:46Z</time>
      </trkpt>
      <trkpt lat="40.446167" lon="-3.762780">
        <ele>618.881</ele>
        <time>2018-08-19T21:11:48Z</time>
      </trkpt>
      <trkpt lat="40.446128" lon="-3.762695">
        <ele>618.987</ele>
        <time>2018-08-19T21:11:50Z</time>
      </trkpt>
      <trkpt lat="40.446089" lon="-3.762607">
        <ele>618.610</ele>
        <time>2018-08-19T21:11:52Z</time>
      </trkpt>
      <trkpt lat="40.446055" lon="-3.762513">
        <ele>618.659</ele>
        <time>2018-08-19T21:11:54Z</time>
      </trkpt>
      <trkpt lat="40.446024" lon="-3.762419">
        <ele>618.223</ele>
        <time>2018-08-19T21:11:56Z</time>
      </trkpt>
      <trkpt lat="40.445994" lon="-3.762329">
        <ele>618.411</ele>
        <time>2018-08-19T21:11:58Z</time>
      </trkpt>
      <trkpt lat="40.445963" lon="-3.762242">
        <ele>618.221</ele>
        <time>2018-08-19T21:12:00Z</time>
      </trkpt>
      <trkpt lat="40.445929" lon="-3.762157">
        <ele>618.203</ele>
        <time>2018-08-19T21:12:02Z</time>
      </trkpt>
      <trkpt lat="40.445895" lon="-3.762073">
        <ele>617.908</ele>
        <time>2018-08-19T21:12:04Z</time>
      </trkpt>
      <trkpt lat="40.445864" lon="-3.761995">
        <ele>617.823</ele>
        <time>2018-08-19T21:12:06Z</time>
      </trkpt>
      <trkpt lat="40.445830" lon="-3.761920">
        <ele>617.838</ele>
        <time>2018-08-19T21:12:08Z</time>
      </trkpt>
      <trkpt lat="40.445797" lon="-3.761841">
        <ele>617.938</ele>
        <time>2018-08-19T21:12:10Z</time>
      </trkpt>
      <trkpt lat="40.445769" lon="-3.761764">
        <ele>617.668</ele>
        <time>2018-08-19T21:12:12Z</time>
      </trkpt>
      <trkpt lat="40.445736" lon="-3.761681">
        <ele>617.454</ele>
        <time>2018-08-19T21:12:14Z</time>
      </trkpt>
      <trkpt lat="40.445708" lon="-3.761598">
        <ele>617.137</ele>
        <time>2018-08-19T21:12:16Z</time>
      </trkpt>
      <trkpt lat="40.445675" lon="-3.761518">
        <ele>617.126</ele>
        <time>2018-08-19T21:12:18Z</time>
      </trkpt>
      <trkpt lat="40.445653" lon="-3.761440">
        <ele>617.210</ele>
        <time>2018-08-19T21:12:20Z</time>
      </trkpt>
      <trkpt lat="40.445631" lon="-3.761356">
        <ele>617.392</ele>
        <time>2018-08-19T21:12:22Z</time>
      </trkpt>
      <trkpt lat="40.445604" lon="-3.761272">
        <ele>617.573</ele>
        <time>2018-08-19T21:12:24Z</time>
      </trkpt>
      <trkpt lat="40.445575" lon="-3.761195">
        <ele>617.420</ele>
        <time>2018-08-19T21:12:26Z</time>
      </trkpt>
      <trkpt lat="40.445543" lon="-3.761119">
        <ele>617.608</ele>
        <time>2018-08-19T21:12:28Z</time>
      </trkpt>
      <trkpt lat="40.445506" lon="-3.761044">
        <ele>617.411</ele>
        <time>2018-08-19T21:12:30Z</time>
      </trkpt>
      <trkpt lat="40.445466" lon="-3.760963">
        <ele>617.316</ele>
        <time>2018-08-19T21:12:32Z</time>
      </trkpt>
      <trkpt lat="40.445430" lon="-3.760884">
        <ele>617.326</ele>
        <time>2018-08-19T21:12:34Z</time>
      </trkpt>
      <trkpt lat="40.445392" lon="-3.760802">
        <ele>617.266</ele>
        <time>2018-08-19T21:12:36Z</time>
      </trkpt>
      <trkpt lat="40.445355" lon="-3.760723">
        <ele>617.132</ele>
        <time>2018-08-19T21:12:38Z</time>
      </trkpt>
      <trkpt lat="40.445319" lon="-3.760651">
        <ele>616.845</ele>
        <time>2018-08-19T21:12:40Z</time>
      </trkpt>
      <trkpt lat="40.445282" lon="-3.760573">
        <ele>616.894</ele>
        <time>2018-08-19T21:12:42Z</time>
      </trkpt>
      <trkpt lat="40.445248" lon="-3.760488">
        <ele>616.598</ele>
        <time>2018-08-19T21:12:44Z</time>
      </trkpt>
      <trkpt lat="40.445214" lon="-3.760400">
        <ele>616.529</ele>
        <time>2018-08-19T21:12:46Z</time>
      </trkpt>
      <trkpt lat="40.445179" lon="-3.760313">
        <ele>616.500</ele>
        <time>2018-08-19T21:12:48Z</time>
      </trkpt>
      <trkpt lat="40.445145" lon="-3.760228">
        <ele>616.320</ele>
        <time>2018-08-19T21:12:50Z</time>
      </trkpt>
      <trkpt lat="40.445109" lon="-3.760143">
        <ele>616.308</ele>
        <time>2018-08-19T21:12:52Z</time>
      </trkpt>
      <trkpt lat="40.445071" lon="-3.760059">
        <ele>616.254</ele>
        <time>2018-08-19T21:12:54Z</time>
      </trkpt>
      <trkpt lat="40.445038" lon="-3.759977">
        <ele>616.219</ele>
        <time>2018-08-19T21:12:56Z</time>
      </trkpt>
      <trkpt lat="40.445001" lon="-3.759894">
        <ele>616.239</ele>
        <time>2018-08-19T21:12:58Z</time>
      </trkpt>
      <trkpt lat="40.444964" lon="-3.759809">
        <ele>616.399</ele>
        <time>2018-08-19T21:13:00Z</time>
      </trkpt>
      <trkpt lat="40.444931" lon="-3.759721">
        <ele>616.315</ele>
        <time>2018-08-19T21:13:02Z</time>
      </trkpt>
      <trkpt lat="40.444896" lon="-3.759635">
        <ele>616.238</ele>
        <time>2018-08-19T21:13:04Z</time>
      </trkpt>
      <trkpt lat="40.444860" lon="-3.759552">
        <ele>615.917</ele>
        <time>2018-08-19T21:13:06Z</time>
      </trkpt>
      <trkpt lat="40.444827" lon="-3.759471">
        <ele>616.081</ele>
        <time>2018-08-19T21:13:08Z</time>
      </trkpt>
      <trkpt lat="40.444797" lon="-3.759390">
        <ele>615.762</ele>
        <time>2018-08-19T21:13:10Z</time>
      </trkpt>
      <trkpt lat="40.444766" lon="-3.759303">
        <ele>615.783</ele>
        <time>2018-08-19T21:13:12Z</time>
      </trkpt>
      <trkpt lat="40.444736" lon="-3.759211">
        <ele>615.711</ele>
        <time>2018-08-19T21:13:14Z</time>
      </trkpt>
      <trkpt lat="40.444712" lon="-3.759138">
        <ele>615.308</ele>
        <time>2018-08-19T21:13:16Z</time>
      </trkpt>
      <trkpt lat="40.444689" lon="-3.759068">
        <ele>615.328</ele>
        <time>2018-08-19T21:13:18Z</time>
      </trkpt>
      <trkpt lat="40.444660" lon="-3.758999">
        <ele>614.873</ele>
        <time>2018-08-19T21:13:20Z</time>
      </trkpt>
      <trkpt lat="40.444628" lon="-3.758934">
        <ele>614.793</ele>
        <time>2018-08-19T21:13:22Z</time>
      </trkpt>
      <trkpt lat="40.444589" lon="-3.758869">
        <ele>614.663</ele>
        <time>2018-08-19T21:13:24Z</time>
      </trkpt>
      <trkpt lat="40.444543" lon="-3.758802">
        <ele>614.129</ele>
        <time>2018-08-19T21:13:26Z</time>
      </trkpt>
      <trkpt lat="40.444500" lon="-3.758733">
        <ele>613.632</ele>
        <time>2018-08-19T21:13:28Z</time>
      </trkpt>
      <trkpt lat="40.444463" lon="-3.758662">
        <ele>613.791</ele>
        <time>2018-08-19T21:13:30Z</time>
      </trkpt>
      <trkpt lat="40.444431" lon="-3.758598">
        <ele>613.525</ele>
        <time>2018-08-19T21:13:32Z</time>
      </trkpt>
      <trkpt lat="40.444401" lon="-3.758547">
        <ele>613.252</ele>
        <time>2018-08-19T21:13:34Z</time>
      </trkpt>
      <trkpt lat="40.444359" lon="-3.758480">
        <ele>613.053</ele>
        <time>2018-08-19T21:13:37Z</time>
      </trkpt>
      <trkpt lat="40.444329" lon="-3.758429">
        <ele>613.108</ele>
        <time>2018-08-19T21:13:39Z</time>
      </trkpt>
      <trkpt lat="40.444298" lon="-3.758369">
        <ele>612.908</ele>
        <time>2018-08-19T21:13:41Z</time>
      </trkpt>
      <trkpt lat="40.444265" lon="-3.758308">
        <ele>612.757</ele>
        <time>2018-08-19T21:13:43Z</time>
      </trkpt>
      <trkpt lat="40.444232" lon="-3.758247">
        <ele>612.462</ele>
        <time>2018-08-19T21:13:45Z</time>
      </trkpt>
      <trkpt lat="40.444199" lon="-3.758185">
        <ele>612.192</ele>
        <time>2018-08-19T21:13:47Z</time>
      </trkpt>
      <trkpt lat="40.444162" lon="-3.758113">
        <ele>612.342</ele>
        <time>2018-08-19T21:13:49Z</time>
      </trkpt>
      <trkpt lat="40.444130" lon="-3.758038">
        <ele>612.338</ele>
        <time>2018-08-19T21:13:51Z</time>
      </trkpt>
      <trkpt lat="40.444097" lon="-3.757968">
        <ele>612.531</ele>
        <time>2018-08-19T21:13:53Z</time>
      </trkpt>
      <trkpt lat="40.444067" lon="-3.757908">
        <ele>612.230</ele>
        <time>2018-08-19T21:13:55Z</time>
      </trkpt>
      <trkpt lat="40.444034" lon="-3.757837">
        <ele>612.174</ele>
        <time>2018-08-19T21:13:58Z</time>
      </trkpt>
      <trkpt lat="40.444012" lon="-3.757765">
        <ele>611.219</ele>
        <time>2018-08-19T21:14:01Z</time>
      </trkpt>
      <trkpt lat="40.443994" lon="-3.757707">
        <ele>610.109</ele>
        <time>2018-08-19T21:14:03Z</time>
      </trkpt>
      <trkpt lat="40.443971" lon="-3.757637">
        <ele>609.719</ele>
        <time>2018-08-19T21:14:05Z</time>
      </trkpt>
      <trkpt lat="40.443964" lon="-3.757562">
        <ele>609.308</ele>
        <time>2018-08-19T21:14:07Z</time>
      </trkpt>
      <trkpt lat="40.443980" lon="-3.757491">
        <ele>608.913</ele>
        <time>2018-08-19T21:14:09Z</time>
      </trkpt>
      <trkpt lat="40.444013" lon="-3.757425">
        <ele>608.798</ele>
        <time>2018-08-19T21:14:11Z</time>
      </trkpt>
      <trkpt lat="40.444050" lon="-3.757372">
        <ele>608.328</ele>
        <time>2018-08-19T21:14:13Z</time>
      </trkpt>
      <trkpt lat="40.444090" lon="-3.757327">
        <ele>607.858</ele>
        <time>2018-08-19T21:14:15Z</time>
      </trkpt>
      <trkpt lat="40.444136" lon="-3.757272">
        <ele>607.484</ele>
        <time>2018-08-19T21:14:17Z</time>
      </trkpt>
      <trkpt lat="40.444188" lon="-3.757208">
        <ele>606.917</ele>
        <time>2018-08-19T21:14:19Z</time>
      </trkpt>
      <trkpt lat="40.444238" lon="-3.757156">
        <ele>606.766</ele>
        <time>2018-08-19T21:14:21Z</time>
      </trkpt>
      <trkpt lat="40.444283" lon="-3.757114">
        <ele>606.640</ele>
        <time>2018-08-19T21:14:23Z</time>
      </trkpt>
      <trkpt lat="40.444320" lon="-3.757076">
        <ele>606.481</ele>
        <time>2018-08-19T21:14:25Z</time>
      </trkpt>
      <trkpt lat="40.444358" lon="-3.757031">
        <ele>606.161</ele>
        <time>2018-08-19T21:14:27Z</time>
      </trkpt>
      <trkpt lat="40.444401" lon="-3.756974">
        <ele>606.117</ele>
        <time>2018-08-19T21:14:29Z</time>
      </trkpt>
      <trkpt lat="40.444445" lon="-3.756916">
        <ele>606.008</ele>
        <time>2018-08-19T21:14:31Z</time>
      </trkpt>
      <trkpt lat="40.444497" lon="-3.756858">
        <ele>605.870</ele>
        <time>2018-08-19T21:14:33Z</time>
      </trkpt>
      <trkpt lat="40.444548" lon="-3.756808">
        <ele>605.455</ele>
        <time>2018-08-19T21:14:35Z</time>
      </trkpt>
      <trkpt lat="40.444590" lon="-3.756761">
        <ele>605.145</ele>
        <time>2018-08-19T21:14:37Z</time>
      </trkpt>
      <trkpt lat="40.444634" lon="-3.756712">
        <ele>605.035</ele>
        <time>2018-08-19T21:14:39Z</time>
      </trkpt>
      <trkpt lat="40.444683" lon="-3.756662">
        <ele>604.861</ele>
        <time>2018-08-19T21:14:41Z</time>
      </trkpt>
      <trkpt lat="40.444729" lon="-3.756610">
        <ele>604.684</ele>
        <time>2018-08-19T21:14:43Z</time>
      </trkpt>
      <trkpt lat="40.444774" lon="-3.756564">
        <ele>604.473</ele>
        <time>2018-08-19T21:14:45Z</time>
      </trkpt>
      <trkpt lat="40.444818" lon="-3.756524">
        <ele>604.417</ele>
        <time>2018-08-19T21:14:47Z</time>
      </trkpt>
      <trkpt lat="40.444860" lon="-3.756483">
        <ele>604.456</ele>
        <time>2018-08-19T21:14:49Z</time>
      </trkpt>
      <trkpt lat="40.444898" lon="-3.756446">
        <ele>604.359</ele>
        <time>2018-08-19T21:14:51Z</time>
      </trkpt>
      <trkpt lat="40.444945" lon="-3.756405">
        <ele>603.814</ele>
        <time>2018-08-19T21:14:54Z</time>
      </trkpt>
      <trkpt lat="40.444985" lon="-3.756377">
        <ele>603.908</ele>
        <time>2018-08-19T21:15:01Z</time>
      </trkpt>
      <trkpt lat="40.445016" lon="-3.756334">
        <ele>603.197</ele>
        <time>2018-08-19T21:16:07Z</time>
      </trkpt>
      <trkpt lat="40.444975" lon="-3.756310">
        <ele>602.952</ele>
        <time>2018-08-19T21:16:40Z</time>
      </trkpt>
      <trkpt lat="40.444995" lon="-3.756364">
        <ele>602.992</ele>
        <time>2018-08-19T21:18:06Z</time>
      </trkpt>
      <trkpt lat="40.445023" lon="-3.756317">
        <ele>603.452</ele>
        <time>2018-08-19T21:19:15Z</time>
      </trkpt>
      <trkpt lat="40.444985" lon="-3.756349">
        <ele>602.978</ele>
        <time>2018-08-19T21:21:23Z</time>
      </trkpt>
      <trkpt lat="40.444968" lon="-3.756407">
        <ele>603.641</ele>
        <time>2018-08-19T21:22:42Z</time>
      </trkpt>
      <trkpt lat="40.444934" lon="-3.756456">
        <ele>603.620</ele>
        <time>2018-08-19T21:22:46Z</time>
      </trkpt>
      <trkpt lat="40.444880" lon="-3.756455">
        <ele>603.194</ele>
        <time>2018-08-19T21:22:50Z</time>
      </trkpt>
      <trkpt lat="40.444822" lon="-3.756403">
        <ele>602.217</ele>
        <time>2018-08-19T21:22:53Z</time>
      </trkpt>
      <trkpt lat="40.444779" lon="-3.756358">
        <ele>601.987</ele>
        <time>2018-08-19T21:22:55Z</time>
      </trkpt>
      <trkpt lat="40.444734" lon="-3.756313">
        <ele>601.815</ele>
        <time>2018-08-19T21:22:57Z</time>
      </trkpt>
      <trkpt lat="40.444689" lon="-3.756270">
        <ele>601.408</ele>
        <time>2018-08-19T21:22:59Z</time>
      </trkpt>
      <trkpt lat="40.444645" lon="-3.756224">
        <ele>601.563</ele>
        <time>2018-08-19T21:23:01Z</time>
      </trkpt>
      <trkpt lat="40.444605" lon="-3.756176">
        <ele>600.988</ele>
        <time>2018-08-19T21:23:03Z</time>
      </trkpt>
      <trkpt lat="40.444569" lon="-3.756127">
        <ele>601.158</ele>
        <time>2018-08-19T21:23:05Z</time>
      </trkpt>
      <trkpt lat="40.444529" lon="-3.756062">
        <ele>600.778</ele>
        <time>2018-08-19T21:23:08Z</time>
      </trkpt>
      <trkpt lat="40.444495" lon="-3.756014">
        <ele>600.664</ele>
        <time>2018-08-19T21:23:12Z</time>
      </trkpt>
      <trkpt lat="40.444458" lon="-3.755972">
        <ele>600.437</ele>
        <time>2018-08-19T21:23:18Z</time>
      </trkpt>
      <trkpt lat="40.444434" lon="-3.755915">
        <ele>600.556</ele>
        <time>2018-08-19T21:23:21Z</time>
      </trkpt>
      <trkpt lat="40.444411" lon="-3.755847">
        <ele>600.180</ele>
        <time>2018-08-19T21:23:23Z</time>
      </trkpt>
      <trkpt lat="40.444387" lon="-3.755770">
        <ele>599.754</ele>
        <time>2018-08-19T21:23:25Z</time>
      </trkpt>
      <trkpt lat="40.444363" lon="-3.755690">
        <ele>599.156</ele>
        <time>2018-08-19T21:23:27Z</time>
      </trkpt>
      <trkpt lat="40.444340" lon="-3.755618">
        <ele>598.411</ele>
        <time>2018-08-19T21:23:29Z</time>
      </trkpt>
      <trkpt lat="40.444319" lon="-3.755556">
        <ele>598.008</ele>
        <time>2018-08-19T21:23:31Z</time>
      </trkpt>
      <trkpt lat="40.444298" lon="-3.755495">
        <ele>597.627</ele>
        <time>2018-08-19T21:23:33Z</time>
      </trkpt>
      <trkpt lat="40.444277" lon="-3.755428">
        <ele>597.282</ele>
        <time>2018-08-19T21:23:35Z</time>
      </trkpt>
      <trkpt lat="40.444259" lon="-3.755358">
        <ele>596.892</ele>
        <time>2018-08-19T21:23:37Z</time>
      </trkpt>
      <trkpt lat="40.444241" lon="-3.755292">
        <ele>596.382</ele>
        <time>2018-08-19T21:23:39Z</time>
      </trkpt>
      <trkpt lat="40.444224" lon="-3.755225">
        <ele>596.158</ele>
        <time>2018-08-19T21:23:41Z</time>
      </trkpt>
      <trkpt lat="40.444199" lon="-3.755161">
        <ele>595.861</ele>
        <time>2018-08-19T21:23:43Z</time>
      </trkpt>
      <trkpt lat="40.444175" lon="-3.755090">
        <ele>595.850</ele>
        <time>2018-08-19T21:23:45Z</time>
      </trkpt>
      <trkpt lat="40.444158" lon="-3.755025">
        <ele>595.344</ele>
        <time>2018-08-19T21:23:47Z</time>
      </trkpt>
      <trkpt lat="40.444143" lon="-3.754956">
        <ele>595.249</ele>
        <time>2018-08-19T21:23:49Z</time>
      </trkpt>
      <trkpt lat="40.444130" lon="-3.754872">
        <ele>594.402</ele>
        <time>2018-08-19T21:23:51Z</time>
      </trkpt>
      <trkpt lat="40.444116" lon="-3.754789">
        <ele>594.522</ele>
        <time>2018-08-19T21:23:53Z</time>
      </trkpt>
      <trkpt lat="40.444104" lon="-3.754708">
        <ele>594.208</ele>
        <time>2018-08-19T21:23:55Z</time>
      </trkpt>
      <trkpt lat="40.444100" lon="-3.754627">
        <ele>593.926</ele>
        <time>2018-08-19T21:23:57Z</time>
      </trkpt>
      <trkpt lat="40.444100" lon="-3.754538">
        <ele>593.841</ele>
        <time>2018-08-19T21:23:59Z</time>
      </trkpt>
      <trkpt lat="40.444098" lon="-3.754447">
        <ele>593.781</ele>
        <time>2018-08-19T21:24:01Z</time>
      </trkpt>
      <trkpt lat="40.444098" lon="-3.754353">
        <ele>593.791</ele>
        <time>2018-08-19T21:24:03Z</time>
      </trkpt>
      <trkpt lat="40.444095" lon="-3.754272">
        <ele>593.517</ele>
        <time>2018-08-19T21:24:05Z</time>
      </trkpt>
      <trkpt lat="40.444098" lon="-3.754193">
        <ele>593.420</ele>
        <time>2018-08-19T21:24:07Z</time>
      </trkpt>
      <trkpt lat="40.444109" lon="-3.754101">
        <ele>593.499</ele>
        <time>2018-08-19T21:24:09Z</time>
      </trkpt>
      <trkpt lat="40.444108" lon="-3.754028">
        <ele>593.433</ele>
        <time>2018-08-19T21:24:11Z</time>
      </trkpt>
      <trkpt lat="40.444097" lon="-3.753969">
        <ele>593.519</ele>
        <time>2018-08-19T21:24:13Z</time>
      </trkpt>
      <trkpt lat="40.444080" lon="-3.753910">
        <ele>593.309</ele>
        <time>2018-08-19T21:24:15Z</time>
      </trkpt>
      <trkpt lat="40.444057" lon="-3.753844">
        <ele>593.219</ele>
        <time>2018-08-19T21:24:17Z</time>
      </trkpt>
      <trkpt lat="40.444039" lon="-3.753771">
        <ele>593.008</ele>
        <time>2018-08-19T21:24:19Z</time>
      </trkpt>
      <trkpt lat="40.444022" lon="-3.753688">
        <ele>592.723</ele>
        <time>2018-08-19T21:24:21Z</time>
      </trkpt>
      <trkpt lat="40.444013" lon="-3.753591">
        <ele>592.488</ele>
        <time>2018-08-19T21:24:23Z</time>
      </trkpt>
      <trkpt lat="40.444011" lon="-3.753531">
        <ele>592.338</ele>
        <time>2018-08-19T21:24:24Z</time>
      </trkpt>
      <trkpt lat="40.444009" lon="-3.753471">
        <ele>591.948</ele>
        <time>2018-08-19T21:24:25Z</time>
      </trkpt>
      <trkpt lat="40.444002" lon="-3.753359">
        <ele>591.964</ele>
        <time>2018-08-19T21:24:27Z</time>
      </trkpt>
      <trkpt lat="40.443989" lon="-3.753248">
        <ele>591.867</ele>
        <time>2018-08-19T21:24:29Z</time>
      </trkpt>
      <trkpt lat="40.443974" lon="-3.753140">
        <ele>591.626</ele>
        <time>2018-08-19T21:24:31Z</time>
      </trkpt>
      <trkpt lat="40.443962" lon="-3.753026">
        <ele>591.580</ele>
        <time>2018-08-19T21:24:33Z</time>
      </trkpt>
      <trkpt lat="40.443953" lon="-3.752916">
        <ele>591.219</ele>
        <time>2018-08-19T21:24:35Z</time>
      </trkpt>
      <trkpt lat="40.443951" lon="-3.752856">
        <ele>591.209</ele>
        <time>2018-08-19T21:24:36Z</time>
      </trkpt>
      <trkpt lat="40.443948" lon="-3.752797">
        <ele>591.219</ele>
        <time>2018-08-19T21:24:37Z</time>
      </trkpt>
      <trkpt lat="40.443943" lon="-3.752734">
        <ele>591.108</ele>
        <time>2018-08-19T21:24:38Z</time>
      </trkpt>
      <trkpt lat="40.443934" lon="-3.752619">
        <ele>591.283</ele>
        <time>2018-08-19T21:24:40Z</time>
      </trkpt>
      <trkpt lat="40.443931" lon="-3.752555">
        <ele>591.278</ele>
        <time>2018-08-19T21:24:41Z</time>
      </trkpt>
      <trkpt lat="40.443925" lon="-3.752494">
        <ele>591.198</ele>
        <time>2018-08-19T21:24:42Z</time>
      </trkpt>
      <trkpt lat="40.443913" lon="-3.752379">
        <ele>591.338</ele>
        <time>2018-08-19T21:24:44Z</time>
      </trkpt>
      <trkpt lat="40.443905" lon="-3.752273">
        <ele>591.134</ele>
        <time>2018-08-19T21:24:46Z</time>
      </trkpt>
      <trkpt lat="40.443897" lon="-3.752167">
        <ele>590.967</ele>
        <time>2018-08-19T21:24:48Z</time>
      </trkpt>
      <trkpt lat="40.443892" lon="-3.752105">
        <ele>591.146</ele>
        <time>2018-08-19T21:24:49Z</time>
      </trkpt>
      <trkpt lat="40.443886" lon="-3.752040">
        <ele>590.970</ele>
        <time>2018-08-19T21:24:50Z</time>
      </trkpt>
      <trkpt lat="40.443879" lon="-3.751966">
        <ele>590.663</ele>
        <time>2018-08-19T21:24:51Z</time>
      </trkpt>
      <trkpt lat="40.443870" lon="-3.751894">
        <ele>590.444</ele>
        <time>2018-08-19T21:24:52Z</time>
      </trkpt>
      <trkpt lat="40.443859" lon="-3.751831">
        <ele>590.618</ele>
        <time>2018-08-19T21:24:53Z</time>
      </trkpt>
      <trkpt lat="40.443845" lon="-3.751772">
        <ele>590.508</ele>
        <time>2018-08-19T21:24:54Z</time>
      </trkpt>
      <trkpt lat="40.443813" lon="-3.751679">
        <ele>590.268</ele>
        <time>2018-08-19T21:24:56Z</time>
      </trkpt>
      <trkpt lat="40.443777" lon="-3.751619">
        <ele>590.163</ele>
        <time>2018-08-19T21:24:58Z</time>
      </trkpt>
      <trkpt lat="40.443731" lon="-3.751584">
        <ele>590.283</ele>
        <time>2018-08-19T21:25:00Z</time>
      </trkpt>
      <trkpt lat="40.443685" lon="-3.751559">
        <ele>589.953</ele>
        <time>2018-08-19T21:25:02Z</time>
      </trkpt>
      <trkpt lat="40.443638" lon="-3.751544">
        <ele>589.679</ele>
        <time>2018-08-19T21:25:04Z</time>
      </trkpt>
      <trkpt lat="40.443580" lon="-3.751537">
        <ele>589.472</ele>
        <time>2018-08-19T21:25:06Z</time>
      </trkpt>
      <trkpt lat="40.443517" lon="-3.751535">
        <ele>589.431</ele>
        <time>2018-08-19T21:25:08Z</time>
      </trkpt>
      <trkpt lat="40.443452" lon="-3.751519">
        <ele>589.485</ele>
        <time>2018-08-19T21:25:10Z</time>
      </trkpt>
      <trkpt lat="40.443406" lon="-3.751481">
        <ele>589.537</ele>
        <time>2018-08-19T21:25:12Z</time>
      </trkpt>
      <trkpt lat="40.443373" lon="-3.751431">
        <ele>589.649</ele>
        <time>2018-08-19T21:25:14Z</time>
      </trkpt>
      <trkpt lat="40.443350" lon="-3.751372">
        <ele>589.813</ele>
        <time>2018-08-19T21:25:16Z</time>
      </trkpt>
      <trkpt lat="40.443330" lon="-3.751310">
        <ele>589.508</ele>
        <time>2018-08-19T21:25:18Z</time>
      </trkpt>
      <trkpt lat="40.443307" lon="-3.751240">
        <ele>589.125</ele>
        <time>2018-08-19T21:25:20Z</time>
      </trkpt>
      <trkpt lat="40.443283" lon="-3.751169">
        <ele>589.370</ele>
        <time>2018-08-19T21:25:22Z</time>
      </trkpt>
      <trkpt lat="40.443258" lon="-3.751102">
        <ele>589.760</ele>
        <time>2018-08-19T21:25:24Z</time>
      </trkpt>
      <trkpt lat="40.443233" lon="-3.751041">
        <ele>590.360</ele>
        <time>2018-08-19T21:25:26Z</time>
      </trkpt>
      <trkpt lat="40.443208" lon="-3.750985">
        <ele>590.686</ele>
        <time>2018-08-19T21:25:28Z</time>
      </trkpt>
      <trkpt lat="40.443184" lon="-3.750934">
        <ele>590.529</ele>
        <time>2018-08-19T21:25:30Z</time>
      </trkpt>
      <trkpt lat="40.443165" lon="-3.750879">
        <ele>590.638</ele>
        <time>2018-08-19T21:25:32Z</time>
      </trkpt>
      <trkpt lat="40.443149" lon="-3.750818">
        <ele>590.522</ele>
        <time>2018-08-19T21:25:34Z</time>
      </trkpt>
      <trkpt lat="40.443136" lon="-3.750756">
        <ele>590.593</ele>
        <time>2018-08-19T21:25:36Z</time>
      </trkpt>
      <trkpt lat="40.443124" lon="-3.750688">
        <ele>590.665</ele>
        <time>2018-08-19T21:25:38Z</time>
      </trkpt>
      <trkpt lat="40.443115" lon="-3.750618">
        <ele>591.121</ele>
        <time>2018-08-19T21:25:40Z</time>
      </trkpt>
      <trkpt lat="40.443108" lon="-3.750549">
        <ele>591.308</ele>
        <time>2018-08-19T21:25:42Z</time>
      </trkpt>
      <trkpt lat="40.443101" lon="-3.750479">
        <ele>591.981</ele>
        <time>2018-08-19T21:25:44Z</time>
      </trkpt>
      <trkpt lat="40.443092" lon="-3.750413">
        <ele>591.816</ele>
        <time>2018-08-19T21:25:46Z</time>
      </trkpt>
      <trkpt lat="40.443080" lon="-3.750354">
        <ele>592.426</ele>
        <time>2018-08-19T21:25:48Z</time>
      </trkpt>
      <trkpt lat="40.443067" lon="-3.750293">
        <ele>592.656</ele>
        <time>2018-08-19T21:25:50Z</time>
      </trkpt>
      <trkpt lat="40.443053" lon="-3.750232">
        <ele>592.852</ele>
        <time>2018-08-19T21:25:52Z</time>
      </trkpt>
      <trkpt lat="40.443036" lon="-3.750169">
        <ele>592.545</ele>
        <time>2018-08-19T21:25:54Z</time>
      </trkpt>
      <trkpt lat="40.443016" lon="-3.750104">
        <ele>592.224</ele>
        <time>2018-08-19T21:25:56Z</time>
      </trkpt>
      <trkpt lat="40.442994" lon="-3.750039">
        <ele>592.448</ele>
        <time>2018-08-19T21:25:58Z</time>
      </trkpt>
      <trkpt lat="40.442971" lon="-3.749973">
        <ele>592.357</ele>
        <time>2018-08-19T21:26:00Z</time>
      </trkpt>
      <trkpt lat="40.442946" lon="-3.749911">
        <ele>592.300</ele>
        <time>2018-08-19T21:26:02Z</time>
      </trkpt>
      <trkpt lat="40.442922" lon="-3.749848">
        <ele>592.220</ele>
        <time>2018-08-19T21:26:04Z</time>
      </trkpt>
      <trkpt lat="40.442900" lon="-3.749784">
        <ele>592.408</ele>
        <time>2018-08-19T21:26:06Z</time>
      </trkpt>
      <trkpt lat="40.442878" lon="-3.749720">
        <ele>592.647</ele>
        <time>2018-08-19T21:26:08Z</time>
      </trkpt>
      <trkpt lat="40.442853" lon="-3.749651">
        <ele>592.572</ele>
        <time>2018-08-19T21:26:10Z</time>
      </trkpt>
      <trkpt lat="40.442822" lon="-3.749580">
        <ele>592.422</ele>
        <time>2018-08-19T21:26:12Z</time>
      </trkpt>
      <trkpt lat="40.442789" lon="-3.749510">
        <ele>592.192</ele>
        <time>2018-08-19T21:26:14Z</time>
      </trkpt>
      <trkpt lat="40.442752" lon="-3.749433">
        <ele>591.838</ele>
        <time>2018-08-19T21:26:16Z</time>
      </trkpt>
      <trkpt lat="40.442714" lon="-3.749355">
        <ele>591.721</ele>
        <time>2018-08-19T21:26:18Z</time>
      </trkpt>
      <trkpt lat="40.442676" lon="-3.749276">
        <ele>591.660</ele>
        <time>2018-08-19T21:26:20Z</time>
      </trkpt>
      <trkpt lat="40.442637" lon="-3.749195">
        <ele>591.564</ele>
        <time>2018-08-19T21:26:22Z</time>
      </trkpt>
      <trkpt lat="40.442594" lon="-3.749112">
        <ele>591.364</ele>
        <time>2018-08-19T21:26:24Z</time>
      </trkpt>
      <trkpt lat="40.442545" lon="-3.749028">
        <ele>591.106</ele>
        <time>2018-08-19T21:26:26Z</time>
      </trkpt>
      <trkpt lat="40.442494" lon="-3.748945">
        <ele>591.016</ele>
        <time>2018-08-19T21:26:28Z</time>
      </trkpt>
      <trkpt lat="40.442443" lon="-3.748866">
        <ele>591.008</ele>
        <time>2018-08-19T21:26:30Z</time>
      </trkpt>
      <trkpt lat="40.442391" lon="-3.748792">
        <ele>590.948</ele>
        <time>2018-08-19T21:26:32Z</time>
      </trkpt>
      <trkpt lat="40.442345" lon="-3.748727">
        <ele>590.943</ele>
        <time>2018-08-19T21:26:34Z</time>
      </trkpt>
      <trkpt lat="40.442302" lon="-3.748673">
        <ele>591.293</ele>
        <time>2018-08-19T21:26:36Z</time>
      </trkpt>
      <trkpt lat="40.442251" lon="-3.748627">
        <ele>591.223</ele>
        <time>2018-08-19T21:26:38Z</time>
      </trkpt>
      <trkpt lat="40.442198" lon="-3.748587">
        <ele>591.329</ele>
        <time>2018-08-19T21:26:40Z</time>
      </trkpt>
      <trkpt lat="40.442143" lon="-3.748545">
        <ele>591.252</ele>
        <time>2018-08-19T21:26:42Z</time>
      </trkpt>
      <trkpt lat="40.442087" lon="-3.748500">
        <ele>591.351</ele>
        <time>2018-08-19T21:26:44Z</time>
      </trkpt>
      <trkpt lat="40.442034" lon="-3.748444">
        <ele>590.965</ele>
        <time>2018-08-19T21:26:46Z</time>
      </trkpt>
      <trkpt lat="40.441981" lon="-3.748382">
        <ele>590.913</ele>
        <time>2018-08-19T21:26:48Z</time>
      </trkpt>
      <trkpt lat="40.441928" lon="-3.748319">
        <ele>590.843</ele>
        <time>2018-08-19T21:26:50Z</time>
      </trkpt>
      <trkpt lat="40.441874" lon="-3.748257">
        <ele>590.807</ele>
        <time>2018-08-19T21:26:52Z</time>
      </trkpt>
      <trkpt lat="40.441821" lon="-3.748195">
        <ele>590.908</ele>
        <time>2018-08-19T21:26:54Z</time>
      </trkpt>
      <trkpt lat="40.441770" lon="-3.748127">
        <ele>590.963</ele>
        <time>2018-08-19T21:26:56Z</time>
      </trkpt>
      <trkpt lat="40.441725" lon="-3.748060">
        <ele>590.818</ele>
        <time>2018-08-19T21:26:58Z</time>
      </trkpt>
      <trkpt lat="40.441682" lon="-3.747999">
        <ele>590.768</ele>
        <time>2018-08-19T21:27:00Z</time>
      </trkpt>
      <trkpt lat="40.441642" lon="-3.747936">
        <ele>590.898</ele>
        <time>2018-08-19T21:27:02Z</time>
      </trkpt>
      <trkpt lat="40.441601" lon="-3.747874">
        <ele>590.984</ele>
        <time>2018-08-19T21:27:04Z</time>
      </trkpt>
      <trkpt lat="40.441558" lon="-3.747808">
        <ele>591.067</ele>
        <time>2018-08-19T21:27:07Z</time>
      </trkpt>
      <trkpt lat="40.441511" lon="-3.747738">
        <ele>591.066</ele>
        <time>2018-08-19T21:27:09Z</time>
      </trkpt>
      <trkpt lat="40.441462" lon="-3.747671">
        <ele>590.860</ele>
        <time>2018-08-19T21:27:11Z</time>
      </trkpt>
      <trkpt lat="40.441417" lon="-3.747612">
        <ele>591.198</ele>
        <time>2018-08-19T21:27:13Z</time>
      </trkpt>
      <trkpt lat="40.441375" lon="-3.747554">
        <ele>591.215</ele>
        <time>2018-08-19T21:27:15Z</time>
      </trkpt>
      <trkpt lat="40.441334" lon="-3.747489">
        <ele>591.326</ele>
        <time>2018-08-19T21:27:17Z</time>
      </trkpt>
      <trkpt lat="40.441295" lon="-3.747421">
        <ele>591.308</ele>
        <time>2018-08-19T21:27:19Z</time>
      </trkpt>
      <trkpt lat="40.441259" lon="-3.747359">
        <ele>591.541</ele>
        <time>2018-08-19T21:27:21Z</time>
      </trkpt>
      <trkpt lat="40.441224" lon="-3.747295">
        <ele>591.746</ele>
        <time>2018-08-19T21:27:23Z</time>
      </trkpt>
      <trkpt lat="40.441189" lon="-3.747231">
        <ele>591.956</ele>
        <time>2018-08-19T21:27:25Z</time>
      </trkpt>
      <trkpt lat="40.441147" lon="-3.747168">
        <ele>591.866</ele>
        <time>2018-08-19T21:27:27Z</time>
      </trkpt>
      <trkpt lat="40.441106" lon="-3.747107">
        <ele>591.812</ele>
        <time>2018-08-19T21:27:29Z</time>
      </trkpt>
      <trkpt lat="40.441066" lon="-3.747051">
        <ele>592.045</ele>
        <time>2018-08-19T21:27:31Z</time>
      </trkpt>
      <trkpt lat="40.441028" lon="-3.746999">
        <ele>592.434</ele>
        <time>2018-08-19T21:27:33Z</time>
      </trkpt>
      <trkpt lat="40.440993" lon="-3.746948">
        <ele>592.638</ele>
        <time>2018-08-19T21:27:35Z</time>
      </trkpt>
      <trkpt lat="40.440952" lon="-3.746896">
        <ele>592.317</ele>
        <time>2018-08-19T21:27:37Z</time>
      </trkpt>
      <trkpt lat="40.440907" lon="-3.746839">
        <ele>592.287</ele>
        <time>2018-08-19T21:27:39Z</time>
      </trkpt>
      <trkpt lat="40.440861" lon="-3.746787">
        <ele>592.415</ele>
        <time>2018-08-19T21:27:41Z</time>
      </trkpt>
      <trkpt lat="40.440814" lon="-3.746740">
        <ele>592.508</ele>
        <time>2018-08-19T21:27:43Z</time>
      </trkpt>
      <trkpt lat="40.440767" lon="-3.746695">
        <ele>592.863</ele>
        <time>2018-08-19T21:27:45Z</time>
      </trkpt>
      <trkpt lat="40.440724" lon="-3.746651">
        <ele>592.778</ele>
        <time>2018-08-19T21:27:47Z</time>
      </trkpt>
      <trkpt lat="40.440690" lon="-3.746611">
        <ele>592.798</ele>
        <time>2018-08-19T21:27:49Z</time>
      </trkpt>
      <trkpt lat="40.440645" lon="-3.746563">
        <ele>592.818</ele>
        <time>2018-08-19T21:27:52Z</time>
      </trkpt>
      <trkpt lat="40.440589" lon="-3.746513">
        <ele>593.064</ele>
        <time>2018-08-19T21:27:55Z</time>
      </trkpt>
      <trkpt lat="40.440544" lon="-3.746478">
        <ele>592.987</ele>
        <time>2018-08-19T21:27:57Z</time>
      </trkpt>
      <trkpt lat="40.440496" lon="-3.746443">
        <ele>592.956</ele>
        <time>2018-08-19T21:27:59Z</time>
      </trkpt>
      <trkpt lat="40.440453" lon="-3.746410">
        <ele>592.810</ele>
        <time>2018-08-19T21:28:01Z</time>
      </trkpt>
      <trkpt lat="40.440413" lon="-3.746377">
        <ele>592.791</ele>
        <time>2018-08-19T21:28:03Z</time>
      </trkpt>
      <trkpt lat="40.440374" lon="-3.746344">
        <ele>592.681</ele>
        <time>2018-08-19T21:28:05Z</time>
      </trkpt>
      <trkpt lat="40.440337" lon="-3.746310">
        <ele>592.419</ele>
        <time>2018-08-19T21:28:07Z</time>
      </trkpt>
      <trkpt lat="40.440288" lon="-3.746275">
        <ele>591.808</ele>
        <time>2018-08-19T21:28:09Z</time>
      </trkpt>
      <trkpt lat="40.440240" lon="-3.746243">
        <ele>592.051</ele>
        <time>2018-08-19T21:28:11Z</time>
      </trkpt>
      <trkpt lat="40.440193" lon="-3.746214">
        <ele>591.726</ele>
        <time>2018-08-19T21:28:13Z</time>
      </trkpt>
      <trkpt lat="40.440147" lon="-3.746186">
        <ele>591.826</ele>
        <time>2018-08-19T21:28:15Z</time>
      </trkpt>
      <trkpt lat="40.440097" lon="-3.746158">
        <ele>591.756</ele>
        <time>2018-08-19T21:28:17Z</time>
      </trkpt>
      <trkpt lat="40.440037" lon="-3.746121">
        <ele>592.062</ele>
        <time>2018-08-19T21:28:19Z</time>
      </trkpt>
      <trkpt lat="40.439979" lon="-3.746083">
        <ele>591.925</ele>
        <time>2018-08-19T21:28:21Z</time>
      </trkpt>
      <trkpt lat="40.439927" lon="-3.746049">
        <ele>592.134</ele>
        <time>2018-08-19T21:28:23Z</time>
      </trkpt>
      <trkpt lat="40.439880" lon="-3.746012">
        <ele>592.048</ele>
        <time>2018-08-19T21:28:25Z</time>
      </trkpt>
      <trkpt lat="40.439836" lon="-3.745972">
        <ele>591.873</ele>
        <time>2018-08-19T21:28:27Z</time>
      </trkpt>
      <trkpt lat="40.439788" lon="-3.745931">
        <ele>591.885</ele>
        <time>2018-08-19T21:28:29Z</time>
      </trkpt>
      <trkpt lat="40.439735" lon="-3.745892">
        <ele>591.613</ele>
        <time>2018-08-19T21:28:31Z</time>
      </trkpt>
      <trkpt lat="40.439675" lon="-3.745850">
        <ele>591.208</ele>
        <time>2018-08-19T21:28:33Z</time>
      </trkpt>
      <trkpt lat="40.439613" lon="-3.745807">
        <ele>591.389</ele>
        <time>2018-08-19T21:28:35Z</time>
      </trkpt>
      <trkpt lat="40.439561" lon="-3.745772">
        <ele>591.214</ele>
        <time>2018-08-19T21:28:37Z</time>
      </trkpt>
      <trkpt lat="40.439523" lon="-3.745739">
        <ele>591.074</ele>
        <time>2018-08-19T21:28:39Z</time>
      </trkpt>
      <trkpt lat="40.439475" lon="-3.745689">
        <ele>591.084</ele>
        <time>2018-08-19T21:28:42Z</time>
      </trkpt>
      <trkpt lat="40.439433" lon="-3.745655">
        <ele>590.920</ele>
        <time>2018-08-19T21:28:44Z</time>
      </trkpt>
      <trkpt lat="40.439375" lon="-3.745621">
        <ele>590.873</ele>
        <time>2018-08-19T21:28:46Z</time>
      </trkpt>
      <trkpt lat="40.439316" lon="-3.745592">
        <ele>590.832</ele>
        <time>2018-08-19T21:28:48Z</time>
      </trkpt>
      <trkpt lat="40.439254" lon="-3.745562">
        <ele>590.686</ele>
        <time>2018-08-19T21:28:50Z</time>
      </trkpt>
      <trkpt lat="40.439206" lon="-3.745530">
        <ele>590.771</ele>
        <time>2018-08-19T21:28:52Z</time>
      </trkpt>
      <trkpt lat="40.439158" lon="-3.745496">
        <ele>590.841</ele>
        <time>2018-08-19T21:28:54Z</time>
      </trkpt>
      <trkpt lat="40.439101" lon="-3.745460">
        <ele>591.215</ele>
        <time>2018-08-19T21:28:57Z</time>
      </trkpt>
      <trkpt lat="40.439055" lon="-3.745429">
        <ele>591.508</ele>
        <time>2018-08-19T21:29:00Z</time>
      </trkpt>
      <trkpt lat="40.439002" lon="-3.745399">
        <ele>591.469</ele>
        <time>2018-08-19T21:29:03Z</time>
      </trkpt>
      <trkpt lat="40.438953" lon="-3.745368">
        <ele>591.894</ele>
        <time>2018-08-19T21:29:06Z</time>
      </trkpt>
      <trkpt lat="40.438901" lon="-3.745346">
        <ele>591.944</ele>
        <time>2018-08-19T21:29:09Z</time>
      </trkpt>
      <trkpt lat="40.438842" lon="-3.745330">
        <ele>592.054</ele>
        <time>2018-08-19T21:29:12Z</time>
      </trkpt>
      <trkpt lat="40.438786" lon="-3.745326">
        <ele>592.210</ele>
        <time>2018-08-19T21:29:15Z</time>
      </trkpt>
      <trkpt lat="40.438729" lon="-3.745340">
        <ele>592.993</ele>
        <time>2018-08-19T21:29:19Z</time>
      </trkpt>
      <trkpt lat="40.438665" lon="-3.745332">
        <ele>593.882</ele>
        <time>2018-08-19T21:29:22Z</time>
      </trkpt>
      <trkpt lat="40.438619" lon="-3.745312">
        <ele>594.716</ele>
        <time>2018-08-19T21:29:24Z</time>
      </trkpt>
      <trkpt lat="40.438575" lon="-3.745286">
        <ele>594.713</ele>
        <time>2018-08-19T21:29:26Z</time>
      </trkpt>
      <trkpt lat="40.438529" lon="-3.745257">
        <ele>594.743</ele>
        <time>2018-08-19T21:29:29Z</time>
      </trkpt>
      <trkpt lat="40.438486" lon="-3.745234">
        <ele>594.407</ele>
        <time>2018-08-19T21:29:37Z</time>
      </trkpt>
      <trkpt lat="40.438442" lon="-3.745217">
        <ele>594.208</ele>
        <time>2018-08-19T21:29:50Z</time>
      </trkpt>
      <trkpt lat="40.438388" lon="-3.745200">
        <ele>594.533</ele>
        <time>2018-08-19T21:29:53Z</time>
      </trkpt>
      <trkpt lat="40.438334" lon="-3.745182">
        <ele>594.448</ele>
        <time>2018-08-19T21:29:56Z</time>
      </trkpt>
      <trkpt lat="40.438269" lon="-3.745167">
        <ele>594.498</ele>
        <time>2018-08-19T21:29:59Z</time>
      </trkpt>
      <trkpt lat="40.438221" lon="-3.745158">
        <ele>594.538</ele>
        <time>2018-08-19T21:30:01Z</time>
      </trkpt>
      <trkpt lat="40.438168" lon="-3.745145">
        <ele>594.484</ele>
        <time>2018-08-19T21:30:03Z</time>
      </trkpt>
      <trkpt lat="40.438108" lon="-3.745124">
        <ele>594.647</ele>
        <time>2018-08-19T21:30:05Z</time>
      </trkpt>
      <trkpt lat="40.438045" lon="-3.745102">
        <ele>594.596</ele>
        <time>2018-08-19T21:30:07Z</time>
      </trkpt>
      <trkpt lat="40.437976" lon="-3.745082">
        <ele>594.630</ele>
        <time>2018-08-19T21:30:09Z</time>
      </trkpt>
      <trkpt lat="40.437902" lon="-3.745062">
        <ele>594.822</ele>
        <time>2018-08-19T21:30:11Z</time>
      </trkpt>
      <trkpt lat="40.437835" lon="-3.745039">
        <ele>594.562</ele>
        <time>2018-08-19T21:30:13Z</time>
      </trkpt>
      <trkpt lat="40.437772" lon="-3.745019">
        <ele>594.608</ele>
        <time>2018-08-19T21:30:15Z</time>
      </trkpt>
      <trkpt lat="40.437708" lon="-3.745006">
        <ele>594.408</ele>
        <time>2018-08-19T21:30:17Z</time>
      </trkpt>
      <trkpt lat="40.437647" lon="-3.744997">
        <ele>594.354</ele>
        <time>2018-08-19T21:30:19Z</time>
      </trkpt>
      <trkpt lat="40.437591" lon="-3.744992">
        <ele>594.569</ele>
        <time>2018-08-19T21:30:21Z</time>
      </trkpt>
      <trkpt lat="40.437533" lon="-3.744988">
        <ele>594.639</ele>
        <time>2018-08-19T21:30:23Z</time>
      </trkpt>
      <trkpt lat="40.437484" lon="-3.744980">
        <ele>594.799</ele>
        <time>2018-08-19T21:30:25Z</time>
      </trkpt>
      <trkpt lat="40.437422" lon="-3.744967">
        <ele>595.065</ele>
        <time>2018-08-19T21:30:28Z</time>
      </trkpt>
      <trkpt lat="40.437370" lon="-3.744969">
        <ele>595.318</ele>
        <time>2018-08-19T21:30:31Z</time>
      </trkpt>
      <trkpt lat="40.437313" lon="-3.744991">
        <ele>596.067</ele>
        <time>2018-08-19T21:30:35Z</time>
      </trkpt>
      <trkpt lat="40.437255" lon="-3.744987">
        <ele>595.961</ele>
        <time>2018-08-19T21:30:38Z</time>
      </trkpt>
      <trkpt lat="40.437202" lon="-3.744969">
        <ele>595.878</ele>
        <time>2018-08-19T21:30:41Z</time>
      </trkpt>
      <trkpt lat="40.437156" lon="-3.744945">
        <ele>596.233</ele>
        <time>2018-08-19T21:30:44Z</time>
      </trkpt>
      <trkpt lat="40.437099" lon="-3.744905">
        <ele>596.326</ele>
        <time>2018-08-19T21:30:47Z</time>
      </trkpt>
      <trkpt lat="40.437060" lon="-3.744871">
        <ele>596.408</ele>
        <time>2018-08-19T21:30:49Z</time>
      </trkpt>
      <trkpt lat="40.437021" lon="-3.744831">
        <ele>596.339</ele>
        <time>2018-08-19T21:30:51Z</time>
      </trkpt>
      <trkpt lat="40.436982" lon="-3.744788">
        <ele>596.114</ele>
        <time>2018-08-19T21:30:53Z</time>
      </trkpt>
      <trkpt lat="40.436941" lon="-3.744743">
        <ele>596.044</ele>
        <time>2018-08-19T21:30:55Z</time>
      </trkpt>
      <trkpt lat="40.436899" lon="-3.744698">
        <ele>596.354</ele>
        <time>2018-08-19T21:30:57Z</time>
      </trkpt>
      <trkpt lat="40.436857" lon="-3.744655">
        <ele>596.010</ele>
        <time>2018-08-19T21:30:59Z</time>
      </trkpt>
      <trkpt lat="40.436820" lon="-3.744619">
        <ele>595.923</ele>
        <time>2018-08-19T21:31:01Z</time>
      </trkpt>
      <trkpt lat="40.436773" lon="-3.744575">
        <ele>595.332</ele>
        <time>2018-08-19T21:31:04Z</time>
      </trkpt>
      <trkpt lat="40.436728" lon="-3.744530">
        <ele>595.496</ele>
        <time>2018-08-19T21:31:07Z</time>
      </trkpt>
      <trkpt lat="40.436686" lon="-3.744486">
        <ele>595.593</ele>
        <time>2018-08-19T21:31:10Z</time>
      </trkpt>
      <trkpt lat="40.436653" lon="-3.744445">
        <ele>595.165</ele>
        <time>2018-08-19T21:31:14Z</time>
      </trkpt>
      <trkpt lat="40.436619" lon="-3.744398">
        <ele>594.821</ele>
        <time>2018-08-19T21:32:11Z</time>
      </trkpt>
      <trkpt lat="40.436565" lon="-3.744363">
        <ele>595.408</ele>
        <time>2018-08-19T21:32:16Z</time>
      </trkpt>
      <trkpt lat="40.436518" lon="-3.744313">
        <ele>595.511</ele>
        <time>2018-08-19T21:32:19Z</time>
      </trkpt>
      <trkpt lat="40.436464" lon="-3.744258">
        <ele>595.356</ele>
        <time>2018-08-19T21:32:22Z</time>
      </trkpt>
      <trkpt lat="40.436422" lon="-3.744213">
        <ele>595.336</ele>
        <time>2018-08-19T21:32:24Z</time>
      </trkpt>
      <trkpt lat="40.436378" lon="-3.744164">
        <ele>595.266</ele>
        <time>2018-08-19T21:32:26Z</time>
      </trkpt>
      <trkpt lat="40.436335" lon="-3.744116">
        <ele>595.252</ele>
        <time>2018-08-19T21:32:28Z</time>
      </trkpt>
      <trkpt lat="40.436293" lon="-3.744066">
        <ele>595.145</ele>
        <time>2018-08-19T21:32:30Z</time>
      </trkpt>
      <trkpt lat="40.436254" lon="-3.744015">
        <ele>594.984</ele>
        <time>2018-08-19T21:32:32Z</time>
      </trkpt>
      <trkpt lat="40.436215" lon="-3.743964">
        <ele>594.948</ele>
        <time>2018-08-19T21:32:34Z</time>
      </trkpt>
      <trkpt lat="40.436176" lon="-3.743916">
        <ele>594.914</ele>
        <time>2018-08-19T21:32:36Z</time>
      </trkpt>
      <trkpt lat="40.436138" lon="-3.743867">
        <ele>594.854</ele>
        <time>2018-08-19T21:32:38Z</time>
      </trkpt>
      <trkpt lat="40.436100" lon="-3.743818">
        <ele>594.609</ele>
        <time>2018-08-19T21:32:40Z</time>
      </trkpt>
      <trkpt lat="40.436064" lon="-3.743774">
        <ele>594.708</ele>
        <time>2018-08-19T21:32:42Z</time>
      </trkpt>
      <trkpt lat="40.436028" lon="-3.743732">
        <ele>594.983</ele>
        <time>2018-08-19T21:32:44Z</time>
      </trkpt>
      <trkpt lat="40.435989" lon="-3.743685">
        <ele>595.028</ele>
        <time>2018-08-19T21:32:46Z</time>
      </trkpt>
      <trkpt lat="40.435949" lon="-3.743640">
        <ele>595.178</ele>
        <time>2018-08-19T21:32:48Z</time>
      </trkpt>
      <trkpt lat="40.435907" lon="-3.743597">
        <ele>594.738</ele>
        <time>2018-08-19T21:32:50Z</time>
      </trkpt>
      <trkpt lat="40.435866" lon="-3.743551">
        <ele>594.644</ele>
        <time>2018-08-19T21:32:52Z</time>
      </trkpt>
      <trkpt lat="40.435824" lon="-3.743501">
        <ele>594.747</ele>
        <time>2018-08-19T21:32:54Z</time>
      </trkpt>
      <trkpt lat="40.435782" lon="-3.743451">
        <ele>594.476</ele>
        <time>2018-08-19T21:32:56Z</time>
      </trkpt>
      <trkpt lat="40.435737" lon="-3.743395">
        <ele>594.490</ele>
        <time>2018-08-19T21:32:58Z</time>
      </trkpt>
      <trkpt lat="40.435691" lon="-3.743338">
        <ele>594.326</ele>
        <time>2018-08-19T21:33:00Z</time>
      </trkpt>
      <trkpt lat="40.435645" lon="-3.743277">
        <ele>593.947</ele>
        <time>2018-08-19T21:33:02Z</time>
      </trkpt>
      <trkpt lat="40.435600" lon="-3.743217">
        <ele>593.911</ele>
        <time>2018-08-19T21:33:04Z</time>
      </trkpt>
      <trkpt lat="40.435557" lon="-3.743154">
        <ele>593.908</ele>
        <time>2018-08-19T21:33:06Z</time>
      </trkpt>
      <trkpt lat="40.435516" lon="-3.743093">
        <ele>593.724</ele>
        <time>2018-08-19T21:33:08Z</time>
      </trkpt>
      <trkpt lat="40.435477" lon="-3.743035">
        <ele>593.629</ele>
        <time>2018-08-19T21:33:10Z</time>
      </trkpt>
      <trkpt lat="40.435445" lon="-3.742977">
        <ele>593.319</ele>
        <time>2018-08-19T21:33:12Z</time>
      </trkpt>
      <trkpt lat="40.435418" lon="-3.742915">
        <ele>592.979</ele>
        <time>2018-08-19T21:33:14Z</time>
      </trkpt>
      <trkpt lat="40.435394" lon="-3.742845">
        <ele>591.935</ele>
        <time>2018-08-19T21:33:16Z</time>
      </trkpt>
      <trkpt lat="40.435368" lon="-3.742770">
        <ele>590.948</ele>
        <time>2018-08-19T21:33:18Z</time>
      </trkpt>
      <trkpt lat="40.435338" lon="-3.742684">
        <ele>589.567</ele>
        <time>2018-08-19T21:33:20Z</time>
      </trkpt>
      <trkpt lat="40.435304" lon="-3.742590">
        <ele>588.221</ele>
        <time>2018-08-19T21:33:22Z</time>
      </trkpt>
      <trkpt lat="40.435218" lon="-3.742384">
        <ele>586.444</ele>
        <time>2018-08-19T21:33:24Z</time>
      </trkpt>
      <trkpt lat="40.435197" lon="-3.742319">
        <ele>586.005</ele>
        <time>2018-08-19T21:33:25Z</time>
      </trkpt>
      <trkpt lat="40.435174" lon="-3.742263">
        <ele>585.715</ele>
        <time>2018-08-19T21:33:26Z</time>
      </trkpt>
      <trkpt lat="40.435146" lon="-3.742207">
        <ele>585.208</ele>
        <time>2018-08-19T21:33:27Z</time>
      </trkpt>
      <trkpt lat="40.435114" lon="-3.742140">
        <ele>584.986</ele>
        <time>2018-08-19T21:33:28Z</time>
      </trkpt>
      <trkpt lat="40.435079" lon="-3.742084">
        <ele>584.741</ele>
        <time>2018-08-19T21:33:29Z</time>
      </trkpt>
      <trkpt lat="40.435048" lon="-3.742033">
        <ele>584.731</ele>
        <time>2018-08-19T21:33:30Z</time>
      </trkpt>
      <trkpt lat="40.435018" lon="-3.741987">
        <ele>584.721</ele>
        <time>2018-08-19T21:33:31Z</time>
      </trkpt>
      <trkpt lat="40.434990" lon="-3.741941">
        <ele>584.767</ele>
        <time>2018-08-19T21:33:32Z</time>
      </trkpt>
      <trkpt lat="40.434970" lon="-3.741888">
        <ele>584.610</ele>
        <time>2018-08-19T21:33:33Z</time>
      </trkpt>
      <trkpt lat="40.434926" lon="-3.741803">
        <ele>584.719</ele>
        <time>2018-08-19T21:33:35Z</time>
      </trkpt>
      <trkpt lat="40.434882" lon="-3.741735">
        <ele>584.663</ele>
        <time>2018-08-19T21:33:37Z</time>
      </trkpt>
      <trkpt lat="40.434856" lon="-3.741638">
        <ele>584.727</ele>
        <time>2018-08-19T21:33:39Z</time>
      </trkpt>
      <trkpt lat="40.434825" lon="-3.741554">
        <ele>584.868</ele>
        <time>2018-08-19T21:33:41Z</time>
      </trkpt>
      <trkpt lat="40.434789" lon="-3.741485">
        <ele>584.714</ele>
        <time>2018-08-19T21:33:43Z</time>
      </trkpt>
      <trkpt lat="40.434749" lon="-3.741421">
        <ele>584.708</ele>
        <time>2018-08-19T21:33:45Z</time>
      </trkpt>
      <trkpt lat="40.434716" lon="-3.741358">
        <ele>584.484</ele>
        <time>2018-08-19T21:33:48Z</time>
      </trkpt>
      <trkpt lat="40.434679" lon="-3.741283">
        <ele>584.319</ele>
        <time>2018-08-19T21:33:51Z</time>
      </trkpt>
      <trkpt lat="40.434658" lon="-3.741225">
        <ele>584.569</ele>
        <time>2018-08-19T21:33:53Z</time>
      </trkpt>
      <trkpt lat="40.434639" lon="-3.741162">
        <ele>584.329</ele>
        <time>2018-08-19T21:33:55Z</time>
      </trkpt>
      <trkpt lat="40.434619" lon="-3.741104">
        <ele>584.275</ele>
        <time>2018-08-19T21:33:57Z</time>
      </trkpt>
      <trkpt lat="40.434598" lon="-3.741046">
        <ele>584.158</ele>
        <time>2018-08-19T21:33:59Z</time>
      </trkpt>
      <trkpt lat="40.434580" lon="-3.740980">
        <ele>584.127</ele>
        <time>2018-08-19T21:34:01Z</time>
      </trkpt>
      <trkpt lat="40.434563" lon="-3.740906">
        <ele>584.181</ele>
        <time>2018-08-19T21:34:03Z</time>
      </trkpt>
      <trkpt lat="40.434549" lon="-3.740827">
        <ele>584.188</ele>
        <time>2018-08-19T21:34:05Z</time>
      </trkpt>
      <trkpt lat="40.434532" lon="-3.740749">
        <ele>584.324</ele>
        <time>2018-08-19T21:34:07Z</time>
      </trkpt>
      <trkpt lat="40.434514" lon="-3.740676">
        <ele>584.226</ele>
        <time>2018-08-19T21:34:09Z</time>
      </trkpt>
      <trkpt lat="40.434496" lon="-3.740606">
        <ele>584.008</ele>
        <time>2018-08-19T21:34:11Z</time>
      </trkpt>
      <trkpt lat="40.434477" lon="-3.740542">
        <ele>583.970</ele>
        <time>2018-08-19T21:34:13Z</time>
      </trkpt>
      <trkpt lat="40.434460" lon="-3.740477">
        <ele>584.185</ele>
        <time>2018-08-19T21:34:15Z</time>
      </trkpt>
      <trkpt lat="40.434440" lon="-3.740405">
        <ele>584.025</ele>
        <time>2018-08-19T21:34:17Z</time>
      </trkpt>
      <trkpt lat="40.434416" lon="-3.740334">
        <ele>583.875</ele>
        <time>2018-08-19T21:34:19Z</time>
      </trkpt>
      <trkpt lat="40.434390" lon="-3.740266">
        <ele>583.761</ele>
        <time>2018-08-19T21:34:21Z</time>
      </trkpt>
      <trkpt lat="40.434367" lon="-3.740198">
        <ele>584.194</ele>
        <time>2018-08-19T21:34:23Z</time>
      </trkpt>
      <trkpt lat="40.434341" lon="-3.740140">
        <ele>583.893</ele>
        <time>2018-08-19T21:34:25Z</time>
      </trkpt>
      <trkpt lat="40.434310" lon="-3.740079">
        <ele>583.997</ele>
        <time>2018-08-19T21:34:27Z</time>
      </trkpt>
      <trkpt lat="40.434281" lon="-3.740010">
        <ele>583.939</ele>
        <time>2018-08-19T21:34:29Z</time>
      </trkpt>
      <trkpt lat="40.434257" lon="-3.739942">
        <ele>583.901</ele>
        <time>2018-08-19T21:34:31Z</time>
      </trkpt>
      <trkpt lat="40.434233" lon="-3.739875">
        <ele>583.921</ele>
        <time>2018-08-19T21:34:33Z</time>
      </trkpt>
      <trkpt lat="40.434213" lon="-3.739812">
        <ele>584.008</ele>
        <time>2018-08-19T21:34:35Z</time>
      </trkpt>
      <trkpt lat="40.434196" lon="-3.739754">
        <ele>583.845</ele>
        <time>2018-08-19T21:34:37Z</time>
      </trkpt>
      <trkpt lat="40.434187" lon="-3.739692">
        <ele>583.560</ele>
        <time>2018-08-19T21:34:39Z</time>
      </trkpt>
      <trkpt lat="40.434181" lon="-3.739631">
        <ele>583.530</ele>
        <time>2018-08-19T21:34:41Z</time>
      </trkpt>
      <trkpt lat="40.434162" lon="-3.739555">
        <ele>583.680</ele>
        <time>2018-08-19T21:34:44Z</time>
      </trkpt>
      <trkpt lat="40.434128" lon="-3.739489">
        <ele>583.526</ele>
        <time>2018-08-19T21:34:47Z</time>
      </trkpt>
      <trkpt lat="40.434095" lon="-3.739446">
        <ele>583.719</ele>
        <time>2018-08-19T21:34:49Z</time>
      </trkpt>
      <trkpt lat="40.434058" lon="-3.739408">
        <ele>583.798</ele>
        <time>2018-08-19T21:34:51Z</time>
      </trkpt>
      <trkpt lat="40.434020" lon="-3.739372">
        <ele>583.672</ele>
        <time>2018-08-19T21:34:53Z</time>
      </trkpt>
      <trkpt lat="40.433979" lon="-3.739335">
        <ele>583.679</ele>
        <time>2018-08-19T21:34:55Z</time>
      </trkpt>
      <trkpt lat="40.433931" lon="-3.739296">
        <ele>583.905</ele>
        <time>2018-08-19T21:34:57Z</time>
      </trkpt>
      <trkpt lat="40.433866" lon="-3.739257">
        <ele>584.025</ele>
        <time>2018-08-19T21:34:59Z</time>
      </trkpt>
      <trkpt lat="40.433800" lon="-3.739242">
        <ele>584.208</ele>
        <time>2018-08-19T21:35:01Z</time>
      </trkpt>
      <trkpt lat="40.433742" lon="-3.739226">
        <ele>584.039</ele>
        <time>2018-08-19T21:35:03Z</time>
      </trkpt>
      <trkpt lat="40.433695" lon="-3.739183">
        <ele>584.194</ele>
        <time>2018-08-19T21:35:05Z</time>
      </trkpt>
      <trkpt lat="40.433641" lon="-3.739147">
        <ele>584.214</ele>
        <time>2018-08-19T21:35:07Z</time>
      </trkpt>
      <trkpt lat="40.433582" lon="-3.739114">
        <ele>584.434</ele>
        <time>2018-08-19T21:35:09Z</time>
      </trkpt>
      <trkpt lat="40.433532" lon="-3.739082">
        <ele>584.390</ele>
        <time>2018-08-19T21:35:11Z</time>
      </trkpt>
      <trkpt lat="40.433477" lon="-3.739045">
        <ele>584.213</ele>
        <time>2018-08-19T21:35:13Z</time>
      </trkpt>
      <trkpt lat="40.433422" lon="-3.739003">
        <ele>584.122</ele>
        <time>2018-08-19T21:35:15Z</time>
      </trkpt>
      <trkpt lat="40.433367" lon="-3.738957">
        <ele>584.026</ele>
        <time>2018-08-19T21:35:17Z</time>
      </trkpt>
      <trkpt lat="40.433314" lon="-3.738905">
        <ele>584.048</ele>
        <time>2018-08-19T21:35:19Z</time>
      </trkpt>
      <trkpt lat="40.433258" lon="-3.738851">
        <ele>583.961</ele>
        <time>2018-08-19T21:35:21Z</time>
      </trkpt>
      <trkpt lat="40.433204" lon="-3.738795">
        <ele>583.717</ele>
        <time>2018-08-19T21:35:23Z</time>
      </trkpt>
      <trkpt lat="40.433149" lon="-3.738735">
        <ele>583.908</ele>
        <time>2018-08-19T21:35:25Z</time>
      </trkpt>
      <trkpt lat="40.433094" lon="-3.738674">
        <ele>583.796</ele>
        <time>2018-08-19T21:35:27Z</time>
      </trkpt>
      <trkpt lat="40.433041" lon="-3.738615">
        <ele>583.531</ele>
        <time>2018-08-19T21:35:29Z</time>
      </trkpt>
      <trkpt lat="40.432990" lon="-3.738558">
        <ele>583.431</ele>
        <time>2018-08-19T21:35:31Z</time>
      </trkpt>
      <trkpt lat="40.432942" lon="-3.738500">
        <ele>583.551</ele>
        <time>2018-08-19T21:35:33Z</time>
      </trkpt>
      <trkpt lat="40.432889" lon="-3.738443">
        <ele>583.387</ele>
        <time>2018-08-19T21:35:35Z</time>
      </trkpt>
      <trkpt lat="40.432834" lon="-3.738391">
        <ele>583.410</ele>
        <time>2018-08-19T21:35:37Z</time>
      </trkpt>
      <trkpt lat="40.432783" lon="-3.738352">
        <ele>583.299</ele>
        <time>2018-08-19T21:35:39Z</time>
      </trkpt>
      <trkpt lat="40.432740" lon="-3.738322">
        <ele>583.183</ele>
        <time>2018-08-19T21:35:41Z</time>
      </trkpt>
      <trkpt lat="40.432692" lon="-3.738295">
        <ele>583.524</ele>
        <time>2018-08-19T21:35:43Z</time>
      </trkpt>
      <trkpt lat="40.432640" lon="-3.738279">
        <ele>583.704</ele>
        <time>2018-08-19T21:35:45Z</time>
      </trkpt>
      <trkpt lat="40.432590" lon="-3.738266">
        <ele>584.014</ele>
        <time>2018-08-19T21:35:47Z</time>
      </trkpt>
      <trkpt lat="40.432538" lon="-3.738259">
        <ele>583.908</ele>
        <time>2018-08-19T21:35:49Z</time>
      </trkpt>
      <trkpt lat="40.432477" lon="-3.738258">
        <ele>583.794</ele>
        <time>2018-08-19T21:35:51Z</time>
      </trkpt>
      <trkpt lat="40.432416" lon="-3.738262">
        <ele>584.089</ele>
        <time>2018-08-19T21:35:53Z</time>
      </trkpt>
      <trkpt lat="40.432361" lon="-3.738267">
        <ele>584.259</ele>
        <time>2018-08-19T21:35:55Z</time>
      </trkpt>
      <trkpt lat="40.432298" lon="-3.738271">
        <ele>584.249</ele>
        <time>2018-08-19T21:35:57Z</time>
      </trkpt>
      <trkpt lat="40.432231" lon="-3.738270">
        <ele>584.385</ele>
        <time>2018-08-19T21:35:59Z</time>
      </trkpt>
      <trkpt lat="40.432166" lon="-3.738265">
        <ele>584.458</ele>
        <time>2018-08-19T21:36:01Z</time>
      </trkpt>
      <trkpt lat="40.432104" lon="-3.738257">
        <ele>584.267</ele>
        <time>2018-08-19T21:36:03Z</time>
      </trkpt>
      <trkpt lat="40.432044" lon="-3.738250">
        <ele>584.261</ele>
        <time>2018-08-19T21:36:05Z</time>
      </trkpt>
      <trkpt lat="40.431986" lon="-3.738244">
        <ele>584.027</ele>
        <time>2018-08-19T21:36:07Z</time>
      </trkpt>
      <trkpt lat="40.431928" lon="-3.738239">
        <ele>584.068</ele>
        <time>2018-08-19T21:36:09Z</time>
      </trkpt>
      <trkpt lat="40.431873" lon="-3.738231">
        <ele>583.914</ele>
        <time>2018-08-19T21:36:11Z</time>
      </trkpt>
      <trkpt lat="40.431819" lon="-3.738222">
        <ele>583.908</ele>
        <time>2018-08-19T21:36:13Z</time>
      </trkpt>
      <trkpt lat="40.431769" lon="-3.738214">
        <ele>584.314</ele>
        <time>2018-08-19T21:36:15Z</time>
      </trkpt>
      <trkpt lat="40.431718" lon="-3.738208">
        <ele>584.239</ele>
        <time>2018-08-19T21:36:17Z</time>
      </trkpt>
      <trkpt lat="40.431670" lon="-3.738202">
        <ele>584.289</ele>
        <time>2018-08-19T21:36:19Z</time>
      </trkpt>
      <trkpt lat="40.431622" lon="-3.738194">
        <ele>584.429</ele>
        <time>2018-08-19T21:36:21Z</time>
      </trkpt>
      <trkpt lat="40.431572" lon="-3.738186">
        <ele>584.455</ele>
        <time>2018-08-19T21:36:23Z</time>
      </trkpt>
      <trkpt lat="40.431521" lon="-3.738175">
        <ele>584.578</ele>
        <time>2018-08-19T21:36:25Z</time>
      </trkpt>
      <trkpt lat="40.431466" lon="-3.738159">
        <ele>584.627</ele>
        <time>2018-08-19T21:36:27Z</time>
      </trkpt>
      <trkpt lat="40.431411" lon="-3.738140">
        <ele>584.781</ele>
        <time>2018-08-19T21:36:29Z</time>
      </trkpt>
      <trkpt lat="40.431350" lon="-3.738119">
        <ele>584.768</ele>
        <time>2018-08-19T21:36:31Z</time>
      </trkpt>
      <trkpt lat="40.431271" lon="-3.738088">
        <ele>584.642</ele>
        <time>2018-08-19T21:36:33Z</time>
      </trkpt>
      <trkpt lat="40.431199" lon="-3.738056">
        <ele>584.226</ele>
        <time>2018-08-19T21:36:35Z</time>
      </trkpt>
      <trkpt lat="40.431133" lon="-3.738026">
        <ele>584.408</ele>
        <time>2018-08-19T21:36:37Z</time>
      </trkpt>
      <trkpt lat="40.431065" lon="-3.737995">
        <ele>584.618</ele>
        <time>2018-08-19T21:36:39Z</time>
      </trkpt>
      <trkpt lat="40.431001" lon="-3.737965">
        <ele>584.493</ele>
        <time>2018-08-19T21:36:41Z</time>
      </trkpt>
      <trkpt lat="40.430943" lon="-3.737938">
        <ele>584.483</ele>
        <time>2018-08-19T21:36:43Z</time>
      </trkpt>
      <trkpt lat="40.430889" lon="-3.737914">
        <ele>584.123</ele>
        <time>2018-08-19T21:36:45Z</time>
      </trkpt>
      <trkpt lat="40.430829" lon="-3.737883">
        <ele>584.049</ele>
        <time>2018-08-19T21:36:47Z</time>
      </trkpt>
      <trkpt lat="40.430767" lon="-3.737851">
        <ele>584.072</ele>
        <time>2018-08-19T21:36:49Z</time>
      </trkpt>
      <trkpt lat="40.430704" lon="-3.737819">
        <ele>583.881</ele>
        <time>2018-08-19T21:36:51Z</time>
      </trkpt>
      <trkpt lat="40.430636" lon="-3.737788">
        <ele>583.615</ele>
        <time>2018-08-19T21:36:53Z</time>
      </trkpt>
      <trkpt lat="40.430574" lon="-3.737762">
        <ele>583.534</ele>
        <time>2018-08-19T21:36:55Z</time>
      </trkpt>
      <trkpt lat="40.430512" lon="-3.737736">
        <ele>583.655</ele>
        <time>2018-08-19T21:36:57Z</time>
      </trkpt>
      <trkpt lat="40.430450" lon="-3.737711">
        <ele>583.510</ele>
        <time>2018-08-19T21:36:59Z</time>
      </trkpt>
      <trkpt lat="40.430387" lon="-3.737686">
        <ele>583.408</ele>
        <time>2018-08-19T21:37:01Z</time>
      </trkpt>
      <trkpt lat="40.430325" lon="-3.737654">
        <ele>583.425</ele>
        <time>2018-08-19T21:37:03Z</time>
      </trkpt>
      <trkpt lat="40.430258" lon="-3.737615">
        <ele>583.220</ele>
        <time>2018-08-19T21:37:05Z</time>
      </trkpt>
      <trkpt lat="40.430195" lon="-3.737578">
        <ele>583.220</ele>
        <time>2018-08-19T21:37:07Z</time>
      </trkpt>
      <trkpt lat="40.430138" lon="-3.737534">
        <ele>583.260</ele>
        <time>2018-08-19T21:37:09Z</time>
      </trkpt>
      <trkpt lat="40.430088" lon="-3.737488">
        <ele>583.026</ele>
        <time>2018-08-19T21:37:11Z</time>
      </trkpt>
      <trkpt lat="40.430038" lon="-3.737441">
        <ele>583.299</ele>
        <time>2018-08-19T21:37:13Z</time>
      </trkpt>
      <trkpt lat="40.429983" lon="-3.737396">
        <ele>583.178</ele>
        <time>2018-08-19T21:37:15Z</time>
      </trkpt>
      <trkpt lat="40.429924" lon="-3.737353">
        <ele>583.062</ele>
        <time>2018-08-19T21:37:17Z</time>
      </trkpt>
      <trkpt lat="40.429866" lon="-3.737306">
        <ele>582.754</ele>
        <time>2018-08-19T21:37:19Z</time>
      </trkpt>
      <trkpt lat="40.429809" lon="-3.737252">
        <ele>582.756</ele>
        <time>2018-08-19T21:37:21Z</time>
      </trkpt>
      <trkpt lat="40.429758" lon="-3.737203">
        <ele>582.811</ele>
        <time>2018-08-19T21:37:23Z</time>
      </trkpt>
      <trkpt lat="40.429705" lon="-3.737153">
        <ele>582.708</ele>
        <time>2018-08-19T21:37:25Z</time>
      </trkpt>
      <trkpt lat="40.429650" lon="-3.737101">
        <ele>582.777</ele>
        <time>2018-08-19T21:37:27Z</time>
      </trkpt>
      <trkpt lat="40.429603" lon="-3.737056">
        <ele>582.952</ele>
        <time>2018-08-19T21:37:29Z</time>
      </trkpt>
      <trkpt lat="40.429552" lon="-3.737009">
        <ele>582.912</ele>
        <time>2018-08-19T21:37:31Z</time>
      </trkpt>
      <trkpt lat="40.429494" lon="-3.736956">
        <ele>582.962</ele>
        <time>2018-08-19T21:37:33Z</time>
      </trkpt>
      <trkpt lat="40.429439" lon="-3.736902">
        <ele>583.148</ele>
        <time>2018-08-19T21:37:35Z</time>
      </trkpt>
      <trkpt lat="40.429384" lon="-3.736850">
        <ele>583.081</ele>
        <time>2018-08-19T21:37:37Z</time>
      </trkpt>
      <trkpt lat="40.429330" lon="-3.736800">
        <ele>583.270</ele>
        <time>2018-08-19T21:37:39Z</time>
      </trkpt>
      <trkpt lat="40.429280" lon="-3.736749">
        <ele>583.264</ele>
        <time>2018-08-19T21:37:41Z</time>
      </trkpt>
      <trkpt lat="40.429233" lon="-3.736699">
        <ele>583.062</ele>
        <time>2018-08-19T21:37:43Z</time>
      </trkpt>
      <trkpt lat="40.429183" lon="-3.736647">
        <ele>583.683</ele>
        <time>2018-08-19T21:37:45Z</time>
      </trkpt>
      <trkpt lat="40.429131" lon="-3.736595">
        <ele>583.411</ele>
        <time>2018-08-19T21:37:47Z</time>
      </trkpt>
      <trkpt lat="40.429078" lon="-3.736546">
        <ele>583.708</ele>
        <time>2018-08-19T21:37:49Z</time>
      </trkpt>
      <trkpt lat="40.429030" lon="-3.736500">
        <ele>583.738</ele>
        <time>2018-08-19T21:37:51Z</time>
      </trkpt>
      <trkpt lat="40.428985" lon="-3.736459">
        <ele>583.743</ele>
        <time>2018-08-19T21:37:53Z</time>
      </trkpt>
      <trkpt lat="40.428934" lon="-3.736417">
        <ele>583.723</ele>
        <time>2018-08-19T21:37:55Z</time>
      </trkpt>
      <trkpt lat="40.428879" lon="-3.736373">
        <ele>583.873</ele>
        <time>2018-08-19T21:37:57Z</time>
      </trkpt>
      <trkpt lat="40.428826" lon="-3.736333">
        <ele>583.779</ele>
        <time>2018-08-19T21:37:59Z</time>
      </trkpt>
      <trkpt lat="40.428770" lon="-3.736293">
        <ele>583.822</ele>
        <time>2018-08-19T21:38:01Z</time>
      </trkpt>
      <trkpt lat="40.428717" lon="-3.736254">
        <ele>584.061</ele>
        <time>2018-08-19T21:38:03Z</time>
      </trkpt>
      <trkpt lat="40.428658" lon="-3.736216">
        <ele>584.025</ele>
        <time>2018-08-19T21:38:05Z</time>
      </trkpt>
      <trkpt lat="40.428598" lon="-3.736180">
        <ele>584.051</ele>
        <time>2018-08-19T21:38:07Z</time>
      </trkpt>
      <trkpt lat="40.428538" lon="-3.736144">
        <ele>584.101</ele>
        <time>2018-08-19T21:38:09Z</time>
      </trkpt>
      <trkpt lat="40.428485" lon="-3.736107">
        <ele>584.211</ele>
        <time>2018-08-19T21:38:11Z</time>
      </trkpt>
      <trkpt lat="40.428431" lon="-3.736073">
        <ele>583.908</ele>
        <time>2018-08-19T21:38:13Z</time>
      </trkpt>
      <trkpt lat="40.428380" lon="-3.736037">
        <ele>584.037</ele>
        <time>2018-08-19T21:38:15Z</time>
      </trkpt>
      <trkpt lat="40.428323" lon="-3.736002">
        <ele>583.992</ele>
        <time>2018-08-19T21:38:17Z</time>
      </trkpt>
      <trkpt lat="40.428268" lon="-3.735963">
        <ele>583.842</ele>
        <time>2018-08-19T21:38:19Z</time>
      </trkpt>
      <trkpt lat="40.428216" lon="-3.735925">
        <ele>583.812</ele>
        <time>2018-08-19T21:38:21Z</time>
      </trkpt>
      <trkpt lat="40.428169" lon="-3.735890">
        <ele>583.958</ele>
        <time>2018-08-19T21:38:23Z</time>
      </trkpt>
      <trkpt lat="40.428127" lon="-3.735855">
        <ele>583.781</ele>
        <time>2018-08-19T21:38:25Z</time>
      </trkpt>
      <trkpt lat="40.428073" lon="-3.735812">
        <ele>583.610</ele>
        <time>2018-08-19T21:38:27Z</time>
      </trkpt>
      <trkpt lat="40.428008" lon="-3.735768">
        <ele>583.654</ele>
        <time>2018-08-19T21:38:29Z</time>
      </trkpt>
      <trkpt lat="40.427945" lon="-3.735722">
        <ele>583.545</ele>
        <time>2018-08-19T21:38:31Z</time>
      </trkpt>
      <trkpt lat="40.427886" lon="-3.735677">
        <ele>583.447</ele>
        <time>2018-08-19T21:38:33Z</time>
      </trkpt>
      <trkpt lat="40.427826" lon="-3.735631">
        <ele>583.311</ele>
        <time>2018-08-19T21:38:35Z</time>
      </trkpt>
      <trkpt lat="40.427767" lon="-3.735588">
        <ele>583.108</ele>
        <time>2018-08-19T21:38:37Z</time>
      </trkpt>
      <trkpt lat="40.427706" lon="-3.735546">
        <ele>583.116</ele>
        <time>2018-08-19T21:38:39Z</time>
      </trkpt>
      <trkpt lat="40.427648" lon="-3.735507">
        <ele>582.731</ele>
        <time>2018-08-19T21:38:41Z</time>
      </trkpt>
      <trkpt lat="40.427586" lon="-3.735468">
        <ele>582.651</ele>
        <time>2018-08-19T21:38:43Z</time>
      </trkpt>
      <trkpt lat="40.427524" lon="-3.735431">
        <ele>582.741</ele>
        <time>2018-08-19T21:38:45Z</time>
      </trkpt>
      <trkpt lat="40.427462" lon="-3.735398">
        <ele>582.257</ele>
        <time>2018-08-19T21:38:47Z</time>
      </trkpt>
      <trkpt lat="40.427400" lon="-3.735368">
        <ele>581.880</ele>
        <time>2018-08-19T21:38:49Z</time>
      </trkpt>
      <trkpt lat="40.427336" lon="-3.735341">
        <ele>581.779</ele>
        <time>2018-08-19T21:38:51Z</time>
      </trkpt>
      <trkpt lat="40.427275" lon="-3.735314">
        <ele>581.793</ele>
        <time>2018-08-19T21:38:53Z</time>
      </trkpt>
      <trkpt lat="40.427214" lon="-3.735286">
        <ele>581.618</ele>
        <time>2018-08-19T21:38:55Z</time>
      </trkpt>
      <trkpt lat="40.427152" lon="-3.735260">
        <ele>581.498</ele>
        <time>2018-08-19T21:38:57Z</time>
      </trkpt>
      <trkpt lat="40.427079" lon="-3.735237">
        <ele>581.317</ele>
        <time>2018-08-19T21:38:59Z</time>
      </trkpt>
      <trkpt lat="40.427004" lon="-3.735216">
        <ele>581.008</ele>
        <time>2018-08-19T21:39:01Z</time>
      </trkpt>
      <trkpt lat="40.426927" lon="-3.735199">
        <ele>581.033</ele>
        <time>2018-08-19T21:39:03Z</time>
      </trkpt>
      <trkpt lat="40.426849" lon="-3.735178">
        <ele>580.938</ele>
        <time>2018-08-19T21:39:05Z</time>
      </trkpt>
      <trkpt lat="40.426777" lon="-3.735155">
        <ele>580.998</ele>
        <time>2018-08-19T21:39:07Z</time>
      </trkpt>
      <trkpt lat="40.426712" lon="-3.735132">
        <ele>580.698</ele>
        <time>2018-08-19T21:39:09Z</time>
      </trkpt>
      <trkpt lat="40.426639" lon="-3.735112">
        <ele>580.414</ele>
        <time>2018-08-19T21:39:11Z</time>
      </trkpt>
      <trkpt lat="40.426568" lon="-3.735095">
        <ele>580.497</ele>
        <time>2018-08-19T21:39:13Z</time>
      </trkpt>
      <trkpt lat="40.426506" lon="-3.735076">
        <ele>580.316</ele>
        <time>2018-08-19T21:39:15Z</time>
      </trkpt>
      <trkpt lat="40.426453" lon="-3.735052">
        <ele>580.170</ele>
        <time>2018-08-19T21:39:17Z</time>
      </trkpt>
      <trkpt lat="40.426394" lon="-3.735025">
        <ele>580.274</ele>
        <time>2018-08-19T21:39:19Z</time>
      </trkpt>
      <trkpt lat="40.426335" lon="-3.735002">
        <ele>580.256</ele>
        <time>2018-08-19T21:39:21Z</time>
      </trkpt>
      <trkpt lat="40.426278" lon="-3.734983">
        <ele>580.321</ele>
        <time>2018-08-19T21:39:23Z</time>
      </trkpt>
      <trkpt lat="40.426220" lon="-3.734967">
        <ele>580.208</ele>
        <time>2018-08-19T21:39:25Z</time>
      </trkpt>
      <trkpt lat="40.426170" lon="-3.734946">
        <ele>580.379</ele>
        <time>2018-08-19T21:39:27Z</time>
      </trkpt>
      <trkpt lat="40.426112" lon="-3.734920">
        <ele>580.334</ele>
        <time>2018-08-19T21:39:29Z</time>
      </trkpt>
      <trkpt lat="40.426053" lon="-3.734885">
        <ele>580.424</ele>
        <time>2018-08-19T21:39:31Z</time>
      </trkpt>
      <trkpt lat="40.425993" lon="-3.734836">
        <ele>580.474</ele>
        <time>2018-08-19T21:39:33Z</time>
      </trkpt>
      <trkpt lat="40.425933" lon="-3.734776">
        <ele>580.680</ele>
        <time>2018-08-19T21:39:35Z</time>
      </trkpt>
      <trkpt lat="40.425882" lon="-3.734716">
        <ele>580.983</ele>
        <time>2018-08-19T21:39:37Z</time>
      </trkpt>
      <trkpt lat="40.425839" lon="-3.734658">
        <ele>581.362</ele>
        <time>2018-08-19T21:39:39Z</time>
      </trkpt>
      <trkpt lat="40.425796" lon="-3.734601">
        <ele>581.186</ele>
        <time>2018-08-19T21:39:41Z</time>
      </trkpt>
      <trkpt lat="40.425757" lon="-3.734544">
        <ele>581.062</ele>
        <time>2018-08-19T21:39:43Z</time>
      </trkpt>
      <trkpt lat="40.425722" lon="-3.734490">
        <ele>581.183</ele>
        <time>2018-08-19T21:39:45Z</time>
      </trkpt>
      <trkpt lat="40.425684" lon="-3.734434">
        <ele>581.311</ele>
        <time>2018-08-19T21:39:47Z</time>
      </trkpt>
      <trkpt lat="40.425644" lon="-3.734375">
        <ele>581.508</ele>
        <time>2018-08-19T21:39:49Z</time>
      </trkpt>
      <trkpt lat="40.425606" lon="-3.734320">
        <ele>581.538</ele>
        <time>2018-08-19T21:39:51Z</time>
      </trkpt>
      <trkpt lat="40.425568" lon="-3.734267">
        <ele>581.743</ele>
        <time>2018-08-19T21:39:53Z</time>
      </trkpt>
      <trkpt lat="40.425529" lon="-3.734213">
        <ele>582.043</ele>
        <time>2018-08-19T21:39:55Z</time>
      </trkpt>
      <trkpt lat="40.425493" lon="-3.734156">
        <ele>581.883</ele>
        <time>2018-08-19T21:39:57Z</time>
      </trkpt>
      <trkpt lat="40.425457" lon="-3.734101">
        <ele>581.939</ele>
        <time>2018-08-19T21:39:59Z</time>
      </trkpt>
      <trkpt lat="40.425424" lon="-3.734049">
        <ele>582.082</ele>
        <time>2018-08-19T21:40:01Z</time>
      </trkpt>
      <trkpt lat="40.425392" lon="-3.734000">
        <ele>582.341</ele>
        <time>2018-08-19T21:40:03Z</time>
      </trkpt>
      <trkpt lat="40.425349" lon="-3.733961">
        <ele>582.465</ele>
        <time>2018-08-19T21:40:06Z</time>
      </trkpt>
      <trkpt lat="40.425300" lon="-3.733938">
        <ele>582.846</ele>
        <time>2018-08-19T21:40:09Z</time>
      </trkpt>
      <trkpt lat="40.425250" lon="-3.733922">
        <ele>583.188</ele>
        <time>2018-08-19T21:40:12Z</time>
      </trkpt>
      <trkpt lat="40.425196" lon="-3.733902">
        <ele>583.216</ele>
        <time>2018-08-19T21:40:15Z</time>
      </trkpt>
      <trkpt lat="40.425141" lon="-3.733870">
        <ele>583.308</ele>
        <time>2018-08-19T21:40:18Z</time>
      </trkpt>
      <trkpt lat="40.425098" lon="-3.733845">
        <ele>583.246</ele>
        <time>2018-08-19T21:40:20Z</time>
      </trkpt>
      <trkpt lat="40.425044" lon="-3.733809">
        <ele>583.261</ele>
        <time>2018-08-19T21:40:23Z</time>
      </trkpt>
      <trkpt lat="40.424986" lon="-3.733766">
        <ele>583.391</ele>
        <time>2018-08-19T21:40:26Z</time>
      </trkpt>
      <trkpt lat="40.424952" lon="-3.733723">
        <ele>583.051</ele>
        <time>2018-08-19T21:40:28Z</time>
      </trkpt>
      <trkpt lat="40.424919" lon="-3.733670">
        <ele>583.047</ele>
        <time>2018-08-19T21:40:30Z</time>
      </trkpt>
      <trkpt lat="40.424888" lon="-3.733617">
        <ele>583.080</ele>
        <time>2018-08-19T21:40:32Z</time>
      </trkpt>
      <trkpt lat="40.424864" lon="-3.733565">
        <ele>583.079</ele>
        <time>2018-08-19T21:40:34Z</time>
      </trkpt>
      <trkpt lat="40.424840" lon="-3.733481">
        <ele>582.853</ele>
        <time>2018-08-19T21:40:37Z</time>
      </trkpt>
      <trkpt lat="40.424825" lon="-3.733425">
        <ele>583.016</ele>
        <time>2018-08-19T21:40:39Z</time>
      </trkpt>
      <trkpt lat="40.424800" lon="-3.733355">
        <ele>582.976</ele>
        <time>2018-08-19T21:40:42Z</time>
      </trkpt>
      <trkpt lat="40.424784" lon="-3.733284">
        <ele>582.813</ele>
        <time>2018-08-19T21:40:45Z</time>
      </trkpt>
      <trkpt lat="40.424749" lon="-3.733225">
        <ele>582.608</ele>
        <time>2018-08-19T21:40:48Z</time>
      </trkpt>
      <trkpt lat="40.424698" lon="-3.733169">
        <ele>582.643</ele>
        <time>2018-08-19T21:40:51Z</time>
      </trkpt>
      <trkpt lat="40.424644" lon="-3.733121">
        <ele>582.538</ele>
        <time>2018-08-19T21:40:54Z</time>
      </trkpt>
      <trkpt lat="40.424589" lon="-3.733075">
        <ele>582.798</ele>
        <time>2018-08-19T21:40:57Z</time>
      </trkpt>
      <trkpt lat="40.424551" lon="-3.733041">
        <ele>582.538</ele>
        <time>2018-08-19T21:40:59Z</time>
      </trkpt>
      <trkpt lat="40.424511" lon="-3.733006">
        <ele>582.594</ele>
        <time>2018-08-19T21:41:01Z</time>
      </trkpt>
      <trkpt lat="40.424457" lon="-3.732952">
        <ele>582.457</ele>
        <time>2018-08-19T21:41:04Z</time>
      </trkpt>
      <trkpt lat="40.424415" lon="-3.732920">
        <ele>582.626</ele>
        <time>2018-08-19T21:41:06Z</time>
      </trkpt>
      <trkpt lat="40.424367" lon="-3.732881">
        <ele>582.580</ele>
        <time>2018-08-19T21:41:08Z</time>
      </trkpt>
      <trkpt lat="40.424315" lon="-3.732841">
        <ele>582.717</ele>
        <time>2018-08-19T21:41:10Z</time>
      </trkpt>
      <trkpt lat="40.424262" lon="-3.732796">
        <ele>583.087</ele>
        <time>2018-08-19T21:41:12Z</time>
      </trkpt>
      <trkpt lat="40.424207" lon="-3.732751">
        <ele>582.815</ele>
        <time>2018-08-19T21:41:14Z</time>
      </trkpt>
      <trkpt lat="40.424152" lon="-3.732706">
        <ele>582.908</ele>
        <time>2018-08-19T21:41:16Z</time>
      </trkpt>
      <trkpt lat="40.424100" lon="-3.732665">
        <ele>582.913</ele>
        <time>2018-08-19T21:41:18Z</time>
      </trkpt>
      <trkpt lat="40.424046" lon="-3.732620">
        <ele>582.988</ele>
        <time>2018-08-19T21:41:20Z</time>
      </trkpt>
      <trkpt lat="40.423988" lon="-3.732570">
        <ele>582.958</ele>
        <time>2018-08-19T21:41:22Z</time>
      </trkpt>
      <trkpt lat="40.423933" lon="-3.732526">
        <ele>583.058</ele>
        <time>2018-08-19T21:41:24Z</time>
      </trkpt>
      <trkpt lat="40.423878" lon="-3.732483">
        <ele>583.044</ele>
        <time>2018-08-19T21:41:26Z</time>
      </trkpt>
      <trkpt lat="40.423821" lon="-3.732436">
        <ele>582.987</ele>
        <time>2018-08-19T21:41:28Z</time>
      </trkpt>
      <trkpt lat="40.423768" lon="-3.732391">
        <ele>582.946</ele>
        <time>2018-08-19T21:41:30Z</time>
      </trkpt>
      <trkpt lat="40.423714" lon="-3.732343">
        <ele>583.290</ele>
        <time>2018-08-19T21:41:32Z</time>
      </trkpt>
      <trkpt lat="40.423660" lon="-3.732295">
        <ele>583.128</ele>
        <time>2018-08-19T21:41:34Z</time>
      </trkpt>
      <trkpt lat="40.423607" lon="-3.732251">
        <ele>583.289</ele>
        <time>2018-08-19T21:41:36Z</time>
      </trkpt>
      <trkpt lat="40.423555" lon="-3.732207">
        <ele>583.217</ele>
        <time>2018-08-19T21:41:38Z</time>
      </trkpt>
      <trkpt lat="40.423496" lon="-3.732159">
        <ele>583.308</ele>
        <time>2018-08-19T21:41:40Z</time>
      </trkpt>
      <trkpt lat="40.423437" lon="-3.732112">
        <ele>583.374</ele>
        <time>2018-08-19T21:41:42Z</time>
      </trkpt>
      <trkpt lat="40.423383" lon="-3.732067">
        <ele>583.259</ele>
        <time>2018-08-19T21:41:44Z</time>
      </trkpt>
      <trkpt lat="40.423324" lon="-3.732018">
        <ele>583.589</ele>
        <time>2018-08-19T21:41:46Z</time>
      </trkpt>
      <trkpt lat="40.423267" lon="-3.731970">
        <ele>583.419</ele>
        <time>2018-08-19T21:41:48Z</time>
      </trkpt>
      <trkpt lat="40.423205" lon="-3.731919">
        <ele>583.395</ele>
        <time>2018-08-19T21:41:50Z</time>
      </trkpt>
      <trkpt lat="40.423149" lon="-3.731873">
        <ele>583.028</ele>
        <time>2018-08-19T21:41:52Z</time>
      </trkpt>
      <trkpt lat="40.423087" lon="-3.731822">
        <ele>582.747</ele>
        <time>2018-08-19T21:41:54Z</time>
      </trkpt>
      <trkpt lat="40.423027" lon="-3.731772">
        <ele>582.641</ele>
        <time>2018-08-19T21:41:56Z</time>
      </trkpt>
      <trkpt lat="40.422968" lon="-3.731721">
        <ele>582.745</ele>
        <time>2018-08-19T21:41:58Z</time>
      </trkpt>
      <trkpt lat="40.422913" lon="-3.731675">
        <ele>582.847</ele>
        <time>2018-08-19T21:42:00Z</time>
      </trkpt>
      <trkpt lat="40.422859" lon="-3.731630">
        <ele>582.611</ele>
        <time>2018-08-19T21:42:02Z</time>
      </trkpt>
      <trkpt lat="40.422808" lon="-3.731590">
        <ele>582.608</ele>
        <time>2018-08-19T21:42:04Z</time>
      </trkpt>
      <trkpt lat="40.422756" lon="-3.731548">
        <ele>582.656</ele>
        <time>2018-08-19T21:42:06Z</time>
      </trkpt>
      <trkpt lat="40.422709" lon="-3.731509">
        <ele>582.961</ele>
        <time>2018-08-19T21:42:08Z</time>
      </trkpt>
      <trkpt lat="40.422664" lon="-3.731471">
        <ele>583.091</ele>
        <time>2018-08-19T21:42:10Z</time>
      </trkpt>
      <trkpt lat="40.422620" lon="-3.731434">
        <ele>582.911</ele>
        <time>2018-08-19T21:42:12Z</time>
      </trkpt>
      <trkpt lat="40.422576" lon="-3.731394">
        <ele>582.917</ele>
        <time>2018-08-19T21:42:14Z</time>
      </trkpt>
      <trkpt lat="40.422527" lon="-3.731353">
        <ele>583.120</ele>
        <time>2018-08-19T21:42:16Z</time>
      </trkpt>
      <trkpt lat="40.422472" lon="-3.731306">
        <ele>583.149</ele>
        <time>2018-08-19T21:42:18Z</time>
      </trkpt>
      <trkpt lat="40.422422" lon="-3.731264">
        <ele>583.363</ele>
        <time>2018-08-19T21:42:20Z</time>
      </trkpt>
      <trkpt lat="40.422375" lon="-3.731223">
        <ele>583.359</ele>
        <time>2018-08-19T21:42:22Z</time>
      </trkpt>
      <trkpt lat="40.422332" lon="-3.731182">
        <ele>583.403</ele>
        <time>2018-08-19T21:42:24Z</time>
      </trkpt>
      <trkpt lat="40.422287" lon="-3.731143">
        <ele>583.523</ele>
        <time>2018-08-19T21:42:26Z</time>
      </trkpt>
      <trkpt lat="40.422243" lon="-3.731106">
        <ele>583.608</ele>
        <time>2018-08-19T21:42:28Z</time>
      </trkpt>
      <trkpt lat="40.422202" lon="-3.731071">
        <ele>583.547</ele>
        <time>2018-08-19T21:42:30Z</time>
      </trkpt>
      <trkpt lat="40.422156" lon="-3.731037">
        <ele>583.982</ele>
        <time>2018-08-19T21:42:32Z</time>
      </trkpt>
      <trkpt lat="40.422105" lon="-3.731002">
        <ele>584.112</ele>
        <time>2018-08-19T21:42:34Z</time>
      </trkpt>
      <trkpt lat="40.422055" lon="-3.730968">
        <ele>584.442</ele>
        <time>2018-08-19T21:42:36Z</time>
      </trkpt>
      <trkpt lat="40.422010" lon="-3.730932">
        <ele>584.768</ele>
        <time>2018-08-19T21:42:38Z</time>
      </trkpt>
      <trkpt lat="40.421962" lon="-3.730900">
        <ele>585.041</ele>
        <time>2018-08-19T21:42:40Z</time>
      </trkpt>
      <trkpt lat="40.421921" lon="-3.730863">
        <ele>585.160</ele>
        <time>2018-08-19T21:42:42Z</time>
      </trkpt>
      <trkpt lat="40.421881" lon="-3.730823">
        <ele>585.364</ele>
        <time>2018-08-19T21:42:44Z</time>
      </trkpt>
      <trkpt lat="40.421836" lon="-3.730782">
        <ele>585.356</ele>
        <time>2018-08-19T21:42:46Z</time>
      </trkpt>
      <trkpt lat="40.421787" lon="-3.730743">
        <ele>585.759</ele>
        <time>2018-08-19T21:42:48Z</time>
      </trkpt>
      <trkpt lat="40.421738" lon="-3.730703">
        <ele>585.814</ele>
        <time>2018-08-19T21:42:50Z</time>
      </trkpt>
      <trkpt lat="40.421689" lon="-3.730664">
        <ele>586.008</ele>
        <time>2018-08-19T21:42:52Z</time>
      </trkpt>
      <trkpt lat="40.421643" lon="-3.730629">
        <ele>586.197</ele>
        <time>2018-08-19T21:42:54Z</time>
      </trkpt>
      <trkpt lat="40.421599" lon="-3.730597">
        <ele>586.372</ele>
        <time>2018-08-19T21:42:56Z</time>
      </trkpt>
      <trkpt lat="40.421557" lon="-3.730561">
        <ele>586.762</ele>
        <time>2018-08-19T21:42:58Z</time>
      </trkpt>
      <trkpt lat="40.421514" lon="-3.730523">
        <ele>586.872</ele>
        <time>2018-08-19T21:43:00Z</time>
      </trkpt>
      <trkpt lat="40.421473" lon="-3.730485">
        <ele>587.048</ele>
        <time>2018-08-19T21:43:02Z</time>
      </trkpt>
      <trkpt lat="40.421431" lon="-3.730449">
        <ele>587.181</ele>
        <time>2018-08-19T21:43:04Z</time>
      </trkpt>
      <trkpt lat="40.421387" lon="-3.730413">
        <ele>587.380</ele>
        <time>2018-08-19T21:43:06Z</time>
      </trkpt>
      <trkpt lat="40.421342" lon="-3.730377">
        <ele>587.664</ele>
        <time>2018-08-19T21:43:08Z</time>
      </trkpt>
      <trkpt lat="40.421301" lon="-3.730342">
        <ele>587.437</ele>
        <time>2018-08-19T21:43:10Z</time>
      </trkpt>
      <trkpt lat="40.421260" lon="-3.730304">
        <ele>587.849</ele>
        <time>2018-08-19T21:43:12Z</time>
      </trkpt>
      <trkpt lat="40.421215" lon="-3.730266">
        <ele>588.113</ele>
        <time>2018-08-19T21:43:14Z</time>
      </trkpt>
      <trkpt lat="40.421166" lon="-3.730229">
        <ele>588.308</ele>
        <time>2018-08-19T21:43:16Z</time>
      </trkpt>
      <trkpt lat="40.421115" lon="-3.730192">
        <ele>588.465</ele>
        <time>2018-08-19T21:43:18Z</time>
      </trkpt>
      <trkpt lat="40.421068" lon="-3.730159">
        <ele>588.050</ele>
        <time>2018-08-19T21:43:20Z</time>
      </trkpt>
      <trkpt lat="40.421026" lon="-3.730128">
        <ele>588.050</ele>
        <time>2018-08-19T21:43:22Z</time>
      </trkpt>
      <trkpt lat="40.420975" lon="-3.730084">
        <ele>588.190</ele>
        <time>2018-08-19T21:43:25Z</time>
      </trkpt>
      <trkpt lat="40.420918" lon="-3.730036">
        <ele>588.146</ele>
        <time>2018-08-19T21:43:28Z</time>
      </trkpt>
      <trkpt lat="40.420877" lon="-3.730004">
        <ele>588.259</ele>
        <time>2018-08-19T21:43:30Z</time>
      </trkpt>
      <trkpt lat="40.420834" lon="-3.729974">
        <ele>588.318</ele>
        <time>2018-08-19T21:43:32Z</time>
      </trkpt>
      <trkpt lat="40.420789" lon="-3.729939">
        <ele>588.562</ele>
        <time>2018-08-19T21:43:34Z</time>
      </trkpt>
      <trkpt lat="40.420745" lon="-3.729904">
        <ele>588.635</ele>
        <time>2018-08-19T21:43:36Z</time>
      </trkpt>
      <trkpt lat="40.420705" lon="-3.729870">
        <ele>588.486</ele>
        <time>2018-08-19T21:43:38Z</time>
      </trkpt>
      <trkpt lat="40.420650" lon="-3.729822">
        <ele>588.514</ele>
        <time>2018-08-19T21:43:41Z</time>
      </trkpt>
      <trkpt lat="40.420610" lon="-3.729791">
        <ele>588.508</ele>
        <time>2018-08-19T21:43:43Z</time>
      </trkpt>
      <trkpt lat="40.420570" lon="-3.729757">
        <ele>588.435</ele>
        <time>2018-08-19T21:43:45Z</time>
      </trkpt>
      <trkpt lat="40.420530" lon="-3.729722">
        <ele>588.230</ele>
        <time>2018-08-19T21:43:47Z</time>
      </trkpt>
      <trkpt lat="40.420493" lon="-3.729686">
        <ele>588.150</ele>
        <time>2018-08-19T21:43:49Z</time>
      </trkpt>
      <trkpt lat="40.420457" lon="-3.729645">
        <ele>587.820</ele>
        <time>2018-08-19T21:43:51Z</time>
      </trkpt>
      <trkpt lat="40.420415" lon="-3.729602">
        <ele>587.696</ele>
        <time>2018-08-19T21:43:53Z</time>
      </trkpt>
      <trkpt lat="40.420375" lon="-3.729552">
        <ele>587.669</ele>
        <time>2018-08-19T21:43:55Z</time>
      </trkpt>
      <trkpt lat="40.420338" lon="-3.729498">
        <ele>587.318</ele>
        <time>2018-08-19T21:43:57Z</time>
      </trkpt>
      <trkpt lat="40.420302" lon="-3.729446">
        <ele>587.252</ele>
        <time>2018-08-19T21:43:59Z</time>
      </trkpt>
      <trkpt lat="40.420257" lon="-3.729391">
        <ele>587.237</ele>
        <time>2018-08-19T21:44:01Z</time>
      </trkpt>
      <trkpt lat="40.420209" lon="-3.729340">
        <ele>586.949</ele>
        <time>2018-08-19T21:44:03Z</time>
      </trkpt>
      <trkpt lat="40.420163" lon="-3.729295">
        <ele>586.613</ele>
        <time>2018-08-19T21:44:05Z</time>
      </trkpt>
      <trkpt lat="40.420114" lon="-3.729259">
        <ele>586.908</ele>
        <time>2018-08-19T21:44:07Z</time>
      </trkpt>
      <trkpt lat="40.420058" lon="-3.729236">
        <ele>586.315</ele>
        <time>2018-08-19T21:44:09Z</time>
      </trkpt>
      <trkpt lat="40.420002" lon="-3.729224">
        <ele>586.120</ele>
        <time>2018-08-19T21:44:11Z</time>
      </trkpt>
      <trkpt lat="40.419948" lon="-3.729220">
        <ele>585.660</ele>
        <time>2018-08-19T21:44:13Z</time>
      </trkpt>
      <trkpt lat="40.419891" lon="-3.729221">
        <ele>585.150</ele>
        <time>2018-08-19T21:44:15Z</time>
      </trkpt>
      <trkpt lat="40.419834" lon="-3.729221">
        <ele>584.916</ele>
        <time>2018-08-19T21:44:17Z</time>
      </trkpt>
      <trkpt lat="40.419779" lon="-3.729219">
        <ele>584.589</ele>
        <time>2018-08-19T21:44:19Z</time>
      </trkpt>
      <trkpt lat="40.419730" lon="-3.729215">
        <ele>584.458</ele>
        <time>2018-08-19T21:44:21Z</time>
      </trkpt>
      <trkpt lat="40.419685" lon="-3.729207">
        <ele>584.062</ele>
        <time>2018-08-19T21:44:23Z</time>
      </trkpt>
      <trkpt lat="40.419641" lon="-3.729194">
        <ele>583.982</ele>
        <time>2018-08-19T21:44:25Z</time>
      </trkpt>
      <trkpt lat="40.419577" lon="-3.729175">
        <ele>583.643</ele>
        <time>2018-08-19T21:44:28Z</time>
      </trkpt>
      <trkpt lat="40.419527" lon="-3.729163">
        <ele>583.317</ele>
        <time>2018-08-19T21:44:30Z</time>
      </trkpt>
      <trkpt lat="40.419475" lon="-3.729148">
        <ele>583.408</ele>
        <time>2018-08-19T21:44:32Z</time>
      </trkpt>
      <trkpt lat="40.419425" lon="-3.729127">
        <ele>583.250</ele>
        <time>2018-08-19T21:44:34Z</time>
      </trkpt>
      <trkpt lat="40.419375" lon="-3.729109">
        <ele>582.855</ele>
        <time>2018-08-19T21:44:36Z</time>
      </trkpt>
      <trkpt lat="40.419316" lon="-3.729092">
        <ele>582.815</ele>
        <time>2018-08-19T21:44:38Z</time>
      </trkpt>
      <trkpt lat="40.419253" lon="-3.729075">
        <ele>582.545</ele>
        <time>2018-08-19T21:44:40Z</time>
      </trkpt>
      <trkpt lat="40.419204" lon="-3.729053">
        <ele>582.341</ele>
        <time>2018-08-19T21:44:42Z</time>
      </trkpt>
      <trkpt lat="40.419146" lon="-3.729020">
        <ele>582.064</ele>
        <time>2018-08-19T21:44:44Z</time>
      </trkpt>
      <trkpt lat="40.419072" lon="-3.728982">
        <ele>582.033</ele>
        <time>2018-08-19T21:44:46Z</time>
      </trkpt>
      <trkpt lat="40.419004" lon="-3.728957">
        <ele>581.687</ele>
        <time>2018-08-19T21:44:48Z</time>
      </trkpt>
      <trkpt lat="40.418945" lon="-3.728937">
        <ele>581.222</ele>
        <time>2018-08-19T21:44:50Z</time>
      </trkpt>
      <trkpt lat="40.418896" lon="-3.728916">
        <ele>581.062</ele>
        <time>2018-08-19T21:44:52Z</time>
      </trkpt>
      <trkpt lat="40.418844" lon="-3.728892">
        <ele>580.708</ele>
        <time>2018-08-19T21:44:54Z</time>
      </trkpt>
      <trkpt lat="40.418787" lon="-3.728866">
        <ele>580.608</ele>
        <time>2018-08-19T21:44:56Z</time>
      </trkpt>
      <trkpt lat="40.418735" lon="-3.728841">
        <ele>580.354</ele>
        <time>2018-08-19T21:44:58Z</time>
      </trkpt>
      <trkpt lat="40.418684" lon="-3.728818">
        <ele>580.129</ele>
        <time>2018-08-19T21:45:00Z</time>
      </trkpt>
      <trkpt lat="40.418635" lon="-3.728795">
        <ele>579.979</ele>
        <time>2018-08-19T21:45:02Z</time>
      </trkpt>
      <trkpt lat="40.418592" lon="-3.728772">
        <ele>579.789</ele>
        <time>2018-08-19T21:45:04Z</time>
      </trkpt>
      <trkpt lat="40.418531" lon="-3.728740">
        <ele>579.385</ele>
        <time>2018-08-19T21:45:07Z</time>
      </trkpt>
      <trkpt lat="40.418464" lon="-3.728711">
        <ele>579.438</ele>
        <time>2018-08-19T21:45:09Z</time>
      </trkpt>
      <trkpt lat="40.418384" lon="-3.728669">
        <ele>579.517</ele>
        <time>2018-08-19T21:45:11Z</time>
      </trkpt>
      <trkpt lat="40.418314" lon="-3.728633">
        <ele>579.611</ele>
        <time>2018-08-19T21:45:13Z</time>
      </trkpt>
      <trkpt lat="40.418261" lon="-3.728597">
        <ele>579.336</ele>
        <time>2018-08-19T21:45:15Z</time>
      </trkpt>
      <trkpt lat="40.418209" lon="-3.728555">
        <ele>579.217</ele>
        <time>2018-08-19T21:45:18Z</time>
      </trkpt>
      <trkpt lat="40.418190" lon="-3.728490">
        <ele>579.218</ele>
        <time>2018-08-19T21:45:22Z</time>
      </trkpt>
      <trkpt lat="40.418205" lon="-3.728431">
        <ele>578.708</ele>
        <time>2018-08-19T21:45:25Z</time>
      </trkpt>
      <trkpt lat="40.418217" lon="-3.728364">
        <ele>578.725</ele>
        <time>2018-08-19T21:45:27Z</time>
      </trkpt>
      <trkpt lat="40.418228" lon="-3.728282">
        <ele>578.690</ele>
        <time>2018-08-19T21:45:29Z</time>
      </trkpt>
      <trkpt lat="40.418239" lon="-3.728197">
        <ele>578.350</ele>
        <time>2018-08-19T21:45:31Z</time>
      </trkpt>
      <trkpt lat="40.418254" lon="-3.728118">
        <ele>578.450</ele>
        <time>2018-08-19T21:45:33Z</time>
      </trkpt>
      <trkpt lat="40.418272" lon="-3.728034">
        <ele>578.176</ele>
        <time>2018-08-19T21:45:35Z</time>
      </trkpt>
      <trkpt lat="40.418290" lon="-3.727944">
        <ele>577.979</ele>
        <time>2018-08-19T21:45:37Z</time>
      </trkpt>
      <trkpt lat="40.418308" lon="-3.727856">
        <ele>577.888</ele>
        <time>2018-08-19T21:45:39Z</time>
      </trkpt>
      <trkpt lat="40.418325" lon="-3.727770">
        <ele>578.032</ele>
        <time>2018-08-19T21:45:41Z</time>
      </trkpt>
      <trkpt lat="40.418348" lon="-3.727670">
        <ele>577.724</ele>
        <time>2018-08-19T21:45:43Z</time>
      </trkpt>
      <trkpt lat="40.418366" lon="-3.727576">
        <ele>577.804</ele>
        <time>2018-08-19T21:45:45Z</time>
      </trkpt>
      <trkpt lat="40.418388" lon="-3.727483">
        <ele>577.714</ele>
        <time>2018-08-19T21:45:47Z</time>
      </trkpt>
      <trkpt lat="40.418413" lon="-3.727380">
        <ele>577.508</ele>
        <time>2018-08-19T21:45:49Z</time>
      </trkpt>
      <trkpt lat="40.418437" lon="-3.727268">
        <ele>577.364</ele>
        <time>2018-08-19T21:45:51Z</time>
      </trkpt>
      <trkpt lat="40.418457" lon="-3.727157">
        <ele>577.179</ele>
        <time>2018-08-19T21:45:53Z</time>
      </trkpt>
      <trkpt lat="40.418473" lon="-3.727040">
        <ele>576.989</ele>
        <time>2018-08-19T21:45:55Z</time>
      </trkpt>
      <trkpt lat="40.418482" lon="-3.726927">
        <ele>576.969</ele>
        <time>2018-08-19T21:45:57Z</time>
      </trkpt>
      <trkpt lat="40.418488" lon="-3.726823">
        <ele>576.515</ele>
        <time>2018-08-19T21:45:59Z</time>
      </trkpt>
      <trkpt lat="40.418495" lon="-3.726720">
        <ele>576.538</ele>
        <time>2018-08-19T21:46:01Z</time>
      </trkpt>
      <trkpt lat="40.418503" lon="-3.726622">
        <ele>576.137</ele>
        <time>2018-08-19T21:46:03Z</time>
      </trkpt>
      <trkpt lat="40.418511" lon="-3.726533">
        <ele>576.011</ele>
        <time>2018-08-19T21:46:05Z</time>
      </trkpt>
      <trkpt lat="40.418521" lon="-3.726446">
        <ele>576.182</ele>
        <time>2018-08-19T21:46:07Z</time>
      </trkpt>
      <trkpt lat="40.418527" lon="-3.726356">
        <ele>576.043</ele>
        <time>2018-08-19T21:46:09Z</time>
      </trkpt>
      <trkpt lat="40.418534" lon="-3.726258">
        <ele>575.917</ele>
        <time>2018-08-19T21:46:11Z</time>
      </trkpt>
      <trkpt lat="40.418542" lon="-3.726161">
        <ele>575.808</ele>
        <time>2018-08-19T21:46:13Z</time>
      </trkpt>
      <trkpt lat="40.418547" lon="-3.726069">
        <ele>575.540</ele>
        <time>2018-08-19T21:46:15Z</time>
      </trkpt>
      <trkpt lat="40.418550" lon="-3.725985">
        <ele>575.485</ele>
        <time>2018-08-19T21:46:17Z</time>
      </trkpt>
      <trkpt lat="40.418553" lon="-3.725902">
        <ele>575.645</ele>
        <time>2018-08-19T21:46:19Z</time>
      </trkpt>
      <trkpt lat="40.418556" lon="-3.725814">
        <ele>575.475</ele>
        <time>2018-08-19T21:46:21Z</time>
      </trkpt>
      <trkpt lat="40.418557" lon="-3.725719">
        <ele>575.191</ele>
        <time>2018-08-19T21:46:23Z</time>
      </trkpt>
      <trkpt lat="40.418554" lon="-3.725628">
        <ele>575.144</ele>
        <time>2018-08-19T21:46:25Z</time>
      </trkpt>
      <trkpt lat="40.418553" lon="-3.725531">
        <ele>574.923</ele>
        <time>2018-08-19T21:46:27Z</time>
      </trkpt>
      <trkpt lat="40.418557" lon="-3.725422">
        <ele>574.717</ele>
        <time>2018-08-19T21:46:29Z</time>
      </trkpt>
      <trkpt lat="40.418560" lon="-3.725310">
        <ele>574.761</ele>
        <time>2018-08-19T21:46:31Z</time>
      </trkpt>
      <trkpt lat="40.418561" lon="-3.725204">
        <ele>574.721</ele>
        <time>2018-08-19T21:46:33Z</time>
      </trkpt>
      <trkpt lat="40.418561" lon="-3.725102">
        <ele>574.613</ele>
        <time>2018-08-19T21:46:35Z</time>
      </trkpt>
      <trkpt lat="40.418560" lon="-3.725002">
        <ele>574.408</ele>
        <time>2018-08-19T21:46:37Z</time>
      </trkpt>
      <trkpt lat="40.418556" lon="-3.724916">
        <ele>574.598</ele>
        <time>2018-08-19T21:46:39Z</time>
      </trkpt>
      <trkpt lat="40.418553" lon="-3.724841">
        <ele>574.553</ele>
        <time>2018-08-19T21:46:41Z</time>
      </trkpt>
      <trkpt lat="40.418556" lon="-3.724758">
        <ele>574.473</ele>
        <time>2018-08-19T21:46:43Z</time>
      </trkpt>
      <trkpt lat="40.418559" lon="-3.724674">
        <ele>574.243</ele>
        <time>2018-08-19T21:46:45Z</time>
      </trkpt>
      <trkpt lat="40.418564" lon="-3.724597">
        <ele>574.279</ele>
        <time>2018-08-19T21:46:47Z</time>
      </trkpt>
      <trkpt lat="40.418568" lon="-3.724525">
        <ele>574.332</ele>
        <time>2018-08-19T21:46:49Z</time>
      </trkpt>
      <trkpt lat="40.418576" lon="-3.724459">
        <ele>574.181</ele>
        <time>2018-08-19T21:46:51Z</time>
      </trkpt>
      <trkpt lat="40.418588" lon="-3.724392">
        <ele>574.035</ele>
        <time>2018-08-19T21:46:53Z</time>
      </trkpt>
      <trkpt lat="40.418612" lon="-3.724322">
        <ele>574.162</ele>
        <time>2018-08-19T21:46:55Z</time>
      </trkpt>
      <trkpt lat="40.418645" lon="-3.724255">
        <ele>573.983</ele>
        <time>2018-08-19T21:46:57Z</time>
      </trkpt>
      <trkpt lat="40.418681" lon="-3.724206">
        <ele>573.811</ele>
        <time>2018-08-19T21:46:59Z</time>
      </trkpt>
      <trkpt lat="40.418731" lon="-3.724168">
        <ele>574.008</ele>
        <time>2018-08-19T21:47:02Z</time>
      </trkpt>
      <trkpt lat="40.418773" lon="-3.724138">
        <ele>573.858</ele>
        <time>2018-08-19T21:47:35Z</time>
      </trkpt>
      <trkpt lat="40.418811" lon="-3.724104">
        <ele>573.983</ele>
        <time>2018-08-19T21:48:04Z</time>
      </trkpt>
      <trkpt lat="40.418779" lon="-3.724061">
        <ele>573.733</ele>
        <time>2018-08-19T21:48:10Z</time>
      </trkpt>
      <trkpt lat="40.418739" lon="-3.724029">
        <ele>573.963</ele>
        <time>2018-08-19T21:48:26Z</time>
      </trkpt>
      <trkpt lat="40.418711" lon="-3.723970">
        <ele>574.469</ele>
        <time>2018-08-19T21:48:50Z</time>
      </trkpt>
      <trkpt lat="40.418703" lon="-3.723911">
        <ele>574.012</ele>
        <time>2018-08-19T21:48:53Z</time>
      </trkpt>
      <trkpt lat="40.418703" lon="-3.723845">
        <ele>574.411</ele>
        <time>2018-08-19T21:48:56Z</time>
      </trkpt>
      <trkpt lat="40.418708" lon="-3.723771">
        <ele>574.585</ele>
        <time>2018-08-19T21:48:59Z</time>
      </trkpt>
      <trkpt lat="40.418715" lon="-3.723687">
        <ele>574.476</ele>
        <time>2018-08-19T21:49:02Z</time>
      </trkpt>
      <trkpt lat="40.418726" lon="-3.723600">
        <ele>574.390</ele>
        <time>2018-08-19T21:49:05Z</time>
      </trkpt>
      <trkpt lat="40.418737" lon="-3.723513">
        <ele>574.219</ele>
        <time>2018-08-19T21:49:08Z</time>
      </trkpt>
      <trkpt lat="40.418746" lon="-3.723427">
        <ele>574.008</ele>
        <time>2018-08-19T21:49:11Z</time>
      </trkpt>
      <trkpt lat="40.418760" lon="-3.723343">
        <ele>574.149</ele>
        <time>2018-08-19T21:49:14Z</time>
      </trkpt>
      <trkpt lat="40.418773" lon="-3.723269">
        <ele>574.484</ele>
        <time>2018-08-19T21:49:17Z</time>
      </trkpt>
      <trkpt lat="40.418782" lon="-3.723202">
        <ele>574.614</ele>
        <time>2018-08-19T21:49:20Z</time>
      </trkpt>
      <trkpt lat="40.418790" lon="-3.723137">
        <ele>574.944</ele>
        <time>2018-08-19T21:49:22Z</time>
      </trkpt>
      <trkpt lat="40.418797" lon="-3.723057">
        <ele>575.350</ele>
        <time>2018-08-19T21:49:24Z</time>
      </trkpt>
      <trkpt lat="40.418797" lon="-3.722972">
        <ele>575.773</ele>
        <time>2018-08-19T21:49:26Z</time>
      </trkpt>
      <trkpt lat="40.418791" lon="-3.722886">
        <ele>575.912</ele>
        <time>2018-08-19T21:49:28Z</time>
      </trkpt>
      <trkpt lat="40.418783" lon="-3.722810">
        <ele>576.116</ele>
        <time>2018-08-19T21:49:30Z</time>
      </trkpt>
      <trkpt lat="40.418777" lon="-3.722744">
        <ele>576.241</ele>
        <time>2018-08-19T21:49:32Z</time>
      </trkpt>
      <trkpt lat="40.418777" lon="-3.722682">
        <ele>576.181</ele>
        <time>2018-08-19T21:49:34Z</time>
      </trkpt>
      <trkpt lat="40.418787" lon="-3.722623">
        <ele>576.009</ele>
        <time>2018-08-19T21:49:36Z</time>
      </trkpt>
      <trkpt lat="40.418794" lon="-3.722553">
        <ele>575.808</ele>
        <time>2018-08-19T21:49:38Z</time>
      </trkpt>
      <trkpt lat="40.418802" lon="-3.722472">
        <ele>575.846</ele>
        <time>2018-08-19T21:49:40Z</time>
      </trkpt>
      <trkpt lat="40.418810" lon="-3.722387">
        <ele>575.761</ele>
        <time>2018-08-19T21:49:42Z</time>
      </trkpt>
      <trkpt lat="40.418812" lon="-3.722307">
        <ele>575.751</ele>
        <time>2018-08-19T21:49:44Z</time>
      </trkpt>
      <trkpt lat="40.418805" lon="-3.722226">
        <ele>575.931</ele>
        <time>2018-08-19T21:49:46Z</time>
      </trkpt>
      <trkpt lat="40.418802" lon="-3.722146">
        <ele>575.887</ele>
        <time>2018-08-19T21:49:48Z</time>
      </trkpt>
      <trkpt lat="40.418800" lon="-3.722069">
        <ele>575.920</ele>
        <time>2018-08-19T21:49:50Z</time>
      </trkpt>
      <trkpt lat="40.418797" lon="-3.721992">
        <ele>575.749</ele>
        <time>2018-08-19T21:49:52Z</time>
      </trkpt>
      <trkpt lat="40.418794" lon="-3.721924">
        <ele>575.753</ele>
        <time>2018-08-19T21:49:54Z</time>
      </trkpt>
      <trkpt lat="40.418791" lon="-3.721861">
        <ele>575.787</ele>
        <time>2018-08-19T21:49:56Z</time>
      </trkpt>
      <trkpt lat="40.418783" lon="-3.721799">
        <ele>575.742</ele>
        <time>2018-08-19T21:49:58Z</time>
      </trkpt>
      <trkpt lat="40.418778" lon="-3.721719">
        <ele>575.826</ele>
        <time>2018-08-19T21:50:01Z</time>
      </trkpt>
      <trkpt lat="40.418793" lon="-3.721644">
        <ele>576.108</ele>
        <time>2018-08-19T21:50:05Z</time>
      </trkpt>
      <trkpt lat="40.418810" lon="-3.721579">
        <ele>576.160</ele>
        <time>2018-08-19T21:50:08Z</time>
      </trkpt>
      <trkpt lat="40.418814" lon="-3.721500">
        <ele>576.735</ele>
        <time>2018-08-19T21:50:11Z</time>
      </trkpt>
      <trkpt lat="40.418808" lon="-3.721438">
        <ele>577.015</ele>
        <time>2018-08-19T21:50:13Z</time>
      </trkpt>
      <trkpt lat="40.418798" lon="-3.721371">
        <ele>577.965</ele>
        <time>2018-08-19T21:50:15Z</time>
      </trkpt>
      <trkpt lat="40.418795" lon="-3.721301">
        <ele>578.451</ele>
        <time>2018-08-19T21:50:17Z</time>
      </trkpt>
      <trkpt lat="40.418795" lon="-3.721229">
        <ele>579.114</ele>
        <time>2018-08-19T21:50:19Z</time>
      </trkpt>
      <trkpt lat="40.418795" lon="-3.721158">
        <ele>579.683</ele>
        <time>2018-08-19T21:50:21Z</time>
      </trkpt>
      <trkpt lat="40.418794" lon="-3.721090">
        <ele>579.627</ele>
        <time>2018-08-19T21:50:23Z</time>
      </trkpt>
      <trkpt lat="40.418791" lon="-3.721027">
        <ele>580.059</ele>
        <time>2018-08-19T21:50:25Z</time>
      </trkpt>
      <trkpt lat="40.418792" lon="-3.720946">
        <ele>580.503</ele>
        <time>2018-08-19T21:50:28Z</time>
      </trkpt>
      <trkpt lat="40.418820" lon="-3.720870">
        <ele>580.723</ele>
        <time>2018-08-19T21:50:31Z</time>
      </trkpt>
      <trkpt lat="40.418863" lon="-3.720830">
        <ele>580.708</ele>
        <time>2018-08-19T21:50:33Z</time>
      </trkpt>
      <trkpt lat="40.418916" lon="-3.720795">
        <ele>581.237</ele>
        <time>2018-08-19T21:50:35Z</time>
      </trkpt>
      <trkpt lat="40.418972" lon="-3.720769">
        <ele>581.662</ele>
        <time>2018-08-19T21:50:37Z</time>
      </trkpt>
      <trkpt lat="40.419026" lon="-3.720747">
        <ele>581.852</ele>
        <time>2018-08-19T21:50:39Z</time>
      </trkpt>
      <trkpt lat="40.419078" lon="-3.720728">
        <ele>582.322</ele>
        <time>2018-08-19T21:50:41Z</time>
      </trkpt>
      <trkpt lat="40.419124" lon="-3.720710">
        <ele>582.868</ele>
        <time>2018-08-19T21:50:43Z</time>
      </trkpt>
      <trkpt lat="40.419170" lon="-3.720695">
        <ele>583.391</ele>
        <time>2018-08-19T21:50:45Z</time>
      </trkpt>
      <trkpt lat="40.419232" lon="-3.720677">
        <ele>583.640</ele>
        <time>2018-08-19T21:50:48Z</time>
      </trkpt>
      <trkpt lat="40.419288" lon="-3.720659">
        <ele>583.914</ele>
        <time>2018-08-19T21:50:51Z</time>
      </trkpt>
      <trkpt lat="40.419339" lon="-3.720653">
        <ele>584.195</ele>
        <time>2018-08-19T21:50:54Z</time>
      </trkpt>
      <trkpt lat="40.419397" lon="-3.720647">
        <ele>584.049</ele>
        <time>2018-08-19T21:50:57Z</time>
      </trkpt>
      <trkpt lat="40.419455" lon="-3.720635">
        <ele>584.123</ele>
        <time>2018-08-19T21:51:00Z</time>
      </trkpt>
      <trkpt lat="40.419514" lon="-3.720616">
        <ele>583.808</ele>
        <time>2018-08-19T21:51:03Z</time>
      </trkpt>
      <trkpt lat="40.419575" lon="-3.720591">
        <ele>583.921</ele>
        <time>2018-08-19T21:51:06Z</time>
      </trkpt>
      <trkpt lat="40.419634" lon="-3.720564">
        <ele>584.176</ele>
        <time>2018-08-19T21:51:09Z</time>
      </trkpt>
      <trkpt lat="40.419694" lon="-3.720530">
        <ele>584.316</ele>
        <time>2018-08-19T21:51:12Z</time>
      </trkpt>
      <trkpt lat="40.419734" lon="-3.720494">
        <ele>584.486</ele>
        <time>2018-08-19T21:51:14Z</time>
      </trkpt>
      <trkpt lat="40.419754" lon="-3.720418">
        <ele>584.622</ele>
        <time>2018-08-19T21:51:17Z</time>
      </trkpt>
      <trkpt lat="40.419733" lon="-3.720344">
        <ele>584.325</ele>
        <time>2018-08-19T21:51:20Z</time>
      </trkpt>
      <trkpt lat="40.419712" lon="-3.720289">
        <ele>584.634</ele>
        <time>2018-08-19T21:52:16Z</time>
      </trkpt>
      <trkpt lat="40.419740" lon="-3.720241">
        <ele>585.198</ele>
        <time>2018-08-19T21:52:19Z</time>
      </trkpt>
      <trkpt lat="40.419798" lon="-3.720202">
        <ele>585.532</ele>
        <time>2018-08-19T21:52:22Z</time>
      </trkpt>
      <trkpt lat="40.419856" lon="-3.720160">
        <ele>585.592</ele>
        <time>2018-08-19T21:52:25Z</time>
      </trkpt>
      <trkpt lat="40.419876" lon="-3.720077">
        <ele>585.511</ele>
        <time>2018-08-19T21:52:28Z</time>
      </trkpt>
      <trkpt lat="40.419890" lon="-3.720015">
        <ele>585.708</ele>
        <time>2018-08-19T21:52:30Z</time>
      </trkpt>
      <trkpt lat="40.419921" lon="-3.719952">
        <ele>586.065</ele>
        <time>2018-08-19T21:52:33Z</time>
      </trkpt>
      <trkpt lat="40.419960" lon="-3.719912">
        <ele>586.160</ele>
        <time>2018-08-19T21:52:38Z</time>
      </trkpt>
      <trkpt lat="40.419989" lon="-3.719863">
        <ele>585.710</ele>
        <time>2018-08-19T21:53:06Z</time>
      </trkpt>
      <trkpt lat="40.420039" lon="-3.719857">
        <ele>585.890</ele>
        <time>2018-08-19T21:53:10Z</time>
      </trkpt>
      <trkpt lat="40.420087" lon="-3.719880">
        <ele>586.326</ele>
        <time>2018-08-19T21:53:13Z</time>
      </trkpt>
      <trkpt lat="40.420151" lon="-3.719906">
        <ele>586.329</ele>
        <time>2018-08-19T21:53:16Z</time>
      </trkpt>
      <trkpt lat="40.420201" lon="-3.719919">
        <ele>586.358</ele>
        <time>2018-08-19T21:53:18Z</time>
      </trkpt>
      <trkpt lat="40.420256" lon="-3.719924">
        <ele>586.132</ele>
        <time>2018-08-19T21:53:20Z</time>
      </trkpt>
      <trkpt lat="40.420315" lon="-3.719923">
        <ele>586.067</ele>
        <time>2018-08-19T21:53:22Z</time>
      </trkpt>
      <trkpt lat="40.420371" lon="-3.719910">
        <ele>586.181</ele>
        <time>2018-08-19T21:53:24Z</time>
      </trkpt>
      <trkpt lat="40.420423" lon="-3.719892">
        <ele>586.319</ele>
        <time>2018-08-19T21:53:26Z</time>
      </trkpt>
      <trkpt lat="40.420475" lon="-3.719885">
        <ele>586.108</ele>
        <time>2018-08-19T21:53:28Z</time>
      </trkpt>
      <trkpt lat="40.420521" lon="-3.719890">
        <ele>586.098</ele>
        <time>2018-08-19T21:53:30Z</time>
      </trkpt>
      <trkpt lat="40.420572" lon="-3.719911">
        <ele>586.013</ele>
        <time>2018-08-19T21:53:33Z</time>
      </trkpt>
      <trkpt lat="40.420622" lon="-3.719937">
        <ele>586.193</ele>
        <time>2018-08-19T21:53:36Z</time>
      </trkpt>
      <trkpt lat="40.420673" lon="-3.719956">
        <ele>585.793</ele>
        <time>2018-08-19T21:53:39Z</time>
      </trkpt>
      <trkpt lat="40.420700" lon="-3.720005">
        <ele>585.849</ele>
        <time>2018-08-19T21:53:46Z</time>
      </trkpt>
    </trkseg>
  </trk>
</gpx>
